[[{"header":{"parameterUnit":"m.s-1","parameterCategory":1,"la1":30.6,"la2":28.766,"lo1":-90.7593,"lo2":-88.6598,"dy":0.0162,"dx":0.0183,"nx":116,"ny":114,"refTime":"2023-03-16T18:00:00:Z","depth":0,"parameterNumber":2,"parameterNumberName":"U-component_of_WINDS"},"data":[0.0,0.0,0.0,0.0,0.0,0.0,0.0,0.0,0.0,0.0,0.0,0.0,0.0,0.0,0.0,0.0,0.0,0.0,0.0,0.0,0.0,0.0,0.0,0.0,0.0,0.0,0.0,0.0,0.0,0.0,0.0,0.0,0.0,0.0,0.0,0.0,0.0,0.0,0.0,0.0,0.0,0.0,0.0,0.0,0.0,0.0,0.0,0.0,0.0,0.0,0.0,0.0,0.0,0.0,0.0,0.0,0.0,0.0,0.0,0.0,0.0,0.0,0.0,0.0,0.0,0.0,0.0,0.0,0.0,0.0,0.0,0.0,0.0,0.0,0.0,0.0,0.0,0.0,0.0,0.0,0.0,0.0,0.0,0.0,0.0,0.0,0.0,0.0,0.0,0.0,0.0,0.0,0.0,0.0,0.0,0.0,0.0,0.0,0.0,0.0,0.0,0.0,0.0,0.0,0.0,0.0,0.0,0.0,0.0,0.0,0.0,0.0,0.0,0.0,0.0,0.0,0.0,0.0,0.0,0.0,0.0,0.0,0.0,0.0,0.0,0.0,0.0,0.0,0.0,0.0,0.0,0.0,0.0,0.0,0.0,0.0,0.0,0.0,0.0,0.0,0.0,0.0,0.0,0.0,0.0,0.0,0.0,0.0,0.0,0.0,0.0,0.0,0.0,0.0,0.0,0.0,0.0,0.0,0.0,0.0,0.0,0.0,0.0,0.0,0.0,0.0,0.0,0.0,0.0,0.0,0.0,0.0,0.0,0.0,0.0,0.0,0.0,0.0,0.0,0.0,0.0,0.0,0.0,0.0,0.0,0.0,0.0,0.0,0.0,0.0,0.0,0.0,0.0,0.0,0.0,0.0,0.0,0.0,0.0,0.0,0.0,0.0,0.0,0.0,0.0,0.0,0.0,0.0,0.0,0.0,0.0,0.0,0.0,0.0,0.0,0.0,0.0,0.0,0.0,0.0,0.0,0.0,0.0,0.0,0.0,0.0,0.0,0.0,0.0,0.0,0.0,0.0,0.0,0.0,0.0,0.0,0.0,0.0,0.0,0.0,0.0,0.0,0.0,0.0,0.0,0.0,0.0,0.0,0.0,0.0,0.0,0.0,0.0,0.0,0.0,0.0,0.0,0.0,0.0,0.0,0.0,0.0,0.0,0.0,0.0,0.0,0.0,0.0,0.0,0.0,0.0,0.0,0.0,0.0,0.0,0.0,0.0,0.0,0.0,0.0,0.0,0.0,0.0,0.0,0.0,0.0,0.0,0.0,0.0,0.0,0.0,0.0,0.0,0.0,0.0,0.0,0.0,0.0,0.0,0.0,0.0,0.0,0.0,0.0,0.0,0.0,0.0,0.0,0.0,0.0,0.0,0.0,0.0,0.0,0.0,0.0,0.0,0.0,0.0,0.0,0.0,0.0,0.0,0.0,0.0,0.0,0.0,0.0,0.0,0.0,0.0,0.0,0.0,0.0,0.0,0.0,0.0,0.0,0.0,0.0,0.0,0.0,0.0,0.0,0.0,0.0,0.0,0.0,0.0,0.0,0.0,0.0,0.0,0.0,0.0,0.0,0.0,0.0,0.0,0.0,0.0,0.0,0.0,0.0,0.0,0.0,0.0,0.0,0.0,0.0,0.0,0.0,0.0,0.0,0.0,0.0,0.0,0.0,0.0,0.0,0.0,0.0,0.0,0.0,0.0,0.0,0.0,0.0,0.0,0.0,0.0,0.0,0.0,0.0,0.0,0.0,0.0,0.0,0.0,0.0,0.0,0.0,0.0,0.0,0.0,0.0,0.0,0.0,0.0,0.0,0.0,0.0,0.0,0.0,0.0,0.0,0.0,0.0,0.0,0.0,0.0,0.0,0.0,0.0,0.0,0.0,0.0,0.0,0.0,0.0,0.0,0.0,0.0,0.0,0.0,0.0,0.0,0.0,0.0,0.0,0.0,0.0,0.0,0.0,0.0,0.0,0.0,0.0,0.0,0.0,0.0,0.0,0.0,0.0,0.0,0.0,0.0,0.0,0.0,0.0,0.0,0.0,0.0,0.0,0.0,0.0,0.0,0.0,0.0,0.0,0.0,0.0,0.0,0.0,0.0,0.0,0.0,0.0,0.0,0.0,0.0,0.0,0.0,0.0,0.0,0.0,0.0,0.0,0.0,0.0,0.0,0.0,0.0,0.0,0.0,0.0,0.0,0.0,0.0,0.0,0.0,0.0,0.0,0.0,0.0,0.0,0.0,0.0,0.0,0.0,0.0,0.0,0.0,0.0,0.0,0.0,0.0,0.0,0.0,0.0,0.0,0.0,0.0,0.0,0.0,0.0,0.0,0.0,0.0,0.0,0.0,0.0,0.0,0.0,0.0,0.0,0.0,0.0,0.0,0.0,0.0,0.0,0.0,0.0,0.0,0.0,0.0,0.0,0.0,0.0,0.0,0.0,0.0,0.0,0.0,0.0,0.0,0.0,0.0,0.0,0.0,0.0,0.0,0.0,0.0,0.0,0.0,0.0,0.0,0.0,0.0,0.0,0.0,0.0,0.0,0.0,0.0,0.0,0.0,0.0,0.0,0.0,0.0,0.0,0.0,0.0,0.0,0.0,0.0,0.0,0.0,0.0,0.0,0.0,0.0,0.0,0.0,0.0,0.0,0.0,0.0,0.0,0.0,0.0,0.0,0.0,0.0,0.0,0.0,0.0,0.0,0.0,0.0,0.0,0.0,0.0,0.0,0.0,0.0,0.0,0.0,0.0,0.0,0.0,0.0,0.0,0.0,0.0,0.0,0.0,0.0,0.0,0.0,0.0,0.0,0.0,0.0,0.0,0.0,0.0,0.0,0.0,0.0,0.0,0.0,0.0,0.0,0.0,0.0,0.0,0.0,0.0,0.0,0.0,0.0,0.0,0.0,0.0,0.0,0.0,0.0,0.0,0.0,0.0,0.0,0.0,0.0,0.0,0.0,0.0,0.0,0.0,0.0,0.0,0.0,0.0,0.0,0.0,0.0,0.0,0.0,0.0,0.0,0.0,0.0,0.0,0.0,0.0,0.0,0.0,0.0,0.0,0.0,0.0,0.0,0.0,0.0,0.0,0.0,0.0,0.0,0.0,0.0,0.0,0.0,0.0,0.0,0.0,0.0,0.0,0.0,0.0,0.0,0.0,0.0,0.0,0.0,0.0,0.0,0.0,0.0,0.0,0.0,0.0,0.0,0.0,0.0,0.0,0.0,0.0,0.0,0.0,0.0,0.0,0.0,0.0,0.0,0.0,0.0,0.0,0.0,0.0,0.0,0.0,0.0,0.0,0.0,0.0,0.0,0.0,0.0,0.0,0.0,0.0,0.0,0.0,0.0,0.0,0.0,0.0,0.0,0.0,0.0,0.0,0.0,0.0,0.0,0.0,0.0,0.0,0.0,0.0,0.0,0.0,0.0,0.0,0.0,0.0,0.0,0.0,0.0,0.0,0.0,0.0,0.0,0.0,0.0,0.0,0.0,0.0,0.0,0.0,0.0,0.0,0.0,0.0,0.0,0.0,0.0,0.0,0.0,0.0,0.0,0.0,0.0,0.0,0.0,0.0,0.0,0.0,0.0,0.0,0.0,0.0,0.0,0.0,0.0,0.0,0.0,0.0,0.0,0.0,0.0,0.0,0.0,0.0,0.0,0.0,0.0,0.0,0.0,0.0,0.0,0.0,0.0,0.0,0.0,0.0,0.0,0.0,0.0,0.0,0.0,0.0,0.0,0.0,0.0,0.0,0.0,0.0,0.0,0.0,0.0,0.0,0.0,0.0,0.0,0.0,0.0,0.0,0.0,0.0,0.0,0.0,0.0,0.0,0.0,0.0,0.0,0.0,0.0,0.0,0.0,0.0,0.0,0.0,0.0,0.0,0.0,0.0,0.0,0.0,0.0,0.0,0.0,0.0,0.0,0.0,0.0,0.0,0.0,0.0,0.0,0.0,0.0,0.0,0.0,0.0,0.0,0.0,0.0,0.0,0.0,0.0,0.0,0.0,0.0,0.0,0.0,0.0,0.0,0.0,0.0,0.0,0.0,0.0,0.0,0.0,0.0,0.0,0.0,0.0,0.0,0.0,0.0,0.0,0.0,0.0,0.0,0.0,0.0,0.0,0.0,0.0,0.0,0.0,0.0,0.0,0.0,0.0,0.0,0.0,0.0,0.0,0.0,0.0,0.0,0.0,0.0,0.0,0.0,0.0,0.0,0.0,0.0,0.0,0.0,0.0,0.0,0.0,0.0,0.0,0.0,0.0,0.0,0.0,0.0,0.0,0.0,0.0,0.0,0.0,0.0,0.0,0.0,0.0,0.0,0.0,0.0,0.0,0.0,0.0,0.0,0.0,0.0,0.0,0.0,0.0,0.0,0.0,0.0,0.0,0.0,0.0,0.0,0.0,0.0,0.0,0.0,0.0,0.0,0.0,0.0,0.0,0.0,0.0,0.0,0.0,0.0,0.0,0.0,0.0,0.0,0.0,0.0,0.0,0.0,0.0,0.0,0.0,0.0,0.0,0.0,0.0,0.0,0.0,0.0,0.0,0.0,0.0,0.0,0.0,0.0,0.0,0.0,0.0,0.0,0.0,0.0,0.0,0.0,0.0,0.0,0.0,0.0,0.0,0.0,0.0,0.0,0.0,0.0,0.0,0.0,0.0,0.0,0.0,0.0,0.0,0.0,0.0,0.0,0.0,0.0,0.0,0.0,0.0,0.0,0.0,0.0,0.0,0.0,0.0,0.0,0.0,0.0,0.0,0.0,0.0,0.0,0.0,0.0,0.0,0.0,0.0,0.0,0.0,0.0,0.0,0.0,0.0,0.0,0.0,0.0,0.0,0.0,0.0,0.0,0.0,0.0,0.0,0.0,0.0,0.0,0.0,0.0,0.0,0.0,0.0,0.0,0.0,0.0,0.0,0.0,0.0,0.0,0.0,0.0,0.0,0.0,0.0,0.0,0.0,0.0,0.0,0.0,0.0,0.0,0.0,0.0,0.0,0.0,0.0,0.0,0.0,0.0,0.0,0.0,0.0,0.0,0.0,0.0,0.0,0.0,0.0,0.0,0.0,0.0,0.0,0.0,0.0,0.0,0.0,0.0,0.0,0.0,0.0,0.0,0.0,0.0,0.0,0.0,0.0,0.0,0.0,0.0,0.0,0.0,0.0,0.0,0.0,0.0,0.0,0.0,0.0,0.0,0.0,0.0,0.0,0.0,0.0,0.0,0.0,0.0,0.0,0.0,0.0,0.0,0.0,0.0,0.0,0.0,0.0,0.0,0.0,0.0,0.0,0.0,0.0,0.0,0.0,0.0,0.0,0.0,0.0,0.0,0.0,0.0,0.0,0.0,0.0,0.0,0.0,0.0,0.0,0.0,0.0,0.0,0.0,0.0,0.0,0.0,0.0,0.0,0.0,0.0,0.0,0.0,0.0,0.0,0.0,0.0,0.0,0.0,0.0,0.0,0.0,0.0,0.0,0.0,0.0,0.0,0.0,0.0,0.0,0.0,0.0,0.0,0.0,0.0,0.0,0.0,0.0,0.0,0.0,0.0,0.0,0.0,0.0,0.0,0.0,0.0,0.0,0.0,0.0,0.0,0.0,0.0,0.0,0.0,0.0,0.0,0.0,0.0,0.0,0.0,0.0,0.0,0.0,0.0,0.0,0.0,0.0,0.0,0.0,0.0,0.0,0.0,0.0,0.0,0.0,0.0,0.0,0.0,0.0,0.0,0.0,0.0,0.0,0.0,0.0,0.0,0.0,0.0,0.0,0.0,0.0,0.0,0.0,0.0,0.0,0.0,0.0,0.0,0.0,0.0,0.0,0.0,0.0,0.0,0.0,0.0,0.0,0.0,0.0,0.0,0.0,0.0,0.0,0.0,0.0,0.0,0.0,0.0,0.0,0.0,0.0,0.0,0.0,0.0,0.0,0.0,0.0,0.0,0.0,0.0,0.0,0.0,0.0,0.0,0.0,0.0,0.0,0.0,0.0,0.0,0.0,0.0,0.0,0.0,0.0,0.0,0.0,0.0,0.0,0.0,0.0,0.0,0.0,0.0,0.0,0.0,0.0,0.0,0.0,0.0,0.0,0.0,0.0,0.0,0.0,-7.5104,0.0,0.0,0.0,0.0,0.0,0.0,0.0,0.0,0.0,0.0,0.0,0.0,0.0,0.0,0.0,0.0,0.0,0.0,0.0,0.0,0.0,0.0,0.0,0.0,0.0,0.0,0.0,0.0,0.0,0.0,0.0,0.0,0.0,0.0,0.0,0.0,0.0,0.0,0.0,-6.7184,-6.6102,-6.4749,-6.7025,-6.8897,-7.0229,0.0,0.0,0.0,0.0,0.0,0.0,0.0,0.0,0.0,0.0,0.0,0.0,0.0,0.0,0.0,0.0,0.0,0.0,0.0,0.0,0.0,0.0,0.0,0.0,0.0,0.0,0.0,0.0,0.0,0.0,0.0,0.0,0.0,0.0,0.0,0.0,0.0,0.0,0.0,0.0,0.0,0.0,0.0,0.0,0.0,0.0,0.0,0.0,0.0,0.0,0.0,0.0,0.0,0.0,0.0,0.0,0.0,0.0,0.0,0.0,0.0,0.0,0.0,0.0,0.0,0.0,0.0,0.0,0.0,0.0,0.0,-7.3964,0.0,0.0,0.0,0.0,0.0,0.0,0.0,0.0,0.0,0.0,0.0,0.0,0.0,0.0,0.0,0.0,0.0,0.0,0.0,0.0,0.0,0.0,0.0,0.0,-5.6239,-5.6847,-5.7269,-5.7674,0.0,0.0,0.0,0.0,0.0,0.0,0.0,-6.7477,-6.7861,-6.732,-6.5324,-6.3531,-6.1975,-6.265,-6.4366,-6.7078,-6.944,0.0,0.0,0.0,0.0,0.0,0.0,0.0,0.0,0.0,0.0,0.0,0.0,0.0,0.0,0.0,0.0,0.0,0.0,0.0,0.0,0.0,0.0,0.0,0.0,0.0,0.0,0.0,0.0,0.0,0.0,0.0,0.0,0.0,0.0,0.0,0.0,0.0,0.0,0.0,0.0,0.0,0.0,0.0,0.0,0.0,0.0,0.0,0.0,0.0,0.0,0.0,0.0,0.0,0.0,0.0,0.0,0.0,0.0,0.0,0.0,0.0,0.0,0.0,-7.2202,-7.2826,-7.5212,-7.3046,-7.2092,-7.2055,-7.1394,-7.0734,-7.0257,-7.2239,0.0,0.0,0.0,0.0,0.0,0.0,0.0,0.0,0.0,0.0,0.0,0.0,0.0,0.0,0.0,0.0,0.0,0.0,0.0,0.0,0.0,-5.5658,-5.6466,-5.9355,-5.9116,-5.9799,0.0,0.0,0.0,0.0,0.0,0.0,-6.7637,-6.8485,-6.7658,-6.5019,-6.0926,-5.9404,-6.0385,-6.0593,-6.1603,-6.3293,-6.4883,-6.6203,-6.734,0.0,0.0,0.0,0.0,0.0,0.0,0.0,0.0,0.0,0.0,0.0,0.0,0.0,0.0,0.0,0.0,0.0,0.0,0.0,0.0,0.0,0.0,0.0,0.0,0.0,0.0,0.0,0.0,0.0,0.0,0.0,0.0,0.0,0.0,0.0,0.0,0.0,0.0,0.0,0.0,0.0,-6.3026,-6.3169,0.0,0.0,0.0,0.0,0.0,0.0,0.0,0.0,0.0,0.0,0.0,0.0,0.0,-7.1101,-7.3193,-7.323,-7.3377,-7.367,-7.2789,-7.2202,-7.1908,-7.0881,-7.0403,-7.0403,-7.0293,0.0,-7.011,-7.044,0.0,0.0,0.0,0.0,0.0,0.0,0.0,0.0,0.0,0.0,0.0,0.0,0.0,0.0,0.0,0.0,0.0,0.0,0.0,0.0,0.0,-5.6481,-5.6572,-5.7965,-5.7713,-5.8401,-6.0416,-6.1542,0.0,0.0,0.0,-6.7645,-6.7895,-6.7421,-6.5087,-6.0825,-5.8863,-5.7577,-5.7002,-5.7878,-5.8871,-5.9943,-6.1025,-6.3088,-6.572,-6.6738,0.0,0.0,0.0,0.0,0.0,0.0,0.0,0.0,0.0,0.0,0.0,0.0,0.0,0.0,0.0,0.0,0.0,0.0,0.0,0.0,0.0,0.0,0.0,0.0,0.0,0.0,0.0,0.0,0.0,0.0,0.0,0.0,0.0,0.0,0.0,0.0,0.0,0.0,0.0,-6.5773,-6.6426,-6.6022,-6.8444,-6.9931,0.0,0.0,0.0,0.0,0.0,0.0,0.0,0.0,0.0,-7.077,-7.077,-7.1284,-7.2349,-7.2349,-7.3046,-7.4368,-7.356,-7.345,-7.3964,-7.3156,-7.2789,-7.2789,-7.2789,-7.2018,-7.0734,-7.0293,-6.9963,-6.9889,0.0,0.0,0.0,0.0,-7.186,-7.1162,0.0,0.0,0.0,0.0,0.0,0.0,0.0,0.0,0.0,0.0,0.0,0.0,-5.7572,-5.6745,-5.6273,-5.6905,-5.6681,-5.756,-5.9966,-6.1554,0.0,0.0,0.0,-6.8402,-6.8199,-6.5831,-6.2381,-5.7881,-5.7559,-5.6779,-5.5792,-5.714,-5.8194,-5.9164,-5.9741,-6.1517,-6.4203,-6.5087,-6.5617,-6.5773,0.0,0.0,0.0,0.0,0.0,0.0,0.0,0.0,0.0,0.0,0.0,0.0,0.0,0.0,0.0,0.0,0.0,0.0,0.0,0.0,0.0,0.0,0.0,0.0,0.0,0.0,0.0,0.0,0.0,0.0,0.0,0.0,0.0,0.0,0.0,0.0,0.0,-6.6948,-6.8034,-6.7518,-7.0003,-7.134,0.0,0.0,0.0,0.0,0.0,0.0,-7.1521,-7.1615,-7.1615,-7.1615,-7.1615,-7.1908,-7.2532,-7.2532,-7.356,-7.5542,-7.4918,-7.5249,-7.6387,-7.5799,-7.5395,-7.5212,-7.4992,-7.367,-7.1541,-7.0734,-6.9449,-6.8128,-6.9559,-6.9743,-6.9376,-7.0807,-7.1064,-7.0697,0.0,0.0,0.0,0.0,0.0,0.0,0.0,0.0,0.0,0.0,0.0,-5.593,-5.6673,-5.5359,-5.5377,-5.7953,-5.751,-5.9231,-6.3964,-6.4431,-6.5782,-6.8755,-6.9688,-6.9755,-6.9045,-6.4106,-6.0317,-5.7881,-5.6537,-5.6963,-5.9004,-5.9819,-6.1043,-6.2457,-6.2457,-6.2464,-6.2476,-6.115,-6.1362,-6.2744,-6.2634,0.0,0.0,0.0,0.0,0.0,0.0,0.0,0.0,0.0,0.0,0.0,0.0,0.0,0.0,0.0,0.0,0.0,0.0,0.0,0.0,0.0,0.0,0.0,0.0,0.0,0.0,0.0,0.0,0.0,0.0,0.0,0.0,0.0,0.0,0.0,0.0,0.0,0.0,-6.4108,-6.7728,0.0,0.0,0.0,0.0,-7.1301,-7.2585,-7.3098,-7.2459,-7.2459,-7.2459,-7.2459,-7.2459,-7.356,-7.5836,-7.5873,-7.6313,-7.7194,-7.7157,-7.7194,-7.7268,-7.7231,-7.679,-7.6019,-7.5249,-7.3964,-7.2386,-7.1578,-7.0293,-6.8935,-6.9779,-7.0073,-7.0146,-7.0991,-7.033,-6.9045,0.0,0.0,0.0,0.0,0.0,0.0,0.0,0.0,-5.6316,-5.6705,-5.6541,-5.6867,-5.8373,-5.6713,-5.6119,-5.7883,-5.6921,-5.7372,-6.0114,-6.211,-6.4072,-6.6136,-6.8335,-6.7793,-6.4174,-6.0825,-5.8239,-5.6537,-5.7555,-5.8706,-6.0023,-6.1361,-6.2194,-6.2647,-6.3136,-6.2997,-6.237,-6.0878,-6.0566,-6.1016,-6.0421,-6.1535,0.0,0.0,0.0,0.0,0.0,0.0,0.0,0.0,0.0,0.0,0.0,0.0,0.0,0.0,0.0,0.0,0.0,0.0,0.0,0.0,0.0,0.0,0.0,0.0,0.0,0.0,0.0,0.0,0.0,0.0,0.0,0.0,0.0,0.0,0.0,0.0,0.0,-6.8478,-7.1757,0.0,-7.2459,-7.2899,-7.3156,-7.2863,-7.2422,-7.2496,-7.323,-7.3266,-7.3744,-7.4771,-7.4808,-7.5469,-7.6864,-7.69,-7.7047,-7.7304,-7.7304,-7.7304,-7.7304,-7.7304,-7.7157,-7.6864,-7.657,-7.5836,-7.4771,-7.3964,-7.1762,-6.8935,-6.9229,-6.9009,-6.8641,-6.9449,-6.9412,-6.8972,0.0,0.0,0.0,0.0,0.0,0.0,0.0,0.0,-5.6672,-5.699,-5.6946,-5.743,-5.8663,-5.7069,-5.6263,-5.7065,-5.6258,-5.6867,-5.9607,-6.167,-6.4005,-6.6745,-6.7557,-6.5628,-6.0622,-5.9032,-5.7661,-5.6535,-5.8594,-6.0105,-6.1219,-6.2521,-6.3168,-6.3373,-6.3801,-6.3583,-6.2719,-6.1555,-6.0529,-5.9771,-5.8685,-6.008,-6.2685,0.0,0.0,0.0,0.0,0.0,0.0,0.0,0.0,0.0,0.0,0.0,0.0,0.0,0.0,0.0,0.0,0.0,0.0,0.0,0.0,0.0,0.0,0.0,0.0,0.0,0.0,0.0,0.0,0.0,0.0,0.0,0.0,0.0,0.0,0.0,-7.0698,-7.1745,-7.4139,-7.5285,-7.4184,-7.4111,-7.4001,-7.3707,-7.323,-7.3523,-7.4845,-7.4918,-7.5395,-7.6497,-7.6497,-7.679,-7.7304,-7.7304,-7.7304,-7.7304,-7.7304,-7.7304,-7.7304,-7.7304,-7.7304,-7.7304,-7.7011,-7.6607,-7.6056,-7.5249,-7.3193,-7.0513,-7.0513,-6.9853,-6.9045,-7.011,-7.0367,-7.011,0.0,0.0,0.0,0.0,0.0,0.0,0.0,-5.6256,-5.6967,-5.6858,-5.7147,-5.7355,-5.7167,-5.6345,-5.5784,-5.5784,-5.5818,-5.7983,-6.3091,-6.3497,-6.5831,-7.0906,-6.7523,-6.3463,-5.9099,-5.9032,-5.866,-5.7988,-5.9598,-6.112,-6.2681,-6.3373,-6.4062,-6.4823,-6.4721,-6.4208,-6.3463,-6.2719,-6.1149,-5.9011,-5.746,-5.8592,-6.1298,0.0,0.0,0.0,0.0,0.0,0.0,0.0,0.0,0.0,0.0,0.0,0.0,0.0,0.0,0.0,0.0,0.0,0.0,0.0,0.0,0.0,0.0,0.0,0.0,0.0,0.0,0.0,0.0,0.0,0.0,0.0,0.0,0.0,-6.8327,-7.0069,-7.1773,-7.3327,-7.4358,-7.4368,-7.2789,-7.4074,-7.4661,-7.3891,-7.5285,-7.6533,-7.7304,-7.7378,-7.7341,-7.7304,-7.7304,-7.7304,-7.7304,-7.7304,-7.7304,-7.7304,-7.7304,-7.7304,-7.7304,-7.7304,-7.7304,-7.7268,-7.6497,-7.613,-7.6093,-7.5285,-7.4478,-7.378,-7.3707,-7.2716,-7.1541,-7.3083,-7.3156,-7.2275,0.0,0.0,0.0,0.0,0.0,0.0,0.0,-5.5897,-5.6485,-5.6796,-5.6738,-5.7002,-5.779,-5.7549,-5.7306,-5.7306,-5.778,-5.893,-6.0926,-6.3091,-6.5189,-6.7151,-6.3632,-6.0825,-5.9066,-5.9032,-5.923,-5.9667,-6.1154,-6.2753,-6.4315,-6.5021,-6.5477,-6.5619,-6.6109,-6.5299,-6.3497,-6.3294,-6.2232,-6.0523,-5.8468,-5.8423,-5.9674,0.0,0.0,0.0,0.0,0.0,0.0,0.0,0.0,0.0,0.0,0.0,0.0,0.0,0.0,0.0,0.0,0.0,0.0,0.0,0.0,0.0,0.0,0.0,0.0,0.0,0.0,0.0,0.0,0.0,0.0,0.0,0.0,-6.9908,-7.0339,-7.1874,-7.3373,-7.4434,-7.5788,-7.6497,-7.6019,-7.6387,-7.6827,-7.7231,-7.7671,-7.8002,-7.8222,-7.8259,-7.7965,-7.7341,-7.7304,-7.7304,-7.7304,-7.7304,-7.7304,-7.7304,-7.7304,-7.7304,-7.7304,-7.7304,-7.7304,-7.7304,-7.7084,-7.6974,-7.6937,-7.6093,-7.5652,-7.5322,-7.4147,-7.3083,-7.2239,-7.2679,-7.2679,-7.2275,0.0,0.0,0.0,0.0,0.0,0.0,0.0,-5.5957,-5.6476,-5.6248,-5.6879,-5.7335,-5.7541,-5.7816,-5.7881,-5.7881,-5.9167,-6.0554,-6.1907,-6.4478,-6.5053,-6.299,-6.1434,-5.9945,-5.8558,-5.9471,-6.0245,-6.069,-6.2581,-6.3732,-6.4315,-6.5391,-6.5855,-6.5833,-6.6587,-6.5995,-6.441,-6.441,-6.3565,-6.211,-6.0791,-6.0317,-6.0385,-6.008,-6.1535,-6.37,-6.3091,-6.3328,-6.3916,-6.3212,0.0,0.0,0.0,0.0,0.0,0.0,0.0,0.0,0.0,0.0,0.0,0.0,0.0,0.0,0.0,0.0,0.0,0.0,0.0,0.0,0.0,0.0,0.0,0.0,-7.1231,-7.2155,-7.3525,-7.3995,-7.4771,-7.6276,-7.6974,-7.7598,-7.8295,-7.8038,-7.8185,-7.9029,-7.8772,-7.8589,-7.8589,-7.8259,-7.8002,-7.7855,-7.7524,-7.7488,-7.7855,-7.7488,-7.7304,-7.7304,-7.7304,-7.7304,-7.7304,-7.7304,-7.7304,-7.7304,-7.7304,-7.7304,-7.7268,-7.6827,-7.6423,0.0,0.0,0.0,0.0,0.0,-7.2569,-7.1835,0.0,0.0,0.0,0.0,0.0,0.0,0.0,-5.6299,-5.6785,-5.5637,-5.7349,-5.815,-5.7055,-5.7577,-5.7983,-5.7881,-6.0047,-6.2347,-6.4478,-6.6203,-6.4783,-5.9505,-6.0486,-6.0216,-5.8186,-6.0385,-6.1569,-6.1569,-6.3599,-6.4309,-6.3802,-6.5087,-6.573,-6.5831,-6.6508,-6.6406,-6.5696,-6.5696,-6.4952,-6.3768,-6.3768,-6.3226,-6.2313,-6.167,-6.3057,-6.5155,-6.3869,-6.3802,-6.4199,-6.2856,0.0,0.0,0.0,0.0,0.0,0.0,0.0,0.0,0.0,0.0,0.0,0.0,0.0,0.0,0.0,0.0,0.0,0.0,0.0,0.0,0.0,0.0,0.0,0.0,-7.3421,-7.407,-7.7144,-7.635,-7.6276,-7.8479,-7.8075,-7.8185,-7.9653,-7.914,-7.9066,-7.9874,-7.925,-7.8883,-7.8883,0.0,0.0,0.0,0.0,-7.7671,-7.8442,-7.7708,-7.7304,-7.7304,-7.7304,-7.7304,-7.7304,-7.7304,-7.7304,-7.7304,-7.7304,-7.7304,-7.7304,-7.7304,-7.69,-7.6203,-7.5946,-7.5395,-7.4661,-7.3854,-7.2606,-7.1211,0.0,0.0,0.0,0.0,0.0,0.0,0.0,-5.6755,-5.7555,-5.6416,-5.8,-5.8937,-5.7803,-5.8355,-5.8558,-5.7949,-6.052,-6.2854,-6.4478,-6.3328,-6.2076,-6.0926,-6.052,-6.0114,-5.9674,-6.1907,-6.3091,-6.3091,-6.4106,-6.4816,-6.5256,-6.5561,-6.6,-6.6609,-6.6745,-6.6406,-6.5696,-6.5696,-6.5527,-6.5256,-6.5256,-6.4106,-6.2381,-6.2245,-6.2516,-6.299,-6.2719,-6.2685,-6.2753,-6.2513,-6.3332,-6.428,-6.3067,-6.3806,0.0,0.0,0.0,0.0,0.0,0.0,0.0,0.0,0.0,0.0,0.0,0.0,0.0,0.0,0.0,0.0,0.0,0.0,0.0,-7.5963,-7.6381,-7.7045,-7.9066,-7.9029,-7.9029,-7.9507,-7.9396,-7.9433,-7.9764,-7.9653,-7.991,-8.0718,-8.0608,-8.0534,-8.0534,-7.9764,-7.9103,-7.8626,-7.7781,-7.7414,-7.7561,-7.7414,-7.7304,-7.7304,0.0,0.0,-7.7304,-7.7304,-7.7304,-7.7304,-7.7304,-7.7304,-7.7304,-7.7304,-7.7231,-7.69,-7.4918,-7.4074,-7.3817,-7.3046,-7.2129,-7.1211,0.0,0.0,0.0,0.0,0.0,0.0,0.0,-5.6779,-5.7598,-5.756,-5.9387,-6.0561,-6.0198,-6.1129,-6.167,-6.1298,-6.2618,-6.3802,-6.4546,-6.2854,-6.1501,-6.0723,-6.1061,-6.1434,-6.1806,-6.3632,-6.441,-6.4072,-6.5155,-6.5696,-6.5696,-6.6068,-6.644,-6.6812,-6.6812,-6.6609,-6.6271,-6.6643,-6.6779,-6.6846,-6.7218,-6.6745,-6.5662,-6.4884,-6.4377,-6.3971,-6.3632,-6.326,-6.29,-6.2548,-6.2986,-6.3692,-6.3776,-6.4341,-6.5416,0.0,0.0,0.0,0.0,0.0,0.0,0.0,0.0,0.0,0.0,0.0,0.0,0.0,0.0,-7.1091,0.0,0.0,-7.5116,-7.7983,-7.8849,-7.958,-8.0828,-8.1342,-8.1305,-8.0498,-8.0388,-8.0718,-8.1525,-8.1599,-8.1929,-8.2737,-8.2076,-8.1599,-8.1599,-8.0057,-7.9176,-7.9176,-7.7965,-7.7524,-7.7965,-7.7524,-7.7304,-7.7304,-7.7304,-7.7304,-7.7304,-7.7304,-7.7304,-7.7304,-7.7304,-7.7304,-7.7304,-7.7304,-7.7304,-7.7121,-7.5102,-7.4294,-7.4147,-7.2936,-7.1725,-7.066,0.0,0.0,0.0,0.0,0.0,0.0,0.0,-5.716,-5.8047,-5.8737,-6.094,-6.2474,-6.2425,-6.3463,-6.441,-6.4986,-6.4377,-6.4208,-6.4783,-6.3024,-6.1535,-6.0588,-6.1873,-6.2956,-6.37,-6.5019,-6.5392,-6.4816,-6.617,-6.6508,-6.5933,-6.6542,-6.6812,-6.6812,-6.6812,-6.688,-6.7049,-6.7658,-6.8064,-6.8402,-6.9045,-6.9417,-6.9383,-6.8166,-6.7151,-6.6237,-6.5493,-6.4681,-6.3814,-6.3261,-6.2979,-6.3134,-6.4663,-6.532,-6.5958,-6.8159,-6.9226,0.0,0.0,0.0,0.0,0.0,0.0,0.0,0.0,0.0,-7.1055,-7.0913,-7.1087,-7.2394,-7.5991,-7.627,-7.7007,-8.003,-8.1048,-8.1746,-8.2553,-8.3214,-8.3177,-8.1856,-8.1709,-8.2223,-8.3508,-8.3508,-8.3728,-8.4535,-8.3251,-8.2443,-8.2443,-8.0424,-7.9433,-7.9764,-7.8332,-7.7818,-7.8332,-7.7671,-7.7304,-7.7304,-7.7304,-7.7304,-7.7304,-7.7304,-7.7304,-7.7304,-7.7304,-7.7304,-7.7304,-7.7304,-7.7304,-7.7157,-7.5542,-7.4918,-7.4735,-7.3083,-7.1468,-7.011,0.0,0.0,0.0,0.0,0.0,0.0,0.0,0.0,-6.0293,-5.9745,-6.2418,-6.3829,-6.255,-6.255,-6.37,-6.6339,-6.3565,-6.2787,-6.5392,-6.2279,-6.0892,-6.2076,-6.2956,-6.3734,-6.4478,-6.5256,-6.5662,-6.5561,-6.6406,-6.6779,-6.6677,-6.6779,-6.6812,-6.6812,-6.6812,-6.7184,-6.7793,-6.7861,-6.8673,-6.9925,-7.0026,-7.0466,-7.1041,-7.0872,-6.9925,-6.8605,-6.7827,-6.6643,-6.5425,-6.5386,-6.5001,-6.4689,-6.5422,-6.6418,-6.7389,-6.8352,0.0,-6.7688,-6.7394,-6.6215,0.0,-6.6658,-6.7295,-6.8258,0.0,0.0,-7.2695,-7.4713,-7.5822,-7.7056,-7.9013,-7.9856,-8.0882,-8.2737,-8.3067,-8.3434,-8.4205,-8.4425,-8.4389,-8.4205,-8.4205,-8.4278,-8.4462,-8.3838,-8.3728,-8.4535,-8.3765,-8.3287,-8.3287,-8.2333,-8.1158,-7.9837,-7.8919,-7.8148,-7.7451,-7.7378,-7.7304,-7.7304,-7.7304,-7.7304,-7.7304,-7.7304,-7.7304,-7.7304,-7.7304,-7.7304,-7.7304,-7.7304,-7.7304,-7.7157,-7.5542,-7.4918,-7.4735,-7.3083,-7.1468,-7.011,0.0,0.0,0.0,0.0,0.0,0.0,0.0,0.0,0.0,-6.188,-6.4035,-6.544,-6.5579,-6.6,-6.6981,-6.8639,-6.4986,-6.3666,-6.617,-6.2854,-6.167,-6.3599,-6.4377,-6.5121,-6.5865,-6.617,-6.6542,-6.6981,-6.688,-6.7286,-6.8132,-6.7658,-6.7692,-6.8132,-6.8132,-6.8301,-6.8639,-6.9045,-6.9586,-7.0229,-7.0669,-7.1041,-7.1278,-7.0838,-6.9722,-6.8402,-6.8538,-6.7624,0.0,-6.5358,-6.5209,-6.5299,-6.5296,-6.5859,-6.6811,-6.824,-6.8016,0.0,-6.5166,0.0,0.0,0.0,-6.8057,-7.0207,-7.3002,-7.4079,-7.4942,-7.64,-7.7788,-7.9023,-8.0026,-8.1386,-8.2538,0.0,-8.4085,-8.5086,-8.5894,-8.6004,-8.582,-8.5343,-8.571,-8.582,-8.5343,-8.5416,-8.5637,-8.5967,-8.527,-8.4609,-8.4132,-8.2443,-8.0975,-7.9837,-7.8516,-7.7671,-7.7304,-7.7304,-7.7304,-7.7304,-7.7304,-7.7304,-7.7304,-7.7304,-7.7304,-7.7304,-7.7304,-7.7304,-7.7268,-7.679,-7.6607,-7.646,-7.4845,-7.4184,-7.4001,-7.2386,-7.1101,-7.0036,0.0,0.0,0.0,0.0,0.0,0.0,0.0,0.0,0.0,0.0,-6.5303,-6.6535,-6.7505,-6.8301,-6.8977,-6.9519,-6.6406,-6.4918,-6.6136,-6.3497,-6.2618,-6.4241,-6.5189,-6.6136,-6.7083,-6.732,-6.7692,-6.8233,-6.7692,-6.803,-6.9079,-6.8504,-6.8538,-6.9113,-6.9113,-6.9214,-6.9451,-6.9958,-7.0297,-7.0534,-7.1075,-7.1176,-7.0906,-6.9925,-6.8876,-6.7963,-6.8571,-6.7658,-6.6102,-6.5425,-6.5425,-6.5725,-6.5739,-6.5952,-6.6497,-6.8041,-6.7623,-6.6214,-6.4172,0.0,0.0,-6.6998,-6.9502,-7.2107,-7.4689,-7.6056,-7.7157,-7.8405,-7.98,-8.0898,-8.1093,-8.2467,-8.3514,-8.326,-8.4573,-8.5983,-8.6852,-8.6811,-8.6371,-8.5563,-8.5783,-8.5783,-8.5196,-8.6077,-8.6775,-8.6995,-8.604,-8.5196,-8.4646,-8.2737,-8.1085,-7.9837,-7.8626,-7.7781,-7.7304,-7.7304,-7.7304,-7.7304,-7.7304,-7.7304,-7.7304,-7.7304,-7.7304,-7.7304,-7.7304,-7.7304,-7.7268,-7.668,-7.6313,-7.5946,-7.4551,-7.3891,-7.3487,-7.1908,-7.0807,-7.0,0.0,0.0,0.0,0.0,0.0,0.0,0.0,0.0,0.0,0.0,0.0,0.0,0.0,-6.7489,-6.7963,-6.7963,-6.7184,-6.6136,-6.4749,-6.3903,-6.3463,-6.3531,-6.4918,-6.6373,-6.7827,-6.8639,-6.9045,-6.9079,-6.9045,-6.9045,-6.9113,-6.9079,-6.9079,-6.9113,-6.9113,-6.9485,-7.0161,-7.0161,-7.0601,-7.1278,-7.1312,-7.0872,-7.006,-6.8538,-6.7929,-6.7895,-6.7929,-6.6542,-6.4884,-6.6271,-6.6271,-6.5933,-6.7404,-6.742,0.0,-6.8093,-6.6705,0.0,0.0,0.0,-6.6759,-6.9309,-7.1138,-7.3061,-7.5506,-7.7341,-7.9213,-8.1562,-8.27,-8.3239,-8.2901,-8.351,-8.4051,-8.4087,-8.4737,-8.5695,-8.6856,-8.6334,-8.5527,-8.4719,-8.3985,-8.3508,0.0,-8.4903,-8.6151,-8.6958,-8.5527,-8.4646,-8.4609,-8.3801,-8.226,-7.9874,-7.9727,-7.8956,-7.7341,-7.7304,-7.7304,-7.7304,-7.7304,-7.7304,-7.7304,-7.7304,-7.7304,-7.7304,-7.7304,-7.7304,-7.7304,-7.7304,-7.6827,-7.6019,-7.5212,-7.4404,-7.3487,-7.1908,-7.0807,-7.011,0.0,0.0,0.0,0.0,0.0,0.0,0.0,0.0,0.0,0.0,0.0,0.0,0.0,0.0,0.0,0.0,0.0,-6.5764,-6.6711,-6.4715,-6.3937,-6.4918,-6.5425,-6.6136,-6.7151,-6.7929,-6.8808,-6.9823,-6.935,-6.962,-7.0567,-7.006,-7.0094,-7.0567,-7.0567,-7.0703,-7.0939,-7.0939,-7.1379,-7.1887,-7.0432,-7.0297,-7.0703,-6.8673,-6.759,-6.7252,0.0,-6.7117,-6.6,-6.5493,-6.5493,0.0,-6.4546,0.0,0.0,-6.5176,0.0,0.0,0.0,0.0,-6.9885,-7.1344,-7.331,-7.5689,-7.8662,-8.0204,-8.1293,-8.2393,-8.2939,-8.2644,-8.0999,-8.2183,-8.3322,-8.312,-8.4962,-8.6754,-8.7659,-8.7545,-8.6481,-8.4095,-8.4058,0.0,0.0,0.0,0.0,-8.6114,-8.571,-8.5159,-8.4646,-8.3838,-8.2296,-7.9874,-7.9286,-7.8479,-7.7341,-7.7304,-7.7304,-7.7304,-7.7304,-7.7304,-7.7304,-7.7304,-7.7304,-7.7304,-7.7304,-7.7304,-7.7268,-7.6717,-7.6056,-7.5212,-7.4404,-7.3597,-7.2826,-7.2312,-7.1615,-7.0734,0.0,0.0,0.0,0.0,0.0,0.0,0.0,0.0,0.0,0.0,0.0,0.0,0.0,0.0,0.0,0.0,0.0,0.0,-6.7049,-6.5831,-6.5493,-6.644,-6.6981,-6.776,-6.8774,-6.9519,-7.0263,-7.0973,-6.9958,-6.9992,-7.0872,-6.9857,-6.9925,-7.0906,-7.0906,-7.1075,-7.1312,-7.1041,-7.1481,-7.2225,-7.0263,-7.006,-7.0669,-6.8368,-6.7387,0.0,-6.7117,-6.7151,-6.7015,-6.5797,-6.5696,0.0,0.0,0.0,0.0,0.0,0.0,0.0,0.0,-6.9322,-7.2427,-7.3859,-7.5836,-7.8112,-8.0828,-8.1959,-8.2461,-8.2539,-8.249,-8.1711,-7.9251,-8.0058,-8.1311,-8.1626,-8.3398,-8.5258,-8.7072,-8.6848,-8.571,-8.3654,-8.3618,0.0,0.0,0.0,0.0,-8.4829,-8.4939,-8.4719,-8.4205,-8.3691,-8.2296,-7.9874,-7.9286,-7.8479,-7.7341,-7.7304,-7.7304,-7.7304,-7.7304,-7.7304,-7.7304,-7.7304,-7.7304,-7.7304,-7.7304,-7.7304,-7.7268,-7.6754,-7.5909,-7.4845,-7.4331,-7.345,-7.2496,-7.2496,-7.1982,-7.1138,0.0,0.0,0.0,0.0,0.0,0.0,0.0,0.0,0.0,0.0,0.0,0.0,0.0,0.0,0.0,0.0,0.0,0.0,-6.5899,-6.7117,-6.7895,-6.7895,-6.935,-7.0804,-7.2191,-7.2969,-7.3037,-7.2326,-7.0939,-7.0263,-7.0195,-6.8741,-6.8842,-7.0263,-7.0263,-7.0635,-7.1278,-7.0534,-7.1075,-7.2259,-7.0703,-7.0128,-6.9925,-6.7692,-6.7286,-6.7793,-6.6373,-6.6779,-6.7895,0.0,0.0,0.0,0.0,0.0,0.0,0.0,0.0,-6.6869,-6.9389,-7.1928,-7.445,-7.6825,-7.8662,-8.0241,-8.1754,-8.2463,-8.2608,-8.1922,-8.137,-8.0281,0.0,0.0,-7.816,-7.9797,-8.0417,-8.1853,-8.5353,-8.4572,-8.3618,0.0,0.0,0.0,0.0,0.0,0.0,-8.3251,0.0,-8.3398,-8.3471,-8.3434,-8.2333,-7.9984,-7.9837,-7.9029,-7.7414,-7.7341,-7.7304,-7.7304,-7.7304,-7.7304,-7.7304,-7.7304,-7.7304,-7.7304,-7.7304,-7.7304,-7.7304,-7.7304,-7.635,-7.4918,-7.4918,-7.3927,-7.2496,-7.2496,-7.1982,-7.1211,0.0,0.0,0.0,0.0,0.0,0.0,0.0,0.0,0.0,0.0,0.0,0.0,0.0,0.0,0.0,0.0,0.0,0.0,-6.7354,-6.7692,-6.7895,-6.7895,-6.8842,-6.9553,-6.9925,-7.121,-7.1785,-7.1582,-7.121,-7.1041,-7.1007,-7.0635,-7.0635,-7.1041,-7.1041,-7.1142,-7.1312,-7.1109,-7.1548,-7.2157,-6.9553,-6.9147,-6.9925,-6.7692,-6.7624,-6.8741,-6.8368,-6.8842,0.0,0.0,0.0,0.0,0.0,0.0,-6.4097,0.0,0.0,-7.0274,-7.2824,-7.5357,-7.7605,-7.882,-7.9947,-8.0744,-8.0942,-8.1165,-8.09,-7.9669,-7.8007,-7.6173,0.0,0.0,0.0,-7.8133,-8.0749,0.0,-8.6269,-8.6848,0.0,-8.4499,0.0,-8.3104,-8.0901,-8.0901,0.0,0.0,-8.2517,-8.303,-8.4242,-8.3728,-8.2847,-8.1636,-8.0424,-7.9286,-7.8295,-7.7635,-7.7304,-7.7304,-7.7304,-7.7304,-7.7304,-7.7304,-7.7304,-7.7304,-7.7304,-7.7304,-7.7304,-7.7304,-7.635,-7.4918,-7.4918,-7.3927,-7.2496,-7.2496,-7.1982,-7.1211,0.0,0.0,0.0,0.0,0.0,0.0,0.0,0.0,0.0,0.0,0.0,0.0,0.0,0.0,0.0,0.0,0.0,0.0,0.0,-6.8436,-6.8876,-6.9823,-7.0297,-7.0703,-7.1007,-7.1853,-7.2259,-7.2259,-7.1278,-7.0973,-7.1312,-7.0297,-7.0161,-7.0804,-7.0804,-7.1007,-7.1312,-7.0973,-7.1413,0.0,0.0,-6.962,-7.05,-6.891,-6.8842,-6.9586,-6.9586,0.0,0.0,0.0,0.0,-6.5053,-6.4986,-6.5189,-6.5875,-6.8137,0.0,-7.262,-7.5541,-7.7976,-7.9947,-8.1085,-8.1452,-8.1293,-8.0368,-7.9827,-7.8568,-7.5729,-7.4309,0.0,0.0,0.0,0.0,0.0,0.0,0.0,-8.6009,-8.6554,-8.6261,0.0,-8.5123,0.0,-8.226,-8.237,-8.248,0.0,-8.2517,-8.3141,-8.4022,-8.3985,-8.3251,-8.1709,-8.0424,-7.9213,-7.8038,-7.7561,-7.7304,-7.7304,-7.7304,-7.7304,-7.7304,-7.7304,-7.7304,-7.7304,0.0,-7.7304,-7.7304,-7.6937,-7.6056,-7.4882,-7.4515,-7.3597,-7.2496,-7.2496,-7.1982,-7.1248,0.0,0.0,0.0,0.0,0.0,0.0,0.0,0.0,0.0,0.0,0.0,0.0,0.0,0.0,0.0,0.0,0.0,0.0,0.0,0.0,0.0,-7.1887,-7.2225,-7.2665,-7.3172,-7.3274,-7.3308,-7.3206,-7.1278,-7.0669,-7.1278,-6.9282,-6.9045,-7.0331,-7.0331,-7.0703,-7.1278,-7.0635,-7.1075,-7.2124,-7.0737,-7.0567,-7.1075,0.0,-7.0094,0.0,0.0,0.0,0.0,0.0,-6.6677,-6.6102,-6.688,-6.7692,-6.8761,-7.0995,-7.2718,-7.4612,-7.8024,-8.012,-8.1672,-8.3177,-8.2884,-8.1732,-7.979,-7.823,-7.5952,-7.1479,0.0,-6.9755,-6.7151,0.0,-7.2282,-7.5064,0.0,-8.0861,-8.5233,-8.5196,-8.5049,-8.5857,-8.5967,-8.538,-8.3875,-8.4352,-8.4132,-8.2627,-8.3177,-8.3508,-8.3434,-8.3985,-8.3214,-8.0901,-8.0277,-7.9103,-7.7341,-7.7414,-7.7414,-7.7304,-7.7304,-7.7304,-7.7304,-7.7304,-7.7304,-7.7304,-7.7304,-7.7304,-7.7268,-7.657,-7.5726,-7.4845,-7.4147,-7.3303,-7.2496,-7.2496,-7.1982,-7.1321,0.0,0.0,0.0,0.0,0.0,0.0,0.0,0.0,0.0,0.0,-6.5967,-6.6812,0.0,0.0,0.0,0.0,0.0,0.0,0.0,0.0,0.0,0.0,-7.1413,-7.2191,0.0,0.0,0.0,0.0,0.0,-7.1176,-7.1312,-7.0906,-7.0872,-7.1109,-7.1109,-7.1176,-7.1312,-7.1176,-7.1278,-7.1447,-7.0534,-7.0263,-7.0297,-6.9553,0.0,0.0,0.0,0.0,0.0,0.0,-6.8673,-6.7658,-6.847,-6.9654,-7.1484,-7.5393,-7.6781,-7.782,-8.1478,-8.2715,-8.3214,-8.4168,-8.3287,-8.1495,-7.8842,-7.6027,0.0,0.0,0.0,-6.6508,-6.5967,-6.6874,0.0,-7.4027,0.0,0.0,0.0,0.0,-8.5894,0.0,0.0,0.0,0.0,0.0,0.0,0.0,0.0,-8.4095,-8.3471,-8.292,-8.1819,-8.0057,-8.0534,-7.969,-7.7341,-7.8002,-7.8002,-7.7304,-7.7304,-7.7304,-7.7304,-7.7304,-7.7304,-7.7304,-7.7304,0.0,-7.7304,-7.7157,-7.624,-7.4918,-7.4771,-7.378,-7.2496,-7.2496,-7.1982,-7.1321,0.0,0.0,0.0,0.0,0.0,0.0,0.0,-6.3903,-6.4749,-6.5121,-6.6136,-6.6812,-6.6812,-6.6812,0.0,0.0,0.0,0.0,0.0,0.0,0.0,0.0,0.0,0.0,0.0,0.0,0.0,0.0,0.0,0.0,0.0,0.0,0.0,0.0,0.0,0.0,-7.1887,-7.1887,-7.1887,-7.1853,-7.1481,-7.1109,0.0,0.0,0.0,0.0,0.0,0.0,0.0,0.0,-7.0297,-6.9755,-7.0128,-7.1278,-7.3028,-7.6049,-7.725,-7.8482,-8.2685,-8.3736,-8.4207,-8.6013,-8.3902,-8.0654,-7.7504,0.0,0.0,0.0,-6.5628,-6.4884,-6.4106,0.0,0.0,0.0,0.0,0.0,0.0,0.0,0.0,0.0,0.0,0.0,0.0,0.0,0.0,0.0,0.0,-8.3838,-8.3434,-8.2627,-8.1452,-7.9837,-8.0167,-7.9396,-7.7341,-7.7708,-7.7708,-7.7304,-7.7304,-7.7304,-7.7304,-7.7304,-7.7304,-7.7304,-7.7304,0.0,-7.7268,-7.6423,-7.5616,-7.4845,-7.4001,-7.3193,-7.2496,-7.2496,-7.2275,-7.1945,0.0,0.0,0.0,0.0,0.0,0.0,0.0,-6.414,-6.485,-6.5595,-6.6339,-6.6812,-6.6812,-6.6812,-6.6812,0.0,0.0,0.0,0.0,0.0,0.0,0.0,0.0,0.0,0.0,0.0,0.0,0.0,0.0,0.0,0.0,0.0,0.0,0.0,0.0,0.0,0.0,0.0,-7.2631,0.0,0.0,0.0,0.0,0.0,0.0,0.0,0.0,0.0,0.0,0.0,-7.1413,-7.1548,-7.1548,-7.2665,-7.433,-7.6208,-7.7336,-7.8851,-8.2771,-8.4032,-8.4727,-8.6719,-8.3736,-7.9533,-7.6376,-7.231,0.0,0.0,-6.4072,-6.4005,-6.2854,0.0,0.0,0.0,0.0,0.0,0.0,0.0,0.0,0.0,0.0,0.0,0.0,0.0,0.0,0.0,0.0,0.0,-8.292,-8.2296,-8.1195,-7.958,-7.969,-7.8993,-7.7341,-7.7524,-7.7488,-7.7304,-7.7304,-7.7304,-7.7304,-7.7304,-7.7304,-7.7304,-7.7304,0.0,0.0,-7.5946,-7.5212,-7.4771,-7.3523,-7.2789,-7.2496,-7.2496,-7.2496,-7.2496,0.0,0.0,0.0,0.0,0.0,0.0,0.0,-6.414,-6.485,-6.5595,-6.6339,-6.6812,-6.6812,-6.6812,-6.6812,0.0,0.0,0.0,0.0,0.0,0.0,0.0,0.0,0.0,0.0,0.0,0.0,0.0,0.0,0.0,0.0,0.0,0.0,0.0,0.0,0.0,0.0,0.0,0.0,0.0,0.0,0.0,0.0,0.0,0.0,0.0,0.0,0.0,0.0,0.0,0.0,-7.2293,-7.2293,-7.3781,-7.5892,-7.7831,0.0,0.0,-8.2298,-8.3648,-8.4571,-8.4123,-8.1566,-7.8478,-7.5882,0.0,0.0,-6.5026,-6.4038,-6.3565,-6.3429,-6.3645,-6.5141,0.0,0.0,-7.29,0.0,0.0,0.0,0.0,0.0,0.0,0.0,0.0,0.0,0.0,0.0,0.0,-8.1269,-8.1158,-8.0388,-7.8772,-7.9396,-7.8993,-7.7341,-7.8112,-7.8075,-7.7304,-7.7304,-7.7304,-7.7304,-7.7304,-7.7304,-7.7304,-7.7304,0.0,0.0,-7.7157,-7.624,-7.4918,-7.4735,-7.378,-7.2496,-7.2496,-7.2496,-7.2496,0.0,0.0,0.0,0.0,0.0,0.0,-6.3396,-6.414,-6.485,-6.5595,-6.6339,-6.6812,-6.6812,-6.6812,-6.6812,-6.6812,0.0,0.0,0.0,0.0,0.0,0.0,0.0,0.0,0.0,0.0,0.0,0.0,0.0,0.0,0.0,0.0,0.0,0.0,0.0,0.0,0.0,0.0,0.0,0.0,0.0,0.0,0.0,0.0,0.0,0.0,0.0,0.0,0.0,0.0,0.0,0.0,-7.1751,-7.2665,0.0,0.0,-7.6871,-7.8862,-8.0941,-8.2537,-8.3941,-8.4792,-8.1802,-7.7977,-7.5164,0.0,0.0,-6.4491,-6.4072,-6.3903,-6.299,-6.3193,-6.4199,-6.6245,0.0,0.0,0.0,0.0,0.0,0.0,0.0,0.0,0.0,0.0,0.0,0.0,0.0,0.0,-7.9617,-8.0461,-8.0277,-7.8662,-7.8919,-7.8516,-7.7341,-7.7671,-7.7671,-7.7304,-7.7304,-7.7304,-7.7304,-7.7304,-7.7304,-7.7304,-7.7304,0.0,0.0,-7.679,-7.5909,-7.4845,-7.4368,-7.3487,-7.2496,-7.2496,-7.2496,-7.2496,0.0,0.0,0.0,0.0,0.0,-6.2651,-6.3396,-6.414,-6.485,-6.5595,-6.6339,-6.6812,-6.6812,-6.6812,-6.6812,-6.6812,-6.6812,0.0,0.0,0.0,0.0,0.0,0.0,0.0,0.0,0.0,-7.0737,-7.0195,-7.0737,0.0,0.0,0.0,0.0,0.0,0.0,0.0,0.0,0.0,0.0,0.0,0.0,0.0,0.0,0.0,0.0,0.0,0.0,0.0,0.0,0.0,0.0,0.0,0.0,0.0,0.0,0.0,-7.4931,-7.7019,-7.9368,-8.113,-8.2431,-8.3612,-8.081,-7.6961,0.0,0.0,0.0,-6.4343,-6.4072,-6.3971,-6.2922,-6.2956,-6.3497,-6.4444,0.0,-6.5573,0.0,0.0,0.0,0.0,0.0,0.0,0.0,0.0,0.0,0.0,0.0,0.0,-7.8662,-7.9653,-7.9653,-7.8259,-7.8222,-7.7928,-7.7341,-7.7304,-7.7304,-7.7304,-7.7304,-7.7304,-7.7304,-7.7304,-7.7304,-7.7304,-7.7304,0.0,0.0,-7.6717,-7.5836,-7.4845,-7.4294,-7.3413,-7.2496,-7.2496,-7.2496,-7.2496,0.0,0.0,0.0,0.0,0.0,0.0,-6.3396,-6.414,-6.485,-6.5595,-6.6339,-6.6812,-6.6812,-6.6812,-6.6812,-6.6812,-6.6812,0.0,0.0,0.0,0.0,0.0,0.0,0.0,0.0,0.0,-7.0195,-7.0195,-7.0195,-7.0567,-7.1345,0.0,0.0,0.0,0.0,0.0,0.0,0.0,0.0,0.0,0.0,0.0,0.0,0.0,0.0,0.0,0.0,0.0,0.0,0.0,0.0,0.0,0.0,-7.0804,0.0,0.0,-7.4525,-7.6048,-7.757,-7.9092,-8.004,-7.9329,-7.7401,-7.4931,0.0,0.0,0.0,-6.4918,-6.4005,-6.3531,-6.3497,-6.2888,-6.2888,-6.4377,-6.5189,0.0,0.0,0.0,0.0,0.0,0.0,0.0,0.0,0.0,0.0,0.0,0.0,0.0,-7.8626,-7.8626,-7.8222,-7.7378,-7.7341,-7.7341,-7.7304,-7.7304,-7.7304,-7.7304,-7.7304,-7.7304,-7.7304,-7.7304,-7.7304,0.0,0.0,0.0,0.0,-7.7304,-7.635,-7.4918,-7.4918,-7.3927,-7.2496,-7.2496,-7.2496,-7.2496,0.0,0.0,0.0,0.0,0.0,0.0,0.0,-6.3362,-6.3937,-6.4174,-6.529,-6.6034,-6.6034,-6.6508,-6.6812,-6.6812,-6.6812,0.0,0.0,0.0,0.0,0.0,0.0,0.0,0.0,-6.918,-6.9451,-6.9451,-6.9958,-7.0567,-7.1312,-7.1548,-7.2326,0.0,0.0,0.0,0.0,0.0,0.0,0.0,0.0,0.0,0.0,0.0,0.0,0.0,0.0,0.0,0.0,0.0,0.0,0.0,0.0,0.0,0.0,-7.0872,0.0,0.0,-7.4762,-7.6386,-7.7638,-7.6352,-7.51,-7.3409,-7.0466,0.0,0.0,-6.4478,-6.4478,-6.4546,-6.3024,-6.255,-6.3193,-6.5696,-6.5865,0.0,0.0,0.0,0.0,0.0,0.0,0.0,0.0,0.0,0.0,0.0,0.0,0.0,-7.7781,-7.7708,-7.7598,-7.7341,-7.7304,-7.7304,-7.7304,-7.7304,-7.7304,-7.7304,-7.7304,-7.7304,-7.7304,-7.7304,-7.7304,0.0,0.0,0.0,0.0,-7.6717,-7.5873,-7.4845,-7.4294,-7.3413,-7.2496,-7.2496,-7.2496,-7.2496,0.0,0.0,0.0,0.0,0.0,0.0,0.0,-6.3024,-6.3531,-6.3531,-6.4546,-6.5392,-6.5662,-6.6102,-6.6508,-6.6779,-6.6812,0.0,0.0,0.0,0.0,0.0,0.0,0.0,-6.7929,-6.8402,-6.8808,-6.9113,-6.9823,-7.0567,-7.1312,-7.1582,-7.236,-7.3477,-7.3477,0.0,0.0,0.0,0.0,0.0,0.0,0.0,-7.4627,0.0,0.0,0.0,0.0,0.0,0.0,0.0,0.0,0.0,0.0,0.0,0.0,0.0,-7.0297,0.0,0.0,-7.4728,-7.5811,-7.4864,-7.3849,0.0,0.0,0.0,0.0,0.0,0.0,-6.4106,-6.3024,-6.2584,-6.3091,-6.5222,-6.5392,0.0,0.0,0.0,0.0,0.0,0.0,0.0,0.0,0.0,0.0,0.0,0.0,0.0,-7.7341,-7.7304,-7.7304,-7.7304,-7.7304,-7.7304,-7.7304,-7.7304,-7.7304,-7.7304,-7.7304,-7.7304,-7.7304,-7.7304,-7.7304,0.0,0.0,0.0,0.0,-7.6313,-7.5469,-7.4404,-7.3891,-7.3193,-7.2496,-7.2496,-7.2496,-7.2496,0.0,0.0,0.0,0.0,0.0,0.0,0.0,-6.299,-6.3429,-6.3429,-6.4072,-6.4783,-6.5527,-6.5662,-6.6,-6.6745,0.0,0.0,0.0,0.0,0.0,0.0,0.0,0.0,-6.7827,-6.7827,-6.8233,-6.9113,-6.9789,-7.0534,-7.1312,-7.1988,-7.2732,-7.3477,-7.3443,-7.3443,0.0,0.0,0.0,0.0,0.0,-7.3815,0.0,0.0,0.0,0.0,0.0,0.0,0.0,0.0,0.0,0.0,0.0,0.0,0.0,0.0,0.0,0.0,0.0,0.0,0.0,0.0,0.0,0.0,0.0,0.0,0.0,0.0,0.0,0.0,-6.3396,-6.2821,-6.255,-6.3599,-6.4241,0.0,0.0,0.0,0.0,0.0,0.0,0.0,0.0,0.0,0.0,0.0,0.0,0.0,-7.7304,-7.7304,-7.7304,-7.7304,-7.7304,-7.7304,-7.7304,-7.7304,-7.7304,-7.7304,-7.7304,-7.7304,-7.7304,-7.7304,-7.7304,0.0,0.0,0.0,0.0,-7.6056,-7.5102,-7.367,-7.3634,-7.3156,-7.2496,-7.2496,-7.2496,-7.2496,0.0,0.0,0.0,0.0,0.0,0.0,0.0,0.0,0.0,0.0,-6.3294,-6.4038,-6.4783,-6.5358,-6.6,0.0,0.0,0.0,0.0,0.0,0.0,0.0,0.0,0.0,-6.7083,-6.7083,-6.7726,-6.9113,-6.9282,-7.0026,-7.1312,-7.1481,-7.2259,-7.3477,-7.2902,-7.2969,0.0,0.0,0.0,0.0,-7.2665,-7.2766,0.0,0.0,0.0,0.0,-7.2022,-7.1109,0.0,0.0,0.0,0.0,0.0,0.0,0.0,0.0,-6.6203,0.0,-6.7286,0.0,-7.0128,-6.8944,-6.8368,-6.7793,0.0,0.0,0.0,0.0,0.0,0.0,0.0,0.0,-6.1839,0.0,0.0,0.0,0.0,0.0,0.0,0.0,0.0,0.0,0.0,0.0,0.0,0.0,0.0,0.0,-7.7304,-7.7304,-7.7304,-7.7304,-7.7304,-7.7304,-7.7304,-7.7304,-7.7304,-7.7304,-7.7304,-7.7304,-7.7304,-7.7304,-7.7304,0.0,0.0,0.0,-7.6056,-7.5432,-7.4588,-7.3634,-7.301,-7.2679,-7.2496,-7.2496,-7.2496,-7.2496,0.0,0.0,0.0,0.0,0.0,0.0,0.0,0.0,0.0,0.0,0.0,0.0,0.0,0.0,0.0,0.0,0.0,0.0,0.0,0.0,0.0,0.0,0.0,-6.6812,-6.6812,-6.7151,-6.7895,-6.9113,-6.9789,-7.0534,-7.1312,-7.165,-7.2225,-7.2969,-7.2563,-7.2631,-7.2969,-7.2631,-7.2259,-7.1887,-7.1887,0.0,0.0,0.0,0.0,0.0,-7.1582,-7.0601,0.0,-6.962,-6.8842,-6.7963,0.0,0.0,0.0,0.0,-6.5189,-6.5121,-6.4783,-6.6846,-6.8808,-6.7624,-6.732,-6.7015,-6.5933,0.0,0.0,0.0,0.0,0.0,0.0,0.0,0.0,0.0,0.0,0.0,0.0,0.0,0.0,0.0,0.0,0.0,0.0,0.0,0.0,0.0,0.0,0.0,-7.7304,-7.7304,-7.7304,-7.7304,-7.7304,-7.7304,-7.7304,-7.7304,-7.7304,-7.7304,-7.7304,-7.7304,-7.7304,-7.7304,-7.7304,0.0,0.0,0.0,-7.5542,-7.5102,-7.4001,-7.2606,-7.2532,-7.2055,-7.1505,-7.2239,-7.2275,-7.2018,0.0,0.0,0.0,0.0,0.0,0.0,0.0,0.0,0.0,0.0,0.0,0.0,0.0,0.0,0.0,0.0,0.0,0.0,0.0,0.0,0.0,0.0,-6.6812,-6.6812,-6.6812,-6.7523,-6.8301,-6.9113,-7.0601,-7.1379,-7.1481,-7.2225,-7.2496,-7.2394,-7.2529,-7.2428,-7.2191,-7.1582,-7.1312,-7.1312,-7.1312,0.0,0.0,0.0,0.0,0.0,0.0,0.0,0.0,-6.9519,-6.8808,-6.7861,-6.8538,0.0,0.0,0.0,0.0,0.0,-6.3903,-6.6237,-6.8538,-6.7624,-6.7387,-6.7049,-6.5662,0.0,0.0,0.0,0.0,0.0,0.0,0.0,0.0,0.0,0.0,0.0,0.0,0.0,0.0,0.0,0.0,0.0,0.0,0.0,0.0,0.0,0.0,-7.7304,-7.7304,-7.7304,-7.7304,-7.7304,-7.7304,-7.7304,-7.7304,-7.7304,-7.7304,-7.7304,-7.7304,-7.7304,-7.7304,-7.7304,-7.7304,-7.7304,0.0,0.0,-7.4918,-7.4771,-7.3377,-7.1394,-7.2055,-7.1468,-7.044,-7.1798,-7.1982,-7.1578,0.0,0.0,0.0,0.0,0.0,0.0,0.0,0.0,0.0,0.0,0.0,0.0,0.0,0.0,0.0,0.0,0.0,0.0,0.0,0.0,0.0,-6.6812,-6.6812,-6.6812,-6.6812,-6.7523,-6.8301,-6.9113,-7.0601,-7.1616,-7.2259,-7.2969,-7.3003,-7.2428,-7.3037,-7.2631,-7.1481,-7.1379,-7.1312,-7.1312,-7.1312,0.0,0.0,0.0,0.0,0.0,0.0,0.0,0.0,-6.7489,-6.7184,-6.7015,-6.7117,0.0,0.0,0.0,0.0,0.0,-6.4884,-6.6237,-6.6846,-6.5459,-6.5121,-6.4884,-6.4038,0.0,0.0,0.0,0.0,0.0,0.0,0.0,0.0,0.0,0.0,0.0,0.0,0.0,0.0,0.0,0.0,0.0,0.0,0.0,0.0,0.0,0.0,0.0,-7.7304,-7.7304,-7.7304,-7.7304,-7.7304,-7.7304,-7.7304,-7.7304,-7.7304,-7.7304,-7.7304,-7.7304,-7.7304,-7.7304,-7.7304,-7.7268,0.0,-7.5763,-7.4845,-7.4184,-7.2863,-7.1321,-7.1468,-7.1358,-7.1174,-7.1394,-7.1835,-7.2349,0.0,0.0,0.0,0.0,0.0,0.0,0.0,0.0,0.0,0.0,0.0,0.0,0.0,0.0,0.0,0.0,0.0,0.0,0.0,0.0,-6.6981,-6.7387,-6.7015,-6.6812,-6.6812,-6.7963,-6.891,-6.9688,-7.1176,-7.2259,-7.2969,-7.2935,-7.2732,-7.2394,-7.2326,-7.1954,-7.1312,-7.1312,-7.1312,-7.1312,0.0,0.0,0.0,0.0,0.0,0.0,0.0,0.0,0.0,0.0,-6.7387,-6.7387,-6.7387,0.0,0.0,0.0,0.0,0.0,-6.3734,-6.4478,-6.485,-6.4174,-6.4918,-6.529,-6.3362,0.0,0.0,0.0,0.0,0.0,0.0,0.0,0.0,0.0,0.0,0.0,0.0,0.0,0.0,0.0,0.0,0.0,0.0,0.0,0.0,0.0,0.0,0.0,-7.6644,-7.624,-7.6019,-7.6019,-7.6423,-7.646,-7.6019,-7.646,-7.69,-7.7304,-7.7304,-7.7304,-7.7304,-7.7304,-7.7084,-7.6644,0.0,-7.5395,-7.4221,-7.3854,-7.2496,-7.0697,-7.1138,-7.077,-7.011,-7.0991,-7.1835,-7.2496,0.0,0.0,0.0,0.0,0.0,0.0,0.0,0.0,0.0,0.0,0.0,0.0,0.0,0.0,0.0,0.0,0.0,0.0,0.0,-6.6542,-6.688,-6.7624,-6.7286,-6.7151,-6.7354,-6.8673,-6.9722,-7.0466,-7.2293,-7.3544,-7.4255,-7.3341,-7.2834,-7.2631,-7.1887,-7.1481,-7.1312,-7.1312,-7.1312,-7.1312,0.0,0.0,0.0,0.0,0.0,0.0,0.0,0.0,0.0,0.0,0.0,0.0,0.0,0.0,0.0,-6.5189,-6.4208,-6.3497,-6.3429,-6.3599,-6.3768,-6.3768,-6.4918,-6.5527,-6.3599,-6.2584,-6.2482,0.0,0.0,0.0,0.0,0.0,0.0,0.0,0.0,0.0,0.0,0.0,0.0,0.0,0.0,0.0,0.0,0.0,0.0,0.0,0.0,0.0,-7.5836,-7.5249,-7.4918,-7.4918,-7.5506,-7.5542,-7.4918,-7.5506,-7.613,-7.6754,-7.6754,-7.6754,-7.6754,-7.6754,-7.6423,-7.5799,-7.5616,-7.4735,-7.3413,-7.3413,-7.1982,-6.9926,-7.0917,-7.055,-6.9633,-7.1064,-7.2092,-7.2753,0.0,0.0,0.0,0.0,0.0,0.0,0.0,0.0,0.0,0.0,0.0,0.0,0.0,0.0,0.0,0.0,0.0,0.0,0.0,-6.5764,-6.6102,-6.6846,-6.7489,-6.8166,-6.891,-6.9688,-7.0466,-7.1244,-7.4086,-7.5879,-7.6623,-7.5134,-7.4086,-7.3375,-7.2665,-7.1954,-7.1312,-7.1312,-7.1312,-7.1312,-7.1312,0.0,0.0,0.0,0.0,0.0,0.0,0.0,0.0,0.0,0.0,0.0,0.0,0.0,-6.5764,-6.5628,-6.4613,-6.3971,-6.5967,-6.5527,-6.4512,-6.4512,-6.414,-6.4038,-6.5189,-6.4884,-6.4783,-6.6271,0.0,0.0,0.0,0.0,0.0,0.0,0.0,0.0,0.0,0.0,0.0,0.0,0.0,0.0,0.0,0.0,0.0,0.0,0.0,0.0,-7.5028,-7.4955,-7.4918,-7.4918,-7.4955,-7.4955,-7.4918,-7.4955,-7.5028,-7.5065,-7.5065,-7.5065,-7.5065,-7.5065,-7.5065,-7.4955,-7.4184,-7.3377,-7.2606,-7.2606,-7.1174,-6.9155,-7.0697,-7.1248,-7.1248,-7.2092,-7.2936,-7.3487,0.0,0.0,0.0,0.0,0.0,0.0,0.0,0.0,0.0,0.0,0.0,0.0,0.0,0.0,0.0,0.0,0.0,0.0,0.0,-6.5696,-6.6237,-6.7421,-6.776,-6.8504,-6.9755,-7.05,-7.1684,-7.3375,-7.5439,-7.6352,-7.6115,-7.4627,-7.351,-7.2766,-7.1548,-7.1142,-7.1278,-7.0804,-7.0872,-7.1312,-7.1312,-7.1312,0.0,0.0,0.0,0.0,0.0,0.0,0.0,0.0,-6.7049,-6.6779,-6.6576,-6.6136,-6.5595,-6.5155,-6.4309,-6.37,-6.4546,-6.4343,-6.4038,-6.4478,-6.441,-6.4208,-6.4309,-6.4478,-6.5019,-6.6508,-6.6203,0.0,0.0,0.0,0.0,0.0,0.0,0.0,0.0,0.0,0.0,0.0,0.0,0.0,0.0,0.0,0.0,0.0,0.0,0.0,0.0,-7.3413,-7.3193,-7.2679,-7.3634,-7.3927,-7.3413,-7.3891,-7.3891,-7.3413,-7.4441,-7.4918,-7.4918,-7.4918,-7.4625,-7.4111,-7.3303,-7.2496,-7.1725,-7.1211,-7.0477,-6.9743,-7.0881,-7.1321,-7.1431,-7.2202,-7.301,-7.356,0.0,0.0,0.0,0.0,0.0,0.0,0.0,0.0,0.0,0.0,0.0,0.0,0.0,0.0,0.0,0.0,0.0,0.0,-6.5324,-6.5561,-6.6237,-6.7489,-6.7793,-6.8504,-6.9823,-7.1041,-7.2631,-7.4627,-7.6149,-7.6487,-7.5676,-7.4187,-7.3206,-7.2665,-7.121,-7.0838,-7.1278,-7.05,-7.05,-7.0973,-7.0973,-7.1109,0.0,0.0,0.0,0.0,0.0,0.0,0.0,0.0,-6.7015,-6.6779,-6.6474,-6.6237,-6.5899,-6.5155,-6.4444,-6.3802,-6.3565,-6.3328,-6.3294,-6.3768,0.0,0.0,-6.458,-6.5121,-6.6136,-6.7861,-6.7252,-6.6677,-6.7692,0.0,0.0,0.0,0.0,0.0,0.0,0.0,0.0,0.0,0.0,0.0,0.0,0.0,0.0,0.0,0.0,0.0,0.0,-7.1725,-7.1615,-7.1321,-7.2129,-7.2422,-7.2129,-7.2679,-7.2532,-7.1762,-7.312,-7.3927,-7.4147,-7.3891,-7.345,-7.2899,-7.2092,-7.1284,-7.0513,-7.022,-7.0257,-7.055,-7.1101,-7.1468,-7.1762,-7.2312,-7.301,-7.356,0.0,0.0,0.0,0.0,0.0,0.0,0.0,0.0,0.0,0.0,0.0,0.0,0.0,0.0,0.0,0.0,0.0,0.0,-6.4647,-6.5256,-6.6,-6.6779,-6.7523,-6.8267,-6.9079,-7.1244,-7.3138,-7.4627,-7.6149,-7.6487,-7.5642,-7.4153,-7.3477,-7.3409,-7.1954,-7.1312,-7.1244,-7.05,-7.0161,-7.0161,-7.0195,-7.0635,-7.121,0.0,0.0,0.0,0.0,0.0,0.0,0.0,-6.7421,-6.6948,-6.7658,-6.7387,-6.6677,-6.5899,-6.5155,-6.4444,-6.37,-6.2956,-6.2381,0.0,0.0,0.0,-6.6508,-6.7387,-6.8538,-7.0838,-6.9485,-6.7895,-6.7895,0.0,0.0,0.0,0.0,0.0,0.0,0.0,0.0,0.0,0.0,0.0,0.0,0.0,0.0,0.0,0.0,0.0,0.0,-7.011,-7.0477,-7.1248,-7.0513,-7.0477,-7.1284,-7.1321,-7.0881,-7.011,-7.0917,-7.1725,-7.2459,-7.1651,-7.1321,-7.1248,-7.044,-6.9633,-6.8972,-6.9779,-7.0587,-7.1321,-7.1321,-7.1798,-7.2496,-7.2496,-7.301,-7.356,0.0,0.0,0.0,0.0,0.0,0.0,0.0,0.0,0.0,0.0,0.0,0.0,0.0,0.0,0.0,0.0,0.0,0.0,-6.4546,-6.4783,-6.5493,-6.6779,-6.7523,-6.7996,-6.8233,-7.0466,-7.2868,-7.5371,-7.6927,-7.6454,-7.4119,-7.368,-7.2935,-7.1954,-7.1515,-7.1007,-7.0466,-6.9722,-6.9417,-6.9451,-6.9992,-7.0331,-7.05,0.0,0.0,0.0,0.0,0.0,0.0,0.0,0.0,0.0,-6.644,-6.6914,-6.7218,-6.5459,-6.5121,-6.5087,-6.3869,-6.2584,0.0,-6.3565,0.0,0.0,0.0,-6.8166,0.0,0.0,-6.9113,-6.8286,-6.9481,0.0,0.0,0.0,0.0,0.0,0.0,0.0,0.0,0.0,0.0,0.0,0.0,0.0,0.0,0.0,0.0,0.0,0.0,-6.9779,-6.9963,-6.9633,-6.9926,-7.022,-7.044,-7.0477,-7.033,-7.011,-7.033,-7.0587,-7.0807,-7.055,-7.0477,-7.0403,-6.9596,-6.9119,-6.8972,-6.9779,-7.0587,-7.1358,-7.1945,-7.2312,-7.2496,-7.2496,-7.301,-7.356,0.0,0.0,0.0,0.0,0.0,0.0,0.0,0.0,0.0,0.0,-6.4816,-6.5019,0.0,0.0,0.0,0.0,0.0,0.0,0.0,-6.5324,-6.5865,-6.6779,-6.7252,-6.776,-6.8368,-7.0872,-7.2597,-7.351,-7.5303,-7.4965,-7.2631,-7.3206,-7.3003,-7.2191,-7.2496,-7.1887,-7.0601,-7.0161,-6.9654,-6.918,-6.9891,-7.0195,-7.0195,0.0,0.0,0.0,0.0,0.0,0.0,0.0,0.0,0.0,-6.5933,-6.6305,-6.6711,-6.5087,-6.4512,-6.4174,-6.3294,0.0,0.0,-6.3768,-6.4816,-6.6102,-6.8538,0.0,0.0,0.0,0.0,0.0,0.0,0.0,0.0,0.0,0.0,0.0,0.0,0.0,0.0,0.0,0.0,0.0,0.0,0.0,0.0,0.0,0.0,0.0,0.0,-6.8862,-6.9082,-6.8898,-6.9045,-6.9302,-6.9633,-6.9633,-6.9449,-6.9155,-6.9486,-6.9449,-6.9155,-6.9486,-6.9633,-6.9596,-6.8752,-6.8605,-6.8935,-6.9412,-7.0293,-7.1358,-7.1835,-7.2239,-7.2496,-7.2496,-7.2826,-7.3156,0.0,0.0,0.0,0.0,0.0,0.0,0.0,0.0,0.0,0.0,-6.4106,-6.4005,0.0,0.0,0.0,0.0,0.0,0.0,0.0,-6.6305,-6.6745,-6.6812,-6.6948,-6.7726,-6.9282,-7.1785,-7.209,-7.0094,-7.2293,-7.2631,-7.1244,-7.2699,-7.3409,-7.351,-7.4119,-7.3274,-7.1312,-7.1109,-7.0195,-6.8944,-6.9688,-6.9992,-6.9992,-6.9992,0.0,0.0,0.0,0.0,0.0,0.0,0.0,0.0,-6.6068,-6.5899,-6.573,-6.485,-6.3632,-6.2584,-6.2584,0.0,0.0,0.0,0.0,0.0,0.0,0.0,0.0,0.0,0.0,0.0,0.0,0.0,0.0,0.0,0.0,0.0,0.0,0.0,0.0,0.0,0.0,0.0,0.0,0.0,0.0,0.0,0.0,0.0,0.0,-6.7687,-6.8017,-6.8788,-6.8017,-6.7981,-6.8788,-6.8641,-6.8238,-6.7577,-6.8274,-6.8201,-6.7504,-6.8385,-6.8788,-6.8752,-6.8017,-6.8164,-6.8898,-6.8898,-6.9816,-7.1211,-7.1284,-7.1762,-7.2422,-7.2459,-7.2496,-7.2496,0.0,0.0,0.0,0.0,0.0,0.0,0.0,0.0,0.0,0.0,0.0,0.0,0.0,0.0,0.0,0.0,0.0,0.0,0.0,-6.5527,-6.6203,-6.6779,-6.7963,-6.9316,-7.0804,-7.0297,-6.9823,-6.935,-7.1548,-7.1887,-7.0466,-7.1954,-7.2935,-7.3477,-7.3071,-7.2293,-7.121,-6.9383,-6.8132,-6.7354,-6.8098,-6.8402,-6.8402,-6.8402,-6.8199,0.0,0.0,0.0,0.0,0.0,0.0,0.0,-6.7286,-6.7421,-6.7049,-6.5155,-6.4377,-6.414,0.0,0.0,0.0,0.0,0.0,0.0,0.0,0.0,0.0,0.0,0.0,0.0,0.0,0.0,0.0,0.0,0.0,0.0,0.0,0.0,0.0,0.0,0.0,0.0,0.0,0.0,0.0,0.0,0.0,0.0,-6.7724,-6.7687,-6.776,-6.7944,-6.7173,-6.7136,-6.7944,-6.6696,-6.6292,0.0,-6.6292,-6.5999,-6.5852,-6.7283,-6.7944,-6.7944,-6.776,-6.8164,-6.8898,-6.8898,-6.9486,-7.0403,-7.1064,-7.1431,-7.1651,-7.2275,-7.2496,-7.2496,0.0,0.0,0.0,0.0,0.0,0.0,0.0,0.0,0.0,0.0,0.0,0.0,0.0,0.0,0.0,0.0,0.0,0.0,0.0,0.0,-6.6576,-6.7286,-6.8808,-6.962,-6.9688,-6.9654,-6.9079,-6.7996,-6.9147,-6.9688,-6.9688,-7.1176,-7.2259,-7.2969,-7.3308,-7.2462,-7.0737,-6.9891,-6.8673,-6.7387,-6.8166,-6.8233,-6.7929,-6.8335,-6.803,-6.732,-6.6948,0.0,0.0,0.0,0.0,0.0,0.0,0.0,-6.6609,-6.5459,-6.4613,0.0,0.0,0.0,0.0,0.0,0.0,0.0,0.0,0.0,0.0,0.0,0.0,0.0,0.0,0.0,0.0,0.0,0.0,0.0,0.0,0.0,0.0,0.0,0.0,0.0,0.0,0.0,0.0,0.0,0.0,-6.7724,-6.7687,-6.6953,-6.6733,-6.71,-6.6366,-6.6145,-6.6549,-6.5742,-6.5521,-6.5925,-6.5521,-6.5301,-6.5338,-6.6549,-6.732,-6.7687,-6.7687,-6.8164,-6.8862,-6.8495,-6.9009,-7.011,-7.0146,-7.0624,-7.1358,-7.1798,-7.2165,-7.2496,0.0,0.0,0.0,0.0,0.0,0.0,0.0,0.0,0.0,0.0,0.0,0.0,0.0,0.0,0.0,0.0,0.0,0.0,0.0,0.0,0.0,-6.8064,-6.9316,-6.9519,-6.8504,-6.9485,-6.9079,-6.7218,-6.6948,-6.759,-6.9147,-7.05,-7.165,-7.2631,-7.3612,-7.2665,-7.0398,-7.0635,-6.9553,-6.776,-6.8436,-6.8301,-6.7793,-6.847,-6.7929,-6.6812,-6.6812,0.0,-6.6846,-6.6948,0.0,0.0,0.0,0.0,-6.5662,-6.5527,0.0,0.0,0.0,0.0,0.0,0.0,0.0,0.0,0.0,0.0,0.0,0.0,0.0,0.0,0.0,0.0,0.0,0.0,0.0,0.0,0.0,0.0,0.0,0.0,0.0,0.0,0.0,0.0,0.0,0.0,0.0,-6.6733,-6.7247,-6.6035,-6.5632,-6.6256,-6.5521,-6.5154,-6.5301,-6.5007,-6.4934,-6.5081,-6.4934,-6.4971,-6.5118,-6.5778,-6.6586,-6.7467,-6.7467,-6.7944,-6.8641,-6.7944,-6.8458,-6.9633,-6.9119,-6.9706,-7.0917,-7.1064,-7.1615,-7.2312,0.0,0.0,0.0,0.0,0.0,0.0,0.0,0.0,0.0,0.0,-6.2381,-6.2381,0.0,0.0,0.0,0.0,0.0,0.0,0.0,0.0,0.0,-6.8876,-6.9147,-6.9755,-7.0838,-6.9789,-6.9113,-6.8808,-6.7455,-6.759,-6.9113,-6.9958,-7.1413,-7.3308,-7.2225,-7.1548,-7.1041,-6.9147,-6.7827,-6.6981,-6.7083,-6.7049,-6.6981,-6.7083,-6.6981,-6.6812,-6.6812,-6.6812,-6.6914,-6.7557,-6.6914,0.0,0.0,0.0,0.0,0.0,0.0,0.0,0.0,0.0,0.0,0.0,0.0,0.0,0.0,0.0,0.0,0.0,0.0,0.0,0.0,0.0,0.0,0.0,0.0,0.0,0.0,0.0,0.0,0.0,0.0,0.0,0.0,0.0,0.0,0.0,-6.6623,-6.6256,-6.5668,-6.5411,-6.5375,-6.5485,-6.4677,-6.4604,-6.5301,-6.387,-6.3503,-6.4237,-6.3503,-6.3539,-6.4237,-6.4347,-6.5228,-6.6659,-6.6659,-6.71,-6.7834,-6.7724,-6.7834,-6.8054,-6.8678,-6.9045,-6.9302,-7.0,-7.077,-7.1468,0.0,0.0,0.0,0.0,0.0,0.0,0.0,0.0,0.0,0.0,0.0,-6.2381,0.0,0.0,0.0,0.0,0.0,0.0,0.0,0.0,0.0,-6.8368,-6.8436,-6.8741,-6.9383,-6.8774,-6.8233,-6.7827,-6.7151,-6.7793,-6.9722,-7.0026,-7.0939,-7.2259,-7.2022,-7.1244,-6.9992,-6.9011,-6.7895,-6.6812,-6.6812,-6.6068,-6.5087,-6.6339,-6.6034,-6.5121,-6.6373,-6.6812,-6.688,-6.7184,-6.6846,-6.6373,-6.6576,0.0,0.0,0.0,0.0,0.0,0.0,0.0,0.0,0.0,0.0,0.0,0.0,0.0,0.0,0.0,0.0,0.0,0.0,0.0,0.0,0.0,0.0,0.0,0.0,0.0,0.0,0.0,0.0,0.0,0.0,0.0,0.0,0.0,-6.5411,-6.5191,-6.5301,-6.442,-6.4127,-6.4604,-6.3796,-6.3539,-6.3906,-6.2732,-6.2328,-6.2695,-6.2768,-6.3025,-6.3392,-6.3392,-6.453,-6.6512,-6.6512,-6.6953,-6.7687,-6.7687,-6.7687,-6.7724,-6.8091,-6.8495,-6.8935,-6.9302,-6.9926,-7.0697,0.0,0.0,0.0,0.0,0.0,0.0,0.0,0.0,0.0,0.0,0.0,0.0,0.0,0.0,0.0,0.0,0.0,0.0,0.0,0.0,0.0,-6.759,-6.7624,-6.7624,-6.7624,-6.7624,-6.7354,-6.6812,-6.6812,-6.7963,-7.0195,-7.0398,-7.0973,-7.1887,-7.2428,-7.1447,-6.9383,-6.9383,-6.8605,-6.732,-6.6373,-6.4986,-6.3666,-6.4918,-6.4377,-6.326,-6.5459,-6.6237,-6.6305,-6.6677,-6.6677,-6.6474,0.0,0.0,0.0,0.0,0.0,0.0,0.0,0.0,0.0,0.0,0.0,0.0,0.0,0.0,0.0,0.0,0.0,0.0,0.0,0.0,0.0,0.0,0.0,0.0,0.0,0.0,0.0,0.0,0.0,0.0,0.0,0.0,0.0,0.0,-6.442,-6.4273,-6.464,-6.3503,-6.3099,-6.3759,-6.3135,-6.2805,-6.2805,-6.2218,-6.1777,-6.1594,-6.2438,-6.2805,-6.2805,-6.2805,-6.3943,-6.5888,-6.5888,-6.6439,-6.7393,-6.7393,-6.7504,-6.7687,-6.7687,-6.8054,-6.8605,-6.8605,-6.9082,-6.9889,0.0,0.0,0.0,0.0,0.0,0.0,0.0,0.0,0.0,0.0,0.0,0.0,-6.2381,-6.2381,-6.2381,-6.2381,-6.3734,0.0,0.0,0.0,0.0,-6.688,-6.688,0.0,-6.688,-6.688,-6.6846,-6.6812,-6.6812,-6.7963,-7.0195,-7.0939,-7.2022,-7.3375,-7.3409,-7.2191,-7.0128,-7.0128,-6.9688,-6.8673,-6.5121,-6.3632,-6.3362,-6.2076,-6.1501,-6.1704,-6.3937,-6.4715,-6.4918,-6.6339,-6.6339,0.0,0.0,0.0,0.0,0.0,0.0,0.0,0.0,0.0,0.0,0.0,0.0,0.0,0.0,0.0,0.0,0.0,0.0,0.0,0.0,0.0,0.0,0.0,0.0,0.0,0.0,0.0,0.0,0.0,0.0,0.0,0.0,0.0,0.0,0.0,-6.4127,-6.3759,-6.2989,-6.2879,-6.2842,-6.2879,-6.2842,-6.2805,-6.2805,-6.2768,-6.2365,-6.1594,-6.2438,-6.2805,-6.2805,-6.2805,-6.3319,-6.42,-6.42,-6.5118,-6.6549,-6.6549,-6.699,-6.7687,-6.7687,-6.7724,-6.776,-6.776,-6.8274,-6.8972,0.0,0.0,0.0,0.0,0.0,0.0,0.0,0.0,0.0,0.0,0.0,0.0,0.0,-6.2381,-6.2381,-6.2381,-6.3734,0.0,0.0,0.0,0.0,-6.6812,-6.6812,-6.6812,-6.6812,-6.6812,-6.6812,-6.6812,-6.6812,-6.7726,-6.9519,-7.0263,-7.1142,-7.2124,-7.2563,-7.1819,-7.0128,-6.9147,-6.8301,-6.7387,-6.4613,-6.2618,-6.1332,-6.1298,-6.0114,-5.8761,-6.1501,-6.2787,-6.326,-6.3802,0.0,0.0,0.0,0.0,0.0,0.0,0.0,0.0,0.0,0.0,0.0,0.0,0.0,0.0,0.0,0.0,0.0,0.0,0.0,0.0,0.0,0.0,0.0,0.0,0.0,0.0,0.0,0.0,0.0,0.0,0.0,0.0,0.0,0.0,0.0,0.0,0.0,-6.3135,-6.2842,-6.2805,-6.2805,-6.2805,-6.2291,-6.152,-6.0529,-6.1006,-6.086,-6.0089,-6.141,-6.2034,-6.2034,-6.2585,-6.2989,-6.3282,-6.3282,-6.42,-6.5742,-6.5742,-6.5888,-6.6219,-6.6733,-6.6916,-6.699,-6.7504,-6.7871,-6.8201,0.0,0.0,0.0,0.0,0.0,0.0,0.0,0.0,-6.2381,-6.2381,0.0,0.0,0.0,0.0,-6.2584,-6.3091,-6.4038,-6.5019,-6.6,-6.6542,-6.6812,-6.6812,-6.6812,-6.6812,-6.6812,-6.6812,-6.6812,-6.6812,-6.6812,-6.759,-6.9113,-6.9586,-7.0364,-7.1312,-7.1548,-7.1244,-7.05,-6.9485,-6.847,-6.7286,-6.4072,-6.2009,-6.0858,-6.0892,-5.9641,-5.8254,0.0,0.0,0.0,0.0,0.0,0.0,0.0,-6.3294,-6.3362,0.0,0.0,0.0,0.0,0.0,0.0,0.0,0.0,0.0,0.0,0.0,0.0,0.0,0.0,0.0,0.0,0.0,0.0,0.0,0.0,0.0,0.0,0.0,0.0,0.0,0.0,0.0,0.0,0.0,0.0,0.0,0.0,0.0,-6.2401,-6.2401,-6.2291,-6.1998,-6.1484,-6.0566,-5.9208,-6.0015,-6.0126,-5.9648,-6.097,-6.1741,-6.2034,-6.2585,-6.2805,-6.2805,-6.2805,-6.3613,-6.4897,-6.4897,-6.5081,-6.5375,-6.6182,-6.6512,-6.6586,-6.7393,-6.7687,-6.776,0.0,0.0,0.0,0.0,0.0,0.0,0.0,0.0,-6.2381,-6.2381,0.0,0.0,0.0,0.0,0.0,-6.4546,-6.4681,-6.529,-6.6677,-6.6812,-6.6812,-6.6812,0.0,0.0,-6.6812,-6.6812,-6.6812,-6.6812,-6.6812,-6.759,-6.9045,-6.9045,-6.9857,-7.121,-7.05,-7.0601,-7.1244,-7.121,-7.0364,-6.8571,-6.3396,-6.1704,-6.2144,-6.0554,0.0,0.0,-6.1637,-6.1738,0.0,-6.0283,0.0,0.0,0.0,-6.2888,-6.3328,-6.2618,0.0,0.0,0.0,0.0,0.0,0.0,0.0,0.0,0.0,0.0,0.0,0.0,0.0,0.0,0.0,0.0,0.0,0.0,0.0,0.0,0.0,0.0,0.0,0.0,0.0,0.0,0.0,0.0,0.0,0.0,-6.0697,-6.1557,-6.1557,-6.1557,-6.119,-6.0382,-6.0382,-5.9979,-5.9171,-5.9942,-6.0346,-6.0382,-6.119,-6.1998,-6.2768,-6.2805,-6.2805,-6.2805,-6.2805,-6.3282,-6.4053,-6.4053,-6.453,-6.5301,-6.6145,-6.6476,-6.6549,-6.7393,-6.7687,-6.7687,0.0,0.0,0.0,0.0,0.0,0.0,-6.2482,-6.2381,-6.2381,0.0,0.0,0.0,-6.2448,-6.3802,-6.5155,-6.6136,-6.6677,-6.6711,-6.6034,-6.6508,-6.6812,-6.6812,-6.6812,-6.6812,-6.6812,-6.6812,-6.6812,-6.6812,-6.6812,-6.7015,-6.7455,-6.7996,-6.8774,-6.9722,-7.006,-7.0026,-6.9688,-6.9079,0.0,-6.7083,-6.2956,-6.1061,0.0,0.0,0.0,0.0,0.0,-5.778,-5.8017,0.0,-5.9167,-6.1129,0.0,-6.2516,-6.2651,0.0,0.0,0.0,-6.2144,0.0,0.0,0.0,0.0,0.0,0.0,0.0,0.0,0.0,0.0,0.0,0.0,0.0,0.0,0.0,0.0,0.0,0.0,0.0,0.0,0.0,0.0,0.0,0.0,0.0,0.0,0.0,-6.0186,-6.075,-6.075,-6.075,-6.0382,-5.9575,-5.9538,-5.9171,-5.8327,-5.8547,-5.8951,-5.9538,-6.0346,-6.1153,-6.1961,-6.2548,-6.2805,-6.2805,-6.2805,-6.2952,-6.3172,-6.3172,-6.3319,-6.3649,-6.5081,-6.5632,-6.5815,-6.7173,-6.7687,-6.7687,0.0,0.0,0.0,0.0,0.0,-6.4174,-6.3429,-6.3328,-6.3328,0.0,0.0,0.0,-6.3734,-6.5764,-6.7015,-6.6846,-6.7489,-6.7387,-6.6237,-6.6576,-6.6812,-6.6812,-6.6812,-6.6812,-6.6812,-6.6812,-6.6812,-6.6812,-6.6812,-6.6812,-6.6812,-6.7252,-6.7692,-6.8166,-6.891,0.0,-6.8132,0.0,0.0,0.0,-6.2787,0.0,0.0,-5.8558,-5.7205,0.0,0.0,0.0,-5.7949,-5.6393,-5.7645,0.0,0.0,0.0,0.0,0.0,0.0,-6.2313,-6.2009,-6.2144,0.0,0.0,0.0,0.0,0.0,-6.0554,0.0,0.0,0.0,0.0,0.0,0.0,0.0,0.0,0.0,0.0,0.0,0.0,0.0,0.0,0.0,0.0,0.0,-5.7658,-5.814,-5.7782,-5.9074,-5.9905,-5.9905,-6.0236,-5.9869,-5.8731,-5.8694,-5.8474,-5.7997,-5.7997,-5.84,-5.9208,-6.0015,-6.0823,-6.163,-6.2438,-6.2805,-6.2805,-6.2805,-6.2805,-6.2805,-6.2805,-6.2805,-6.2989,-6.4677,-6.5301,-6.5485,-6.71,-6.7687,-6.7687,0.0,0.0,0.0,-6.4952,-6.5459,-6.5696,-6.5087,-6.4986,-6.4986,0.0,-6.4546,-6.4749,-6.6373,-6.8233,-6.8808,-6.7421,-6.7827,-6.776,-6.688,-6.6812,-6.6812,-6.6812,-6.6812,-6.6812,-6.6812,-6.6812,-6.6812,-6.6812,-6.6812,-6.6812,-6.6812,-6.6745,-6.6677,-6.6711,-6.7354,0.0,0.0,0.0,0.0,-6.6136,-6.2685,-6.2042,0.0,0.0,-5.9979,-6.0588,-5.9776,-5.9607,-5.9235,-5.6021,-5.6224,0.0,0.0,0.0,0.0,0.0,-6.2279,0.0,-6.1535,-6.1907,-6.2516,0.0,0.0,0.0,-6.0994,-5.9471,-5.7915,0.0,0.0,0.0,0.0,0.0,0.0,0.0,0.0,0.0,0.0,0.0,0.0,0.0,0.0,0.0,0.0,-5.5862,-5.6502,-5.5759,-5.7717,-5.8967,-5.9061,-5.9663,-5.937,-5.8033,-5.7997,-5.7997,-5.7997,-5.7997,-5.84,-5.9208,-6.0015,-6.0823,-6.163,-6.2438,-6.2805,-6.2805,-6.2805,-6.2805,-6.2805,-6.2805,-6.2805,-6.2989,-6.4677,-6.5301,-6.5485,-6.71,-6.7687,-6.7687,0.0,0.0,0.0,-6.6406,-6.6981,-6.7421,-6.7286,-6.7252,-6.7489,-6.8132,-6.8098,-6.9011,-7.1684,-7.1312,-7.077,-7.0466,-7.0026,-6.891,-6.6948,-6.6812,-6.6812,-6.6812,-6.6812,-6.6812,-6.6812,-6.6812,-6.6812,-6.6812,-6.6812,-6.6812,-6.6812,-6.6203,-6.5899,-6.5899,-6.6068,-6.6034,0.0,0.0,0.0,-6.4005,-6.2076,0.0,-6.0385,-5.6968,-5.6156,-5.6697,-5.5953,-5.6427,-5.7408,-5.7306,-5.7137,-5.734,0.0,0.0,0.0,-6.167,0.0,0.0,0.0,0.0,0.0,0.0,0.0,0.0,-5.9099,-5.9133,-5.9302,0.0,0.0,0.0,0.0,0.0,0.0,0.0,0.0,0.0,0.0,0.0,0.0,0.0,0.0,0.0,0.0,-5.5061,-5.5865,-5.5724,-5.6724,-5.7619,-5.817,-5.785,-5.7728,-5.7997,-5.7997,-5.7997,-5.7997,-5.7997,-5.84,-5.9208,-6.0015,-6.0823,-6.163,-6.2438,-6.2805,-6.2805,-6.2805,-6.2805,-6.2805,-6.2805,-6.2805,-6.2989,-6.4677,-6.5301,-6.5485,-6.71,-6.7687,-6.7687,0.0,0.0,0.0,0.0,-6.8571,-6.918,-6.9553,-6.962,-6.9755,-7.0161,-7.0838,-7.1582,-7.2326,-7.2394,-7.1819,-7.0331,-6.9857,-6.8842,-6.6948,-6.6812,-6.6812,-6.6812,-6.6812,-6.6812,-6.6812,-6.6812,-6.6812,-6.6812,-6.6812,-6.6812,-6.6812,-6.644,-6.5865,-6.5189,-6.5933,-6.5831,0.0,0.0,-6.5189,-6.3328,-6.1061,0.0,-5.9201,-5.5852,-5.5277,-5.6156,-5.5412,-5.5615,-5.6359,-5.7103,-5.7611,0.0,0.0,-5.9268,-5.9877,0.0,-6.1298,-6.096,0.0,0.0,0.0,-6.1434,0.0,0.0,0.0,-5.8457,-5.8152,0.0,0.0,0.0,0.0,0.0,0.0,0.0,0.0,0.0,0.0,0.0,0.0,0.0,0.0,0.0,0.0,-5.5269,-5.5893,-5.6259,-5.7028,-5.7463,-5.7486,-5.7478,-5.7651,-5.7997,-5.7997,-5.7997,-5.7997,-5.7997,-5.8217,-5.8621,-5.9428,-6.0015,-6.0456,-6.1667,-6.2218,-6.2218,-6.2658,-6.2805,-6.2805,-6.2805,-6.2805,-6.2952,-6.42,-6.4971,-6.5448,-6.6659,-6.7357,-6.7687,-6.5797,0.0,0.0,0.0,0.0,0.0,-7.121,-7.1447,-7.1582,-7.1718,-7.2766,-7.3037,-7.1853,-7.2259,-7.1751,-6.9519,-6.8402,-6.759,-6.7049,-6.6508,-6.6237,-6.6373,-6.6677,-6.6677,-6.6406,-6.6542,-6.6677,-6.6812,-6.6677,-6.6609,-6.6609,-6.6609,-6.5899,-6.4647,-6.5561,-6.5527,0.0,0.0,0.0,-6.2618,0.0,-5.8896,-5.8693,-5.5716,-5.5513,-5.6697,-5.5987,-5.5716,-5.5818,-5.6562,-5.7679,-5.8727,-5.8423,-5.9302,0.0,0.0,0.0,0.0,0.0,0.0,0.0,0.0,0.0,-6.0216,0.0,0.0,0.0,0.0,0.0,0.0,0.0,0.0,0.0,0.0,0.0,0.0,0.0,0.0,0.0,0.0,0.0,0.0,0.0,-5.5929,-5.6182,-5.6861,-5.7334,-5.7442,-5.6948,-5.7385,-5.7768,-5.7997,-5.7997,-5.7997,-5.7997,-5.7997,-5.7997,-5.7997,-5.8841,-5.9208,-5.9281,-6.086,-6.1594,-6.163,-6.2438,-6.2805,-6.2805,-6.2805,-6.2805,-6.2915,-6.3759,-6.4604,-6.5411,-6.6219,-6.699,-6.7687,-6.5696,-6.6373,0.0,0.0,0.0,0.0,0.0,-7.1853,-7.2496,-7.3138,-7.3375,-7.3443,-7.324,-7.1075,-6.9722,-7.0026,-6.5831,-6.4478,-6.7557,-6.5324,-6.4174,-6.4816,-6.6102,-6.6203,-6.4884,-6.5493,-6.6136,-6.6812,-6.6136,-6.5797,-6.5797,-6.5797,-6.5392,-6.4546,-6.3396,0.0,0.0,0.0,-6.1366,0.0,-5.8693,-5.8423,0.0,-5.5716,-5.5513,-5.6697,-5.5987,-5.5716,-5.5818,0.0,-5.734,-5.822,0.0,-5.8693,-5.7949,-6.1298,0.0,0.0,0.0,0.0,0.0,0.0,-6.1264,0.0,0.0,0.0,0.0,0.0,0.0,0.0,0.0,0.0,0.0,0.0,0.0,0.0,0.0,0.0,0.0,0.0,0.0,0.0,0.0,0.0,-5.6787,-5.6897,-5.6294,-5.6223,-5.6845,-5.633,-5.6599,-5.795,-5.7997,-5.7997,-5.7997,-5.7997,-5.7997,-5.7997,-5.8841,-5.9208,-5.9281,-6.086,-6.1594,-6.163,-6.2438,-6.2805,-6.2805,-6.2805,-6.2805,-6.2915,-6.3759,-6.4604,-6.5411,-6.6219,-6.699,-6.7687,-6.4986,-6.6,-6.6914,0.0,0.0,0.0,0.0,0.0,-7.3781,-7.4086,-7.4492,-7.4593,-7.4187,-7.2665,-7.1244,-7.0263,0.0,-6.5865,0.0,0.0,-6.4918,-6.5222,-6.6237,-6.6508,-6.5899,-6.617,-6.6508,-6.6812,-6.6508,-6.6339,-6.6339,-6.6339,-6.573,-6.458,-6.3937,0.0,-6.3734,0.0,-6.1907,0.0,0.0,0.0,0.0,-5.5074,-5.4363,-5.4974,-5.5551,-5.5758,-5.5888,0.0,-5.8212,0.0,0.0,0.0,0.0,0.0,0.0,0.0,0.0,0.0,0.0,0.0,0.0,0.0,-5.8829,0.0,-5.9909,0.0,0.0,0.0,0.0,0.0,0.0,0.0,0.0,0.0,0.0,0.0,0.0,0.0,0.0,0.0,0.0,0.0,0.0,0.0,-5.5672,-5.5863,-5.6185,-5.5893,-5.6385,-5.795,-5.7997,-5.7997,-5.7997,-5.7997,-5.7997,-5.7997,-5.8327,-5.851,-5.8547,-6.0162,-6.0896,-6.097,-6.2254,-6.2805,-6.2805,-6.2805,-6.2805,-6.2842,-6.3209,-6.4163,-6.5411,-6.6219,-6.699,-6.7687,-6.3903,-6.5189,0.0,0.0,0.0,0.0,0.0,0.0,-7.3003,-7.3612,-7.3984,0.0,-7.4018,-7.2766,0.0,0.0,-6.8166,-6.6576,0.0,0.0,-6.4816,-6.4174,-6.5662,0.0,-6.5324,-6.6102,-6.6609,-6.6812,-6.6609,-6.6508,-6.6508,-6.6711,-6.6136,-6.4884,0.0,-6.3835,-6.2956,0.0,0.0,-6.0283,-5.9302,-5.8254,-5.707,-5.4938,-5.3991,-5.3957,-5.5272,-5.5859,-5.6193,-5.7501,-5.8798,0.0,-5.8761,0.0,0.0,0.0,0.0,0.0,-6.1839,0.0,0.0,0.0,0.0,0.0,0.0,0.0,0.0,0.0,0.0,0.0,0.0,0.0,0.0,0.0,0.0,0.0,0.0,0.0,0.0,0.0,0.0,0.0,0.0,0.0,0.0,-5.5077,-5.5611,-5.5889,-5.5702,-5.6106,-5.6848,-5.795,-5.8217,-5.8217,-5.7997,-5.7997,-5.7997,-5.7997,-5.7997,-5.7997,-5.8033,-5.9685,-6.0419,-6.0493,-6.2108,-6.2805,-6.2805,-6.2805,-6.2805,-6.2842,-6.3062,-6.4053,-6.5375,-6.5962,-6.6806,-6.7687,-6.2448,-6.3666,0.0,0.0,0.0,0.0,0.0,0.0,0.0,0.0,0.0,0.0,0.0,0.0,0.0,0.0,0.0,-6.485,-6.7658,0.0,-6.2584,0.0,0.0,-6.4377,0.0,-6.4275,-6.6068,-6.6812,-6.6068,-6.573,-6.573,-6.6474,-6.6406,-6.5595,-6.4174,-6.3903,-6.4275,-6.0689,-5.8693,-5.7881,-5.6427,-5.5818,-5.5784,0.0,-5.5209,-5.4634,-5.5412,0.0,0.0,-5.7683,-5.8389,0.0,0.0,0.0,0.0,0.0,0.0,0.0,0.0,0.0,0.0,-6.0317,0.0,0.0,0.0,0.0,-6.1065,0.0,0.0,0.0,0.0,0.0,0.0,-6.0336,0.0,0.0,0.0,0.0,0.0,0.0,0.0,0.0,0.0,0.0,0.0,-5.5819,-5.6344,-5.6446,-5.5738,-5.7191,-5.8014,-5.8033,-5.8767,-5.8804,-5.7997,-5.7997,-5.7997,-5.7997,-5.7997,-5.7997,-5.8033,-5.9685,-6.0419,-6.0493,-6.2108,-6.2805,-6.2805,-6.2805,-6.2805,-6.2879,-6.3723,-6.4567,-6.5301,-6.5338,-6.6329,-6.7687,0.0,0.0,0.0,0.0,0.0,0.0,0.0,-6.8538,0.0,0.0,0.0,0.0,0.0,-7.324,-7.2259,0.0,0.0,-6.7929,-6.7895,-6.6508,0.0,0.0,0.0,-6.573,0.0,0.0,-6.6542,-6.6812,-6.6542,-6.644,-6.644,-6.6677,-6.6406,-6.5628,0.0,-6.2821,0.0,0.0,0.0,0.0,0.0,-5.6156,-5.5683,0.0,0.0,-5.5346,-5.5651,-5.5928,0.0,-5.7535,-5.8419,-5.8964,-5.8727,-5.9133,-5.9674,-5.9438,-5.9539,0.0,0.0,0.0,-5.8964,-5.8693,0.0,0.0,0.0,0.0,0.0,0.0,0.0,0.0,0.0,0.0,0.0,-6.1298,0.0,0.0,0.0,0.0,0.0,0.0,0.0,0.0,0.0,0.0,0.0,-5.5176,-5.5212,-5.5667,-5.6445,-5.7,-5.8034,-5.9527,-5.9869,-5.9612,-5.8804,-5.8804,-5.8547,-5.7997,-5.7997,-5.7997,-5.8033,-5.9134,-5.9612,-5.9722,-6.13,-6.1998,-6.2034,-6.2585,-6.2805,-6.2842,-6.3135,-6.3759,-6.464,-6.5705,-6.6769,-6.7687,-6.3302,0.0,0.0,0.0,0.0,0.0,0.0,0.0,0.0,0.0,-7.3003,0.0,-7.4796,0.0,-7.3443,0.0,-7.1278,-6.9823,-6.803,-6.7455,0.0,-6.458,-6.5222,0.0,0.0,0.0,0.0,0.0,-6.644,-6.6677,-6.6406,-6.6406,-6.6,-6.5256,0.0,-6.2482,-6.0047,0.0,-5.7848,0.0,0.0,-5.6461,0.0,0.0,-5.5446,-5.6057,0.0,-5.5894,-5.6227,-5.7261,-5.8044,-5.8524,-5.8051,-5.8558,-5.9235,-5.8761,-5.8761,-5.8896,-5.866,-5.8084,0.0,-5.7509,-5.7775,0.0,-5.8256,0.0,0.0,0.0,0.0,0.0,0.0,0.0,0.0,0.0,0.0,0.0,0.0,0.0,0.0,0.0,0.0,0.0,0.0,0.0,-5.8402,-5.5212,-5.5516,-5.6154,0.0,0.0,-5.873,-5.9931,-6.0529,-6.0456,-5.9648,-5.9355,-5.8951,-5.8437,-5.8143,-5.8143,-5.8437,-5.8988,-5.9391,-5.9722,-6.1043,-6.1594,-6.1667,-6.2475,-6.2805,-6.2805,-6.2805,-6.3319,-6.4237,-6.5595,-6.6769,-6.7687,0.0,0.0,0.0,0.0,-6.571,0.0,0.0,0.0,-7.0128,0.0,-7.2191,-7.3544,-7.3544,-7.2902,-7.2428,-7.2394,-7.1751,-7.0398,-6.8199,-6.7996,0.0,0.0,-6.326,-6.2584,-6.0317,0.0,0.0,0.0,0.0,0.0,-6.5696,-6.5662,-6.5256,-6.4546,-6.4546,0.0,-6.0013,-5.9302,-5.734,-5.4702,-5.5446,-5.6562,-5.7679,-5.6224,-5.6122,-5.663,-5.5886,-5.6089,-5.6731,-5.6697,-5.7239,-5.7881,-5.7848,-5.7848,-5.7881,-5.7881,-5.7374,-5.6934,-5.7611,-5.7239,-5.6697,-5.6769,-5.7295,0.0,0.0,0.0,-6.1364,0.0,0.0,0.0,0.0,0.0,0.0,0.0,0.0,0.0,0.0,0.0,0.0,0.0,0.0,0.0,0.0,0.0,-5.9109,-5.5994,-5.7086,0.0,0.0,0.0,-6.0029,-5.9428,-6.086,-6.1263,-6.0456,-5.9722,-5.9281,-5.9208,-5.8437,-5.8437,-5.9171,-5.9171,-5.9575,-6.0382,-6.119,-6.1557,-6.1667,-6.2475,-6.2805,-6.2805,-6.2805,-6.3356,-6.4237,-6.5081,-6.6366,-6.7687,-6.4358,-6.5268,-6.5645,0.0,-6.3623,-6.3971,0.0,0.0,0.0,0.0,-7.3274,-7.4322,-7.4322,-7.3646,-7.3003,-7.2462,-7.1751,0.0,0.0,0.0,0.0,-6.6542,-6.5628,-6.4343,-6.2685,-6.3937,0.0,-6.4343,0.0,0.0,-6.5662,-6.5121,-6.4478,-6.3802,0.0,0.0,-5.9268,-5.9099,-5.7611,-5.5446,-5.5649,-5.6258,0.0,0.0,-5.5344,-5.5818,-5.4532,-5.4905,-5.5919,-5.5344,-5.6359,-5.778,-5.7273,-5.7442,-5.7881,-5.7881,-5.7374,-5.6731,-5.6359,-5.5716,-5.528,-5.5853,-5.6586,-5.7423,0.0,0.0,0.0,0.0,0.0,0.0,0.0,0.0,0.0,0.0,0.0,0.0,0.0,0.0,0.0,0.0,0.0,0.0,0.0,0.0,-5.939,-5.6736,-5.6369,0.0,0.0,0.0,0.0,-6.1838,-6.2291,-6.2108,-6.13,-6.108,-6.0382,-5.9208,-5.8988,-5.8694,-5.8327,-5.8327,-5.8767,-5.9575,-6.0382,-6.1043,-6.1667,-6.2475,-6.2805,-6.2805,-6.2805,-6.3723,-6.5081,-6.5888,-6.6843,-6.7687,-6.3858,0.0,0.0,-6.4279,0.0,0.0,-6.6576,0.0,0.0,-7.0737,-7.2529,0.0,-7.2732,-7.2868,-7.2732,-7.1988,-7.1548,0.0,-7.0398,0.0,0.0,-6.7489,-6.5696,-6.4208,-6.3057,-6.2753,0.0,-6.3159,0.0,0.0,-6.4715,0.0,0.0,0.0,0.0,-6.0723,0.0,-5.7509,-5.6934,-5.6596,-5.5615,0.0,0.0,-5.5141,-5.4871,-5.5074,-5.3923,-5.4262,-5.5175,-5.4735,-5.5852,-5.7273,-5.6562,-5.6833,-5.734,-5.7036,-5.6641,-5.6201,-5.5791,-5.5438,-5.5167,-5.5567,-5.6303,-5.7116,-5.8013,-5.9429,-6.0543,0.0,-6.0847,-6.1227,0.0,0.0,0.0,0.0,0.0,0.0,0.0,0.0,0.0,0.0,0.0,0.0,0.0,0.0,0.0,0.0,0.0,0.0,0.0,0.0,0.0,-6.2205,-6.3356,-6.3319,-6.2144,-6.2511,-6.1704,-5.9722,-5.9391,-5.8988,-5.851,-5.8143,-5.8437,-5.9245,-6.0052,-6.0676,-6.1153,-6.2328,-6.2805,-6.2842,-6.3209,-6.4383,-6.5888,-6.6329,-6.699,-6.7687,0.0,0.0,0.0,0.0,0.0,0.0,0.0,-6.8335,0.0,-6.9383,0.0,-7.2124,-7.0635,-7.1616,-7.209,-7.1379,0.0,-7.0635,-6.9316,-6.9045,-6.8301,-6.688,-6.4783,-6.3226,-6.2279,-6.0825,-6.0486,0.0,0.0,0.0,0.0,0.0,0.0,0.0,0.0,0.0,0.0,-5.575,-5.5919,-5.7442,-5.5412,-5.5378,-5.6359,-5.4972,-5.4465,-5.4363,-5.3721,-5.3957,-5.4566,-5.4465,-5.5446,-5.6528,-5.5818,-5.6156,-5.6664,-5.6026,-5.5823,-5.5854,-5.5813,-5.5679,-5.561,-5.5836,-5.6313,-5.6795,-5.7005,-5.8079,-5.9018,-5.8999,-5.9625,-6.0126,0.0,0.0,0.0,0.0,0.0,0.0,0.0,0.0,0.0,0.0,0.0,0.0,0.0,0.0,0.0,0.0,0.0,0.0,0.0,0.0,0.0,-6.163,-6.3906,-6.4494,-6.3135,0.0,-6.3025,-6.086,-5.9869,-5.9318,-5.9171,-5.8364,-5.8437,-5.9245,-6.0052,-6.0456,-6.0676,-6.2181,-6.2879,-6.3062,-6.3906,-6.5191,-6.6512,-6.6623,-6.71,-6.7687,0.0,0.0,0.0,0.0,0.0,-6.6305,-6.7523,-6.9553,-7.0939,-7.0939,-7.2868,-7.3646,-7.2191,-7.2259,-7.209,-7.1379,-7.0737,0.0,0.0,0.0,0.0,-6.6846,-6.5256,-6.3497,-6.1535,-6.0588,-6.0486,0.0,0.0,0.0,-6.255,0.0,0.0,0.0,0.0,0.0,-5.7814,-5.6833,0.0,-5.6021,-5.5006,-5.4735,-5.4871,-5.4025,-5.3687,-5.3687,-5.3551,-5.3957,-5.4499,-5.389,-5.4668,-5.5784,-5.504,-5.5716,-5.6772,-5.6675,-5.6595,-5.664,-5.6691,-5.5774,-5.5119,-5.6367,-5.6313,-5.6259,-5.7497,-5.804,-5.8207,-5.8223,-5.8307,-5.8621,-5.9318,0.0,0.0,0.0,0.0,0.0,0.0,0.0,0.0,0.0,0.0,0.0,0.0,0.0,0.0,0.0,0.0,0.0,0.0,0.0,0.0,0.0,-6.3356,0.0,0.0,0.0,-6.387,-6.3429,-6.1227,-5.9832,-5.9171,-5.8364,-5.8437,-5.9245,-6.0052,-6.0786,-6.1447,-6.2401,-6.3209,-6.3943,-6.4787,-6.5668,-6.6586,-6.7247,-6.7577,-6.7687,0.0,0.0,0.0,0.0,0.0,0.0,0.0,-7.0094,0.0,-7.0263,-7.1109,-7.1481,-7.077,-7.1379,-7.1548,-7.0804,-7.0398,-6.9688,-6.8504,-6.776,-6.6846,-6.573,-6.4613,0.0,-6.1907,-5.9945,-5.9742,-6.1298,0.0,0.0,-6.1806,0.0,0.0,0.0,0.0,-5.822,0.0,0.0,0.0,-5.6156,-5.4634,-5.4262,-5.4499,-5.3788,-5.3518,-5.3518,-5.3518,-5.3721,-5.3991,-5.3619,-5.4228,-5.5074,-5.4702,-5.5383,-5.6232,-5.6215,-5.6519,-5.6843,-5.6882,-5.6653,-5.6527,-5.7266,-5.7166,-5.708,-5.7821,-5.7997,-5.7997,-5.7997,-5.7997,-5.8253,-5.9061,-6.0493,0.0,0.0,0.0,0.0,0.0,0.0,0.0,0.0,0.0,0.0,0.0,0.0,0.0,0.0,0.0,0.0,0.0,0.0,0.0,0.0,0.0,0.0,0.0,0.0,0.0,-6.2768,-6.119,-5.9979,-5.9171,-5.8364,-5.8437,-5.9245,-6.0052,-6.086,-6.1667,-6.2475,-6.3576,-6.4751,-6.5154,-6.6035,-6.7173,-6.754,-6.7687,-6.7687,0.0,-6.573,0.0,0.0,-6.7692,0.0,-6.9045,-7.0229,-7.0703,-6.9688,-6.9586,-6.9586,-6.9586,-7.0466,-7.0838,-7.0229,-6.9755,-6.8707,-6.6948,-6.6508,-6.5764,-6.441,-6.3666,-6.2854,-6.1907,-5.9099,-5.8626,0.0,0.0,0.0,0.0,0.0,0.0,0.0,0.0,0.0,0.0,0.0,-5.5175,-5.5953,-5.4194,-5.3856,-5.4296,-5.3721,-5.3518,-5.3518,-5.3518,-5.3518,-5.3518,-5.3518,-5.389,-5.4363,-5.4363,-5.487,-5.5495,-5.5668,-5.6303,-5.6937,-5.7102,-5.7449,-5.7774,-5.795,-5.7867,-5.7821,-5.795,-5.7997,-5.7997,-5.7997,-5.7997,-5.8253,-5.9061,-5.9869,0.0,0.0,0.0,0.0,0.0,0.0,0.0,0.0,0.0,0.0,0.0,0.0,0.0,0.0,0.0,0.0,0.0,0.0,0.0,0.0,0.0,-6.5888,-6.4604,0.0,-6.4677,-6.2108,-6.0786,-5.9905,-5.9428,-5.8437,-5.8547,-5.9501,-6.0126,-6.1043,-6.2181,-6.2842,-6.4053,-6.5558,-6.5558,-6.6439,-6.7687,-6.7687,-6.7687,-6.7687,0.0,0.0,0.0,0.0,0.0,0.0,-6.918,-6.9789,-7.05,-7.1041,-7.1109,-7.1109,-7.1109,-7.0635,-7.0263,-7.0195,-6.8301,-6.7049,-6.6812,-6.5561,-6.4444,-6.3666,-6.2888,-6.1806,-6.0351,-5.8084,-5.734,0.0,0.0,-5.663,0.0,0.0,0.0,0.0,0.0,0.0,0.0,-5.4668,-5.4296,-5.3788,-5.3585,-5.3551,-5.3585,-5.3518,-5.3518,-5.3518,-5.3518,-5.3518,-5.3518,-5.3518,-5.3551,-5.3619,-5.3619,-5.4127,-5.487,-5.5518,-5.629,-5.7077,-5.7717,-5.7449,-5.7166,-5.7821,-5.7498,-5.7202,-5.7821,-5.7997,-5.7997,-5.7997,-5.7997,-5.8253,-5.9061,-5.9869,-6.0676,0.0,0.0,0.0,0.0,0.0,0.0,0.0,0.0,0.0,0.0,0.0,0.0,0.0,0.0,0.0,0.0,0.0,0.0,-6.1741,0.0,-6.6439,-6.6292,-6.4971,-6.4163,-6.3833,-6.0786,-5.9648,-6.0236,-5.8694,-5.8841,-6.0309,-6.0382,-6.1704,-6.387,-6.3943,-6.4934,-6.6402,-6.6402,-6.6916,-6.7687,-6.7687,-6.7687,-6.7687,0.0,0.0,0.0,0.0,0.0,0.0,0.0,-6.962,-6.9789,-7.0534,-7.0263,-6.9992,-6.9992,-6.9282,-6.8808,-6.8808,-6.7184,-6.5967,-6.5527,-6.4512,-6.3429,-6.2245,-6.1907,-6.0791,-5.8795,-5.7476,-5.6934,0.0,0.0,0.0,0.0,0.0,0.0,0.0,0.0,-5.5141,-5.4566,-5.4126,-5.3788,-5.3551,-5.3991,-5.389,-5.3551,-5.3991,-5.389,-5.3518,-5.3518,-5.3518,-5.3518,-5.3518,-5.3518,-5.3619,-5.4524,-5.5006,-5.5488,-5.6736,-5.7297,-5.7615,-5.793,-5.7774,-5.7498,-5.7401,-5.7449,-5.7498,-5.7401,-5.7679,-5.7997,-5.7997,-5.7997,-5.8107,-5.8437,-5.9134,-5.9942,-6.075,0.0,0.0,0.0,0.0,0.0,0.0,0.0,0.0,0.0,0.0,0.0,0.0,0.0,0.0,0.0,0.0,0.0,-6.3062,0.0,-6.4751,-6.5778,-6.4127,-6.3319,-6.3282,-6.1006,-6.0346,-6.108,-5.9942,-6.0052,-6.119,-6.2181,-6.3172,-6.4127,-6.4604,-6.5485,-6.6512,-6.6512,-6.699,-6.7687,-6.7687,-6.7687,-6.7687,-6.7083,0.0,-6.6677,0.0,-6.776,-6.7929,-6.962,-6.9214,-6.8944,-6.9451,-6.8673,-6.8368,-6.9045,-6.8199,-6.759,-6.759,-6.6034,-6.4816,-6.4309,-6.3599,-6.2618,-6.1366,-6.0858,0.0,-5.7915,-5.6731,-5.6156,-5.6156,-5.5649,0.0,0.0,0.0,0.0,0.0,-5.4837,-5.4465,-5.4228,-5.3721,-5.3518,-5.3551,-5.4059,-5.3957,-5.3551,-5.4093,-5.3957,-5.3518,-5.3518,-5.3518,-5.3518,-5.3518,-5.3518,-5.372,-5.4724,-5.5209,-5.5658,-5.6957,-5.7309,-5.7364,-5.7594,-5.7679,-5.7546,-5.7015,-5.7302,-5.7631,-5.7302,-5.7631,-5.7997,-5.7997,-5.7997,-5.7997,-5.7997,-5.8474,-5.9208,-6.0236,0.0,0.0,0.0,0.0,0.0,0.0,-6.1594,-6.1153,-6.0933,0.0,0.0,0.0,0.0,0.0,0.0,0.0,0.0,0.0,0.0,0.0,0.0,-6.3539,-6.2695,-6.2438,-6.108,-6.0823,-6.1594,-6.1263,-6.13,-6.1667,-6.3356,-6.4237,-6.453,-6.5338,-6.6145,-6.6843,-6.6843,-6.7173,-6.7687,-6.7687,-6.7687,-6.7687,-6.7726,-6.9079,-6.9891,-6.9214,-7.0297,-7.077,-6.935,-6.8436,-6.7929,-6.7929,-6.6643,-6.6576,-6.8842,-6.7726,-6.6812,-6.6812,-6.4816,-6.3531,-6.3531,-6.2821,-6.2076,0.0,0.0,-5.8693,-5.7915,-5.575,-5.4634,-5.4634,0.0,0.0,-5.4634,0.0,-5.5344,-5.46,-5.46,-5.4194,-5.3518,-5.3518,-5.3518,-5.3518,-5.3518,-5.3518,-5.3518,-5.3518,-5.3518,-5.3518,-5.3518,-5.3518,-5.3518,-5.3518,-5.3518,-5.3518,-5.3518,-5.4011,-5.4757,-5.5495,-5.5724,-5.5893,-5.6668,-5.6912,-5.6912,-5.6912,-5.6912,-5.7116,-5.7821,-5.7997,-5.7997,-5.7997,-5.7997,-5.7997,-5.7997,-5.7997,-5.8547,-6.0126,0.0,0.0,0.0,0.0,0.0,0.0,-6.0419,-6.0126,-5.9318,0.0,0.0,0.0,0.0,0.0,0.0,0.0,0.0,-6.163,-6.4016,0.0,-6.4127,-6.3246,-6.2401,-6.1594,-6.0786,-6.0823,-6.163,-6.2401,-6.2365,-6.1667,-6.3356,-6.453,-6.5375,-6.6145,-6.6953,-6.7687,-6.7687,-6.7687,-6.7687,-6.7687,-6.7687,-6.7687,-6.7117,-6.7557,-6.7827,-6.759,-6.7929,-6.8267,-6.8267,-6.7658,-6.7354,-6.7827,-6.6609,-6.5967,-6.6677,-6.5459,-6.458,0.0,-6.299,-6.2009,0.0,-6.1264,-6.0486,-5.9776,-5.8795,-5.7679,-5.6427,-5.5209,-5.4329,-5.3856,0.0,0.0,0.0,-5.4837,-5.4566,-5.3856,-5.3856,-5.3721,-5.3518,-5.3518,-5.3518,-5.3551,-5.4059,-5.3957,-5.3551,-5.4059,-5.3923,-5.3518,-5.3518,-5.3518,-5.3518,-5.3518,-5.3815,-5.4171,-5.3685,-5.4011,-5.4757,-5.5495,-5.5724,-5.578,-5.6004,-5.6474,-5.6773,-5.6204,-5.6876,-5.7583,-5.7302,-5.7631,-5.7997,-5.7997,-5.7997,-5.7997,-5.7997,-5.7997,-5.8364,-5.9428,-6.0052,0.0,0.0,0.0,0.0,0.0,-6.1227,-6.0896,0.0,-6.097,0.0,0.0,0.0,0.0,0.0,0.0,0.0,0.0,-6.2952,0.0,-6.409,-6.2695,-6.2144,-6.2401,-6.1594,-6.163,-6.2438,-6.2695,-6.2989,-6.3356,-6.4457,-6.5375,-6.6182,-6.699,-6.7467,-6.7687,-6.7687,-6.7687,-6.7687,-6.7687,-6.7687,-6.7687,-6.6812,-6.7015,-6.7049,-6.6474,-6.6643,-6.6779,-6.6677,-6.6271,-6.6136,-6.6609,-6.5628,-6.4749,-6.4478,-6.3396,0.0,-6.3057,-6.2009,-6.1163,-6.0858,-6.0385,-5.9641,-5.8626,-5.7881,-5.6799,-5.5344,-5.4566,0.0,-5.3518,-5.3957,-5.4194,-5.4194,-5.4194,-5.3923,-5.3518,-5.3518,-5.3518,-5.3518,-5.3518,-5.3518,-5.3551,-5.3991,-5.3923,-5.3551,-5.4025,-5.389,-5.3518,-5.3518,-5.3518,-5.3518,-5.3518,-5.3849,-5.4106,-5.3685,-5.3849,-5.4328,-5.5084,-5.5262,-5.5262,-5.5262,-5.5836,-5.6313,-5.5836,-5.6632,-5.7546,-5.7351,-5.7679,-5.7997,-5.7997,-5.7997,-5.7997,-5.7997,-5.7997,-5.8253,-5.9098,-5.9648,-6.0052,-6.0382,0.0,0.0,0.0,0.0,0.0,0.0,-6.086,-6.1006,0.0,0.0,0.0,0.0,0.0,0.0,-6.3099,-6.2438,0.0,-6.3613,-6.2585,-6.2291,-6.2805,-6.2291,-6.2475,-6.3282,-6.3282,-6.3759,-6.4604,-6.5411,-6.6035,-6.6549,-6.7357,-6.7687,-6.7687,-6.7687,-6.7687,-6.7687,-6.7687,-6.7687,-6.7687,-6.6677,-6.7218,-6.7218,0.0,-6.6203,0.0,-6.4816,-6.4613,-6.4613,-6.4613,-6.3903,-6.3159,-6.2448,-6.167,-6.1467,-6.211,0.0,0.0,0.0,-5.9945,-5.9302,-5.7881,-5.7103,-5.6055,-5.4634,-5.389,-5.3518,-5.3518,-5.3518,-5.3518,-5.3518,-5.3518,-5.3518,-5.3518,-5.3518,-5.3518,-5.3518,-5.3518,-5.3518,-5.3518,-5.3518,-5.3518,-5.3518,-5.3518,-5.3518,-5.3518,-5.3518,-5.3518,-5.3518,-5.3518,-5.3518,-5.3518,-5.3518,-5.3518,-5.3618,-5.4328,-5.4544,-5.4544,-5.4544,-5.5084,-5.5724,-5.5724,-5.6367,-5.7202,-5.7821,-5.7997,-5.7997,-5.7997,-5.7997,-5.7997,-5.7997,-5.7997,-5.8253,-5.8988,-5.9208,-5.9538,-6.0236,0.0,0.0,0.0,0.0,0.0,-6.0566,-6.0493,-6.0162,0.0,0.0,0.0,0.0,0.0,-6.2475,-6.1704,-6.2401,-6.2805,-6.2805,-6.2805,-6.2805,-6.2805,-6.2805,-6.3282,-6.409,-6.409,-6.4567,-6.5448,-6.6182,-6.6512,-6.6623,-6.7393,-6.7687,-6.7687,-6.7687,-6.7687,-6.7687,-6.7687,-6.7687,-6.7687,0.0,0.0,-6.5256,-6.4918,-6.4986,-6.5019,-6.4647,-6.4613,-6.4613,-6.4613,-6.3463,-6.2584,-6.2415,-6.1197,-6.0216,-5.9844,-5.9674,-5.9235,-5.8457,-5.8423,-5.8017,-5.7103,-5.6359,-5.5547,-5.46,-5.389,-5.3518,-5.3518,-5.3518,-5.3518,-5.3518,-5.3518,-5.3518,-5.3518,-5.3518,-5.3518,-5.3518,-5.3518,-5.3518,-5.3518,-5.3518,-5.3518,-5.3518,-5.3518,-5.3518,-5.3518,-5.3518,-5.3518,-5.3518,-5.3518,-5.3518,-5.3518,-5.3518,-5.3518,-5.3551,-5.3717,-5.3783,-5.3783,-5.3783,-5.473,-5.5724,-5.5724,-5.6737,-5.7774,-5.795,-5.7997,-5.7997,-5.7997,-5.7997,-5.7997,-5.7997,-5.7997,-5.807,-5.8253,-5.9318,-5.9979,-5.9538,-6.0529,0.0,0.0,-6.1484,-6.152,-6.1337,-6.13,-6.1227,0.0,0.0,0.0,0.0,-6.2585,-6.2732,-6.2511,-6.2695,-6.2805,-6.2805,-6.2805,-6.2805,-6.2805,-6.2805,-6.3282,-6.409,-6.409,-6.4861,-6.6219,-6.6402,-6.6843,-6.743,-6.7614,-6.7687,-6.7687,-6.7687,-6.7687,-6.7687,-6.7687,-6.7687,-6.7687,-6.4681,-6.4613,-6.4478,-6.4174,-6.4106,-6.3971,-6.3632,-6.3294,-6.3091,-6.3091,-6.2076,-6.1231,-6.0892,-6.0114,-5.9302,-5.8558,-5.8829,-5.8693,-5.7949,-5.7577,-5.707,-5.6325,-5.5581,-5.4837,-5.4126,-5.3687,-5.3518,-5.3518,-5.3518,-5.3518,-5.3518,-5.3518,-5.3518,-5.3518,-5.3518,-5.3518,-5.3518,-5.3518,-5.3518,-5.3518,-5.3518,-5.3518,-5.3518,-5.3518,-5.3518,-5.3518,-5.3518,-5.3518,-5.3518,-5.3518,-5.3518,-5.3518,-5.3518,-5.3518,-5.3518,-5.3518,-5.3518,-5.3518,-5.3518,-5.4544,-5.5893,-5.658,-5.7364,-5.7997,-5.7997,-5.7997,-5.7997,-5.7997,-5.7997,-5.7997,-5.7997,-5.7997,-5.7997,-5.7997,-5.9061,-5.9722,-5.9281,-6.0272,0.0,-6.1043,-6.1043,-6.119,-6.1557,-6.1263,-6.119,-6.1557,-6.1594,0.0,-6.2218,-6.2622,-6.2805,-6.2805,-6.2805,-6.2805,-6.2805,-6.2805,-6.3025,-6.3392,-6.3392,-6.4016,-6.5191,-6.5191,-6.5852,-6.7026,-6.7026,-6.7283,-6.7687,-6.7687,-6.7687,-6.7687,-6.7687,-6.7687,-6.7687,-6.7687,-6.7687,-6.7687,-6.414,-6.4106,-6.3903,-6.3294,-6.3091,-6.2821,-6.2313,-6.1603,-6.1163,-6.1298,-6.052,-5.9708,-5.9099,-5.8829,-5.8423,-5.778,-5.822,-5.8287,-5.7746,-5.7036,-5.6325,-5.5581,-5.4938,-5.4262,-5.3518,-5.3518,-5.345,-5.3315,-5.345,-5.345,-5.3315,-5.345,-5.3518,-5.3518,-5.3518,-5.3518,-5.3518,-5.3518,-5.3518,-5.3518,-5.3518,-5.3518,-5.3518,-5.3518,-5.3518,-5.3518,-5.3518,-5.3518,-5.3518,-5.3518,-5.3518,-5.3518,-5.3518,-5.3518,-5.3518,-5.3518,-5.3518,-5.3518,-5.3518,-5.4544,-5.6059,-5.7594,-5.7997,-5.7997,-5.7997,-5.7997,-5.7997,-5.7997,-5.7997,-5.7997,-5.7997,-5.7997,-5.8033,-5.8143,-5.8877,-5.9391,-5.9391,0.0,-6.0419,-6.0419,-6.0309,-6.0566,-6.152,-6.097,-6.0896,-6.1704,-6.1777,-6.1777,-6.1777,-6.2438,-6.2879,-6.2989,-6.2879,-6.2879,-6.2989,-6.3025,-6.3429,-6.4273,-6.4273,-6.5044,-6.6512,-6.6512,-6.6953,-6.7687,-6.7687,-6.7687,-6.7687,-6.7687,-6.7687,-6.7687,-6.7687,-6.7614,-6.7504,-6.765,-6.7614,-6.754,-6.2076,-6.1806,-6.1772,-6.167,-6.1095,-6.0825,-6.1366,-6.0791,-6.052,-6.1231,-6.008,-5.9133,-5.9032,-5.7881,-5.7103,-5.6968,-5.6528,-5.6427,-5.6934,-5.6292,-5.5547,-5.4803,-5.4668,-5.4262,-5.3518,-5.3518,-5.3179,-5.2503,-5.3179,-5.3145,-5.2503,-5.3179,-5.3518,-5.3518,-5.3518,-5.3518,-5.3518,-5.3518,-5.3518,-5.3518,-5.3518,-5.3518,-5.3518,-5.3518,-5.3518,-5.3518,-5.3518,-5.3518,-5.3518,-5.3518,-5.3518,-5.3518,-5.3518,-5.3518,-5.3518,-5.3518,-5.3518,-5.3518,-5.3518,-5.4544,-5.6059,-5.7594,-5.7997,-5.7997,-5.7997,-5.7997,-5.7997,-5.7997,-5.7997,-5.7997,-5.7997,-5.7997,-5.8217,-5.8914,-5.9685,-6.0236,-6.0236,0.0,-6.0419,-6.0419,-5.9795,-5.9979,-6.1447,-6.1484,-6.1741,-6.2548,-6.2622,-6.2622,-6.2622,-6.2732,-6.3135,-6.387,-6.3172,-6.3172,-6.387,-6.3906,-6.431,-6.5118,-6.5118,-6.5595,-6.6512,-6.6512,-6.6953,-6.7687,-6.7687,-6.7687,-6.7687,-6.7687,-6.7687,-6.7687,-6.7687,-6.7283,-6.6769,-6.743,-6.7247,-6.6769,-6.0791,-6.0655,-6.0655,-6.0655,-6.0351,-6.0216,-6.0588,-6.0013,-5.9641,-6.0013,-5.9099,-5.8423,-5.8423,-5.7442,-5.6799,-5.6799,-5.575,-5.5243,-5.5581,-5.531,-5.4972,-5.46,-5.4228,-5.3856,-5.3518,-5.3518,-5.3112,-5.23,-5.3112,-5.3078,-5.2334,-5.3112,-5.3518,-5.3518,-5.3518,-5.3518,-5.3518,-5.3518,-5.3518,-5.3518,-5.3518,-5.3518,-5.3518,-5.3518,-5.3518,-5.3518,-5.3518,-5.3518,-5.3518,-5.3518,-5.3518,-5.3518,-5.3518,-5.3518,-5.3518,-5.3518,-5.3783,-5.4171,-5.4544,-5.553,-5.658,-5.7726,-5.7997,-5.7997,-5.7997,-5.7997,-5.7997,-5.7997,-5.7997,-5.7997,-5.7997,-5.7997,-5.8253,-5.9098,-5.9538,0.0,0.0,-5.9758,-5.9758,-5.9758,-5.9428,-5.9832,-6.1447,-6.1594,-6.1924,-6.2768,-6.2805,-6.2805,-6.2805,-6.3246,-6.3686,-6.409,-6.4127,-6.4347,-6.4751,-6.4751,-6.5154,-6.5962,-6.5962,-6.6366,-6.7136,-6.7136,-6.7357,-6.7687,-6.7687,-6.7687,-6.7687,-6.7687,-6.743,-6.7026,-6.7026,-6.6843,-6.6549,-6.6916,-6.71,-6.7173,-5.9877,-5.9844,-5.9844,-5.9844,-5.9708,-5.9641,-5.981,-5.9235,-5.8829,-5.8998,-5.8355,-5.7814,-5.7645,-5.7002,-5.6494,-5.6292,-5.5108,-5.4329,-5.4329,-5.4329,-5.4329,-5.4329,-5.3788,-5.3518,-5.3518,-5.3315,-5.2841,-5.2063,-5.2841,-5.2841,-5.2063,-5.3044,-5.3518,-5.3518,-5.3518,-5.3518,-5.3518,-5.3518,-5.3518,-5.3518,-5.3518,-5.3518,-5.3518,-5.3518,-5.3518,-5.3518,-5.3518,-5.3518,-5.3518,-5.3518,-5.3518,-5.3518,-5.3518,-5.3518,-5.3518,-5.3518,-5.4171,-5.5059,-5.578,-5.6421,-5.7065,-5.7821,-5.7997,-5.7997,-5.7997,-5.7997,-5.7997,-5.7997,-5.8143,-5.829,-5.829,-5.829,-5.8547,-5.9355,0.0,0.0,0.0,-5.9208,-5.9208,-5.9208,-5.9208,-5.9832,-6.1447,-6.1594,-6.1924,-6.2768,-6.2805,-6.2915,-6.3099,-6.3539,-6.398,-6.4347,-6.4971,-6.5411,-6.5595,-6.5595,-6.5999,-6.6769,-6.6769,-6.71,-6.7687,-6.7687,-6.7687,-6.7687,-6.7687,-6.7687,-6.7687,-6.7687,-6.732,-6.6769,-6.6769,-6.6659,-6.6512,-6.6696,-6.7026,-6.743,-5.9235,-5.9099,-5.9099,-5.9099,-5.8524,-5.8287,-5.8998,-5.8457,-5.822,-5.893,-5.8355,-5.7645,-5.6968,-5.6224,-5.5513,-5.4803,-5.4025,-5.3585,-5.3585,-5.3585,-5.3585,-5.3585,-5.3551,-5.3518,-5.3518,-5.2773,-5.2029,-5.1285,-5.2029,-5.2029,-5.1319,-5.2807,-5.3518,-5.3518,-5.3518,-5.3518,-5.3518,-5.3518,-5.3518,-5.3518,-5.3518,-5.3518,-5.3518,-5.3518,-5.3518,-5.3518,-5.3518,-5.3518,-5.3518,-5.3518,-5.3518,-5.3518,-5.3518,-5.3518,-5.3518,-5.3518,-5.4516,-5.578,-5.6616,-5.6861,-5.7065,-5.7821,-5.7997,-5.7997,-5.7997,-5.7997,-5.7997,-5.7997,-5.8584,-5.9134,-5.9134,-5.9134,-5.9391,-6.0199,0.0,0.0,-5.9208,-5.9208,-5.9208,-5.9208,-5.9208,-5.9832,-6.1447,-6.1594,-6.1924,-6.2768,-6.2805,-6.3172,-6.3943,-6.3319,-6.3613,-6.5154,-6.5264,-6.5668,-6.6402,-6.6402,-6.6806,-6.7614,-6.7614,-6.7614,-6.7687,-6.7687,-6.7687,-6.7687,-6.7687,-6.7687,-6.7687,-6.7687,-6.765,-6.7614,-6.7614,-6.7136,-6.6586,-6.732,-6.7173,-6.6696,-5.8355,-5.8321,-5.8321,-5.8321,-5.8084,-5.7983,-5.8287,-5.8084,-5.7983,-5.8287,-5.7679,-5.7103,-5.6833,-5.5716,-5.4905,-5.46,-5.3923,-5.3518,-5.3518,-5.3518,-5.3518,-5.3518,-5.3518,-5.3518,-5.3518,-5.3213,-5.2672,-5.1894,-5.2672,-5.2672,-5.1928,-5.301,-5.3518,-5.3484,-5.2976,-5.2773,-5.2739,-5.2266,-5.2334,-5.2773,-5.2773,-5.3044,-5.3518,-5.3518,-5.3518,-5.3518,-5.3518,-5.3518,-5.3518,-5.3518,-5.3518,-5.3518,-5.3518,-5.3518,-5.3685,-5.4606,-5.561,-5.6616,-5.7401,-5.7546,-5.7679,-5.795,-5.7997,-5.7997,-5.7997,-5.7997,-5.8143,-5.8657,-5.8988,-5.9355,-5.9869,-5.9942,-6.0052,-6.0346,0.0,-5.9942,-5.9942,-5.9942,-5.9942,-5.9942,-6.0382,-6.0933,-6.152,-6.2034,-6.2475,-6.2805,-6.3319,-6.3759,-6.4053,-6.4714,-6.5632,-6.6733,-6.6769,-6.6953,-6.7247,-6.7247,-6.7393,-6.7687,-6.7687,-6.7687,-6.7687,-6.7687,-6.7687,-6.7687,-6.7687,-6.7687,-6.7687,-6.7687,-6.7393,-6.6953,-6.6953,-6.6769,-6.6586,-6.7393,-6.7797,-6.8091,-5.7881,-5.7881,-5.7881,-5.7881,-5.7881,-5.7881,-5.7881,-5.7881,-5.7881,-5.7881,-5.7273,-5.6697,-5.6494,-5.5344,-5.4499,-5.4262,-5.3788,-5.3518,-5.3518,-5.3518,-5.3518,-5.3518,-5.3518,-5.3518,-5.3518,-5.3044,-5.2638,-5.23,-5.2638,-5.2604,-5.2334,-5.3112,-5.3382,-5.3112,-5.2536,-5.2164,-5.1961,-5.1657,-5.186,-5.2334,-5.257,-5.301,-5.3518,-5.3518,-5.3518,-5.3518,-5.3518,-5.3518,-5.3518,-5.3518,-5.3518,-5.3518,-5.3518,-5.3685,-5.4171,-5.561,-5.6474,-5.7065,-5.7774,-5.7997,-5.7997,-5.7997,-5.7997,-5.7997,-5.7997,-5.8217,-5.8547,-5.9098,-5.9612,-6.0126,-6.0676,-6.0786,-6.0786,-6.0786,-6.0566,-6.0419,-6.0419,-6.0419,-6.0493,-6.075,-6.1263,-6.1704,-6.1961,-6.2475,-6.2915,-6.3209,-6.3759,-6.42,-6.4457,-6.5999,-6.699,-6.7283,-6.7577,-6.7687,-6.7687,-6.7687,-6.7687,-6.7687,-6.7687,-6.7687,-6.7687,-6.7687,-6.7687,-6.7687,-6.7687,-6.7687,-6.7687,-6.7687,-6.7357,-6.688,-6.688,-6.688,-6.6953,-6.776,-6.8421,-6.8972,-5.7881,-5.7881,-5.7881,-5.7881,-5.7881,-5.7881,-5.7881,-5.7881,-5.7881,-5.7881,-5.7273,-5.6528,-5.5784,-5.504,-5.4296,-5.3551,-5.3518,-5.3518,-5.3518,-5.3518,-5.3518,-5.3518,-5.3518,-5.3518,-5.3484,-5.1995,-5.1589,-5.23,-5.1589,-5.1589,-5.2334,-5.3112,-5.3078,-5.23,-5.23,-5.1894,-5.1251,-5.1961,-5.23,-5.2367,-5.3179,-5.3484,-5.3518,-5.3518,-5.3518,-5.3518,-5.3518,-5.3518,-5.3518,-5.3518,-5.3518,-5.3518,-5.3518,-5.3977,-5.4939,-5.6456,-5.6912,-5.7065,-5.7774,-5.7997,-5.7997,-5.7997,-5.7997,-5.7997,-5.7997,-5.8621,-5.9208,-5.9208,-6.0493,-6.1594,-6.1594,-6.1594,-6.1594,-6.1594,-6.0933,-6.0419,-6.0419,-6.0419,-6.0713,-6.152,-6.1594,-6.1924,-6.2732,-6.2805,-6.3172,-6.4016,-6.409,-6.4457,-6.5301,-6.6843,-6.732,-6.6512,-6.7283,-6.7687,-6.7687,-6.7687,-6.7687,-6.7687,-6.7687,-6.7687,-6.7687,-6.7687,-6.7687,-6.7687,-6.7687,-6.7687,-6.7687,-6.7687,-6.7687,-6.7687,-6.7687,-6.7687,-6.7797,-6.8605,-6.8898,-6.8898,-5.7881,-5.7881,-5.7881,-5.7881,-5.7881,-5.7881,-5.7881,-5.7881,-5.7881,-5.7881,-5.7273,-5.6528,-5.5784,-5.504,-5.4296,-5.3551,-5.3518,-5.3518,-5.3518,-5.3518,-5.3518,-5.3518,-5.3518,-5.3247,-5.2672,-5.2198,-5.2097,-5.23,-5.2097,-5.2367,-5.3145,-5.2807,-5.2536,-5.2266,-5.1217,-5.0608,-5.0439,-5.0642,-5.1048,-5.1589,-5.2367,-5.301,-5.3518,-5.3518,-5.3518,-5.3518,-5.3518,-5.3518,-5.3518,-5.3518,-5.3518,-5.3618,-5.4106,-5.5179,-5.6313,-5.6757,-5.7302,-5.7726,-5.795,-5.7997,-5.7997,-5.7997,-5.7997,-5.7997,-5.7997,-5.8621,-5.9391,-5.9942,-6.086,-6.1777,-6.2365,-6.2438,-6.2254,-6.1704,-6.1887,-6.1887,-6.13,-6.1741,-6.2181,-6.2401,-6.2438,-6.2548,-6.2805,-6.3356,-6.3796,-6.4053,-6.5154,-6.6145,-6.6953,-6.743,-6.7577,-6.7357,-6.7577,-6.7687,-6.7687,-6.7687,-6.7687,-6.7687,-6.7687,-6.7687,-6.7724,-6.8274,-6.8238,-6.7724,-6.8311,-6.8201,-6.7687,-6.7687,-6.7687,-6.7687,-6.7687,-6.7687,-6.7797,-6.8605,-6.8898,-6.9026,-5.7814,-5.7881,-5.7881,-5.7881,-5.7881,-5.7881,-5.7881,-5.7645,-5.7442,-5.7442,-5.6562,-5.575,-5.531,-5.46,-5.3991,-5.3551,-5.3518,-5.3518,-5.3518,-5.3518,-5.3518,-5.3518,-5.3213,-5.2807,-5.23,-5.1725,-5.1725,-5.23,-5.2029,-5.2435,-5.3484,-5.2672,-5.2131,-5.1826,-5.0608,-5.0101,-5.0101,-5.0405,-5.098,-5.1725,-5.2469,-5.3078,-5.3518,-5.3518,-5.3518,-5.3518,-5.3518,-5.3518,-5.3518,-5.3518,-5.3651,-5.4106,-5.5179,-5.615,-5.6964,-5.7252,-5.7679,-5.7997,-5.7997,-5.7997,-5.7997,-5.7997,-5.7997,-5.7997,-5.7997,-5.8877,-5.9832,-6.0309,-6.13,-6.2218,-6.2732,-6.2805,-6.2658,-6.2144,-6.2475,-6.2658,-6.2144,-6.2511,-6.2805,-6.2805,-6.2805,-6.2805,-6.2805,-6.3282,-6.387,-6.453,-6.6072,-6.7173,-6.765,-6.7687,-6.7687,-6.7687,-6.7687,-6.7687,-6.7687,-6.7687,-6.7687,-6.7687,-6.8017,-6.8164,-6.8201,-6.9009,-6.9119,-6.8641,-6.8825,-6.8641,-6.8128,-6.7834,-6.7687,-6.7687,-6.7687,-6.7687,-6.7814,-6.8852,-6.9215,-6.9392,-5.7577,-5.7679,-5.7712,-5.778,-5.7746,-5.7712,-5.778,-5.7171,-5.6697,-5.6697,-5.5513,-5.4668,-5.46,-5.3991,-5.3585,-5.3518,-5.3518,-5.3518,-5.3518,-5.3518,-5.3484,-5.3416,-5.2638,-5.2164,-5.2097,-5.0845,-5.0845,-5.2198,-5.1623,-5.2063,-5.3484,-5.2604,-5.186,-5.1183,-5.0439,-5.0101,-5.0135,-5.098,-5.1691,-5.2367,-5.3179,-5.3518,-5.3484,-5.3416,-5.345,-5.3484,-5.3416,-5.345,-5.3518,-5.3518,-5.4042,-5.5059,-5.6367,-5.6912,-5.7116,-5.7774,-5.7997,-5.7997,-5.7997,-5.7997,-5.7997,-5.7997,-5.7997,-5.8033,-5.8107,-5.9318,-6.0419,-6.0493,-6.1741,-6.2805,-6.2805,-6.2805,-6.2805,-6.2805,-6.2805,-6.2805,-6.2805,-6.2805,-6.2805,-6.2805,-6.2805,-6.2805,-6.2805,-6.2879,-6.3613,-6.5301,-6.6769,-6.7614,-6.7687,-6.7614,-6.7614,-6.7687,-6.7614,-6.7614,-6.7687,-6.776,-6.7797,-6.7797,-6.8568,-6.8935,-6.9045,-6.9853,-7.0146,-6.9963,-6.9302,-6.8935,-6.8752,-6.7981,-6.7687,-6.7687,-6.7687,-6.7687,-6.7867,-6.9125,-6.9591,-6.9686,-5.6156,-5.619,-5.6359,-5.6934,-5.6562,-5.6393,-5.6934,-5.6427,-5.5953,-5.5953,-5.5683,-5.5243,-5.4668,-5.4465,-5.4126,-5.3551,-5.3518,-5.3518,-5.3518,-5.3518,-5.3213,-5.2604,-5.186,-5.1183,-5.0574,-5.0845,-5.1116,-5.1454,-5.186,-5.257,-5.3484,-5.2097,-5.1352,-5.1183,-5.0439,-5.0101,-5.0168,-5.1488,-5.2164,-5.2367,-5.3179,-5.3518,-5.345,-5.2807,-5.2942,-5.3416,-5.2807,-5.2976,-5.3518,-5.3518,-5.4791,-5.6313,-5.6059,-5.6789,-5.7774,-5.795,-5.7997,-5.7997,-5.7997,-5.7997,-5.7997,-5.7997,-5.7997,-5.818,-5.8804,-5.9722,-6.0566,-6.119,-6.2144,-6.2805,-6.2805,-6.2805,-6.2805,-6.2805,-6.2805,-6.2805,-6.2805,-6.2805,-6.2805,-6.2805,-6.2805,-6.2805,-6.2805,-6.3429,-6.4494,-6.6109,-6.6549,-6.7026,-6.765,-6.71,-6.7026,-6.765,-6.71,-6.7063,-6.7687,-6.8311,-6.8641,-6.8641,-6.8825,-6.9229,-6.9853,-7.0697,-7.0367,-6.9192,-6.9633,-6.9119,-6.7944,-6.776,-6.7687,-6.7687,-6.7687,-6.7687,-6.7794,-6.8494,-6.8772,-6.8875,-5.5649,-5.5716,-5.5852,-5.6224,-5.5987,-5.5852,-5.6224,-5.5649,-5.5175,-5.5175,-5.4871,-5.4499,-5.4126,-5.4059,-5.3923,-5.3551,-5.3518,-5.3518,-5.3518,-5.3518,-5.3145,-5.2334,-5.1589,-5.0845,-5.0101,-5.0845,-5.1217,-5.1217,-5.1589,-5.2367,-5.3484,-5.23,-5.1725,-5.1691,-5.0947,-5.0811,-5.1183,-5.1961,-5.2536,-5.2875,-5.2909,-5.2942,-5.2841,-5.2063,-5.2266,-5.2941,-5.2857,-5.361,-5.4606,-5.4974,-5.5872,-5.6912,-5.6825,-5.7364,-5.7997,-5.7997,-5.7997,-5.7997,-5.7997,-5.7997,-5.7997,-5.7997,-5.829,-5.8694,-5.9098,-5.9832,-6.0639,-6.141,-6.2254,-6.2805,-6.2805,-6.2805,-6.2805,-6.2805,-6.2805,-6.2805,-6.2805,-6.2805,-6.2805,-6.2805,-6.2805,-6.2805,-6.2805,-6.3576,-6.4604,-6.5852,-6.6292,-6.6843,-6.765,-6.7283,-6.7247,-6.7687,-6.7283,-6.7247,-6.7687,-6.8495,-6.9082,-6.9486,-6.9853,-7.0293,-7.0697,-7.1505,-7.1211,-7.0073,-7.0073,-6.9412,-6.8238,-6.7834,-6.7687,-6.7687,-6.7687,-6.7687,-6.781,-6.8567,-6.9231,-6.9738,-5.5209,-5.5344,-5.5378,-5.5513,-5.5412,-5.5378,-5.5513,-5.4905,-5.4397,-5.4397,-5.389,-5.3518,-5.3518,-5.3518,-5.3518,-5.3518,-5.3518,-5.3518,-5.3518,-5.3518,-5.3145,-5.2334,-5.1725,-5.098,-5.0101,-5.0845,-5.1217,-5.1217,-5.1488,-5.2266,-5.3484,-5.2672,-5.23,-5.2266,-5.1657,-5.1725,-5.23,-5.2469,-5.2875,-5.345,-5.2638,-5.23,-5.2232,-5.1488,-5.1722,-5.2592,-5.3253,-5.4513,-5.6004,-5.651,-5.6861,-5.7166,-5.7679,-5.7904,-5.7997,-5.7997,-5.7997,-5.7997,-5.7997,-5.7997,-5.7997,-5.7997,-5.8621,-5.9245,-5.9391,-6.0052,-6.0823,-6.163,-6.2365,-6.2805,-6.2805,-6.2805,-6.2805,-6.2805,-6.2805,-6.2805,-6.2805,-6.2805,-6.2805,-6.2805,-6.2805,-6.2805,-6.2805,-6.3576,-6.442,-6.5264,-6.6035,-6.6843,-6.765,-6.7577,-6.754,-6.7687,-6.7577,-6.7614,-6.7907,-6.8715,-6.9522,-7.0293,-7.0991,-7.1394,-7.1541,-7.2055,-7.1872,-7.1064,-7.0257,-6.9449,-6.8641,-6.7981,-6.7687,-6.7687,-6.7687,-6.7687,-6.781,-6.8891,-6.9992,-7.0898,-5.3788,-5.3822,-5.3991,-5.4634,-5.4228,-5.4025,-5.4634,-5.4126,-5.3653,-5.3653,-5.3551,-5.3518,-5.3518,-5.3518,-5.3518,-5.3518,-5.3518,-5.3518,-5.3518,-5.3518,-5.3145,-5.2334,-5.2198,-5.1522,-5.0135,-5.0845,-5.1217,-5.1217,-5.2536,-5.3315,-5.3484,-5.2672,-5.23,-5.23,-5.2198,-5.2198,-5.2367,-5.3044,-5.3416,-5.345,-5.2638,-5.23,-5.2232,-5.1488,-5.2072,-5.3376,-5.3498,-5.4895,-5.6668,-5.6059,-5.6737,-5.7774,-5.7252,-5.7498,-5.7997,-5.7997,-5.7997,-5.7997,-5.7997,-5.7997,-5.7997,-5.7997,-5.8621,-5.9391,-6.0089,-6.086,-6.1667,-6.2475,-6.2732,-6.2805,-6.2805,-6.2805,-6.2805,-6.2805,-6.2805,-6.2805,-6.2805,-6.2805,-6.2805,-6.2805,-6.2805,-6.2805,-6.2805,-6.3576,-6.442,-6.5264,-6.6035,-6.6843,-6.765,-6.7026,-6.699,-6.765,-6.7026,-6.732,-6.8715,-6.9522,-7.033,-7.1138,-7.1248,-7.1688,-7.2312,-7.1725,-7.1027,-7.022,-6.9412,-6.8605,-6.7834,-6.7724,-6.7687,-6.7687,-6.7687,-6.7687,-6.781,-6.8891,-6.9992,-7.0898,-5.3518,-5.3518,-5.3619,-5.3923,-5.3721,-5.3619,-5.3923,-5.3721,-5.3518,-5.3518,-5.3518,-5.3518,-5.3518,-5.3518,-5.3518,-5.3518,-5.3518,-5.3518,-5.3518,-5.3518,-5.3145,-5.2334,-5.23,-5.1792,-5.0744,-5.1454,-5.1826,-5.1826,-5.2503,-5.3078,-5.3484,-5.3145,-5.2976,-5.2976,-5.2976,-5.2976,-5.2976,-5.3348,-5.3247,-5.2773,-5.1995,-5.1691,-5.1688,-5.1377,-5.2157,-5.3653,-5.4917,-5.6328,-5.7449,-5.708,-5.7413,-5.795,-5.7631,-5.7726,-5.7997,-5.7997,-5.7997,-5.7997,-5.7997,-5.7997,-5.7997,-5.7997,-5.8951,-5.9979,-6.0309,-6.1374,-6.2365,-6.2732,-6.2805,-6.2805,-6.2805,-6.2805,-6.2805,-6.2805,-6.2805,-6.2805,-6.2805,-6.2805,-6.2805,-6.2805,-6.2805,-6.2989,-6.3466,-6.387,-6.4604,-6.5888,-6.6292,-6.6843,-6.765,-6.7357,-6.732,-6.7687,-6.7357,-6.7724,-6.8898,-6.9706,-7.0293,-7.066,-7.1101,-7.1725,-7.2459,-7.1211,-7.044,-7.0073,-6.9265,-6.8458,-6.7687,-6.7687,-6.7687,-6.7687,-6.7687,-6.8047,-6.866,-6.9148,-6.9992,-7.0898]},{"header":{"parameterUnit":"m.s-1","parameterCategory":1,"la1":30.6,"la2":28.766,"lo1":-90.7593,"lo2":-88.6598,"dy":0.0162,"dx":0.0183,"nx":116,"ny":114,"refTime":"2023-03-16T18:00:00:Z","depth":0,"parameterNumber":3,"parameterNumberName":"V-component_of_WINDS"},"data":[0.0,0.0,0.0,0.0,0.0,0.0,0.0,0.0,0.0,0.0,0.0,0.0,0.0,0.0,0.0,0.0,0.0,0.0,0.0,0.0,0.0,0.0,0.0,0.0,0.0,0.0,0.0,0.0,0.0,0.0,0.0,0.0,0.0,0.0,0.0,0.0,0.0,0.0,0.0,0.0,0.0,0.0,0.0,0.0,0.0,0.0,0.0,0.0,0.0,0.0,0.0,0.0,0.0,0.0,0.0,0.0,0.0,0.0,0.0,0.0,0.0,0.0,0.0,0.0,0.0,0.0,0.0,0.0,0.0,0.0,0.0,0.0,0.0,0.0,0.0,0.0,0.0,0.0,0.0,0.0,0.0,0.0,0.0,0.0,0.0,0.0,0.0,0.0,0.0,0.0,0.0,0.0,0.0,0.0,0.0,0.0,0.0,0.0,0.0,0.0,0.0,0.0,0.0,0.0,0.0,0.0,0.0,0.0,0.0,0.0,0.0,0.0,0.0,0.0,0.0,0.0,0.0,0.0,0.0,0.0,0.0,0.0,0.0,0.0,0.0,0.0,0.0,0.0,0.0,0.0,0.0,0.0,0.0,0.0,0.0,0.0,0.0,0.0,0.0,0.0,0.0,0.0,0.0,0.0,0.0,0.0,0.0,0.0,0.0,0.0,0.0,0.0,0.0,0.0,0.0,0.0,0.0,0.0,0.0,0.0,0.0,0.0,0.0,0.0,0.0,0.0,0.0,0.0,0.0,0.0,0.0,0.0,0.0,0.0,0.0,0.0,0.0,0.0,0.0,0.0,0.0,0.0,0.0,0.0,0.0,0.0,0.0,0.0,0.0,0.0,0.0,0.0,0.0,0.0,0.0,0.0,0.0,0.0,0.0,0.0,0.0,0.0,0.0,0.0,0.0,0.0,0.0,0.0,0.0,0.0,0.0,0.0,0.0,0.0,0.0,0.0,0.0,0.0,0.0,0.0,0.0,0.0,0.0,0.0,0.0,0.0,0.0,0.0,0.0,0.0,0.0,0.0,0.0,0.0,0.0,0.0,0.0,0.0,0.0,0.0,0.0,0.0,0.0,0.0,0.0,0.0,0.0,0.0,0.0,0.0,0.0,0.0,0.0,0.0,0.0,0.0,0.0,0.0,0.0,0.0,0.0,0.0,0.0,0.0,0.0,0.0,0.0,0.0,0.0,0.0,0.0,0.0,0.0,0.0,0.0,0.0,0.0,0.0,0.0,0.0,0.0,0.0,0.0,0.0,0.0,0.0,0.0,0.0,0.0,0.0,0.0,0.0,0.0,0.0,0.0,0.0,0.0,0.0,0.0,0.0,0.0,0.0,0.0,0.0,0.0,0.0,0.0,0.0,0.0,0.0,0.0,0.0,0.0,0.0,0.0,0.0,0.0,0.0,0.0,0.0,0.0,0.0,0.0,0.0,0.0,0.0,0.0,0.0,0.0,0.0,0.0,0.0,0.0,0.0,0.0,0.0,0.0,0.0,0.0,0.0,0.0,0.0,0.0,0.0,0.0,0.0,0.0,0.0,0.0,0.0,0.0,0.0,0.0,0.0,0.0,0.0,0.0,0.0,0.0,0.0,0.0,0.0,0.0,0.0,0.0,0.0,0.0,0.0,0.0,0.0,0.0,0.0,0.0,0.0,0.0,0.0,0.0,0.0,0.0,0.0,0.0,0.0,0.0,0.0,0.0,0.0,0.0,0.0,0.0,0.0,0.0,0.0,0.0,0.0,0.0,0.0,0.0,0.0,0.0,0.0,0.0,0.0,0.0,0.0,0.0,0.0,0.0,0.0,0.0,0.0,0.0,0.0,0.0,0.0,0.0,0.0,0.0,0.0,0.0,0.0,0.0,0.0,0.0,0.0,0.0,0.0,0.0,0.0,0.0,0.0,0.0,0.0,0.0,0.0,0.0,0.0,0.0,0.0,0.0,0.0,0.0,0.0,0.0,0.0,0.0,0.0,0.0,0.0,0.0,0.0,0.0,0.0,0.0,0.0,0.0,0.0,0.0,0.0,0.0,0.0,0.0,0.0,0.0,0.0,0.0,0.0,0.0,0.0,0.0,0.0,0.0,0.0,0.0,0.0,0.0,0.0,0.0,0.0,0.0,0.0,0.0,0.0,0.0,0.0,0.0,0.0,0.0,0.0,0.0,0.0,0.0,0.0,0.0,0.0,0.0,0.0,0.0,0.0,0.0,0.0,0.0,0.0,0.0,0.0,0.0,0.0,0.0,0.0,0.0,0.0,0.0,0.0,0.0,0.0,0.0,0.0,0.0,0.0,0.0,0.0,0.0,0.0,0.0,0.0,0.0,0.0,0.0,0.0,0.0,0.0,0.0,0.0,0.0,0.0,0.0,0.0,0.0,0.0,0.0,0.0,0.0,0.0,0.0,0.0,0.0,0.0,0.0,0.0,0.0,0.0,0.0,0.0,0.0,0.0,0.0,0.0,0.0,0.0,0.0,0.0,0.0,0.0,0.0,0.0,0.0,0.0,0.0,0.0,0.0,0.0,0.0,0.0,0.0,0.0,0.0,0.0,0.0,0.0,0.0,0.0,0.0,0.0,0.0,0.0,0.0,0.0,0.0,0.0,0.0,0.0,0.0,0.0,0.0,0.0,0.0,0.0,0.0,0.0,0.0,0.0,0.0,0.0,0.0,0.0,0.0,0.0,0.0,0.0,0.0,0.0,0.0,0.0,0.0,0.0,0.0,0.0,0.0,0.0,0.0,0.0,0.0,0.0,0.0,0.0,0.0,0.0,0.0,0.0,0.0,0.0,0.0,0.0,0.0,0.0,0.0,0.0,0.0,0.0,0.0,0.0,0.0,0.0,0.0,0.0,0.0,0.0,0.0,0.0,0.0,0.0,0.0,0.0,0.0,0.0,0.0,0.0,0.0,0.0,0.0,0.0,0.0,0.0,0.0,0.0,0.0,0.0,0.0,0.0,0.0,0.0,0.0,0.0,0.0,0.0,0.0,0.0,0.0,0.0,0.0,0.0,0.0,0.0,0.0,0.0,0.0,0.0,0.0,0.0,0.0,0.0,0.0,0.0,0.0,0.0,0.0,0.0,0.0,0.0,0.0,0.0,0.0,0.0,0.0,0.0,0.0,0.0,0.0,0.0,0.0,0.0,0.0,0.0,0.0,0.0,0.0,0.0,0.0,0.0,0.0,0.0,0.0,0.0,0.0,0.0,0.0,0.0,0.0,0.0,0.0,0.0,0.0,0.0,0.0,0.0,0.0,0.0,0.0,0.0,0.0,0.0,0.0,0.0,0.0,0.0,0.0,0.0,0.0,0.0,0.0,0.0,0.0,0.0,0.0,0.0,0.0,0.0,0.0,0.0,0.0,0.0,0.0,0.0,0.0,0.0,0.0,0.0,0.0,0.0,0.0,0.0,0.0,0.0,0.0,0.0,0.0,0.0,0.0,0.0,0.0,0.0,0.0,0.0,0.0,0.0,0.0,0.0,0.0,0.0,0.0,0.0,0.0,0.0,0.0,0.0,0.0,0.0,0.0,0.0,0.0,0.0,0.0,0.0,0.0,0.0,0.0,0.0,0.0,0.0,0.0,0.0,0.0,0.0,0.0,0.0,0.0,0.0,0.0,0.0,0.0,0.0,0.0,0.0,0.0,0.0,0.0,0.0,0.0,0.0,0.0,0.0,0.0,0.0,0.0,0.0,0.0,0.0,0.0,0.0,0.0,0.0,0.0,0.0,0.0,0.0,0.0,0.0,0.0,0.0,0.0,0.0,0.0,0.0,0.0,0.0,0.0,0.0,0.0,0.0,0.0,0.0,0.0,0.0,0.0,0.0,0.0,0.0,0.0,0.0,0.0,0.0,0.0,0.0,0.0,0.0,0.0,0.0,0.0,0.0,0.0,0.0,0.0,0.0,0.0,0.0,0.0,0.0,0.0,0.0,0.0,0.0,0.0,0.0,0.0,0.0,0.0,0.0,0.0,0.0,0.0,0.0,0.0,0.0,0.0,0.0,0.0,0.0,0.0,0.0,0.0,0.0,0.0,0.0,0.0,0.0,0.0,0.0,0.0,0.0,0.0,0.0,0.0,0.0,0.0,0.0,0.0,0.0,0.0,0.0,0.0,0.0,0.0,0.0,0.0,0.0,0.0,0.0,0.0,0.0,0.0,0.0,0.0,0.0,0.0,0.0,0.0,0.0,0.0,0.0,0.0,0.0,0.0,0.0,0.0,0.0,0.0,0.0,0.0,0.0,0.0,0.0,0.0,0.0,0.0,0.0,0.0,0.0,0.0,0.0,0.0,0.0,0.0,0.0,0.0,0.0,0.0,0.0,0.0,0.0,0.0,0.0,0.0,0.0,0.0,0.0,0.0,0.0,0.0,0.0,0.0,0.0,0.0,0.0,0.0,0.0,0.0,0.0,0.0,0.0,0.0,0.0,0.0,0.0,0.0,0.0,0.0,0.0,0.0,0.0,0.0,0.0,0.0,0.0,0.0,0.0,0.0,0.0,0.0,0.0,0.0,0.0,0.0,0.0,0.0,0.0,0.0,0.0,0.0,0.0,0.0,0.0,0.0,0.0,0.0,0.0,0.0,0.0,0.0,0.0,0.0,0.0,0.0,0.0,0.0,0.0,0.0,0.0,0.0,0.0,0.0,0.0,0.0,0.0,0.0,0.0,0.0,0.0,0.0,0.0,0.0,0.0,0.0,0.0,0.0,0.0,0.0,0.0,0.0,0.0,0.0,0.0,0.0,0.0,0.0,0.0,0.0,0.0,0.0,0.0,0.0,0.0,0.0,0.0,0.0,0.0,0.0,0.0,0.0,0.0,0.0,0.0,0.0,0.0,0.0,0.0,0.0,0.0,0.0,0.0,0.0,0.0,0.0,0.0,0.0,0.0,0.0,0.0,0.0,0.0,0.0,0.0,0.0,0.0,0.0,0.0,0.0,0.0,0.0,0.0,0.0,0.0,0.0,0.0,0.0,0.0,0.0,0.0,0.0,0.0,0.0,0.0,0.0,0.0,0.0,0.0,0.0,0.0,0.0,0.0,0.0,0.0,0.0,0.0,0.0,0.0,0.0,0.0,0.0,0.0,0.0,0.0,0.0,0.0,0.0,0.0,0.0,0.0,0.0,0.0,0.0,0.0,0.0,0.0,0.0,0.0,0.0,0.0,0.0,0.0,0.0,0.0,0.0,0.0,0.0,0.0,0.0,0.0,0.0,0.0,0.0,0.0,0.0,0.0,0.0,0.0,0.0,0.0,0.0,0.0,0.0,0.0,0.0,0.0,0.0,0.0,0.0,0.0,0.0,0.0,0.0,0.0,0.0,0.0,0.0,0.0,0.0,0.0,0.0,0.0,0.0,0.0,0.0,0.0,0.0,0.0,0.0,0.0,0.0,0.0,0.0,0.0,0.0,0.0,0.0,0.0,0.0,0.0,0.0,0.0,0.0,0.0,0.0,0.0,0.0,0.0,0.0,0.0,0.0,0.0,0.0,0.0,0.0,0.0,0.0,0.0,0.0,0.0,0.0,0.0,0.0,0.0,0.0,0.0,0.0,0.0,0.0,0.0,0.0,0.0,0.0,0.0,0.0,0.0,0.0,0.0,0.0,0.0,0.0,0.0,0.0,0.0,0.0,0.0,0.0,0.0,0.0,0.0,0.0,0.0,0.0,0.0,0.0,0.0,0.0,0.0,0.0,0.0,0.0,0.0,0.0,0.0,0.0,0.0,0.0,0.0,0.0,0.0,0.0,0.0,0.0,0.0,0.0,0.0,0.0,0.0,0.0,0.0,0.0,0.0,0.0,0.0,0.0,0.0,0.0,0.0,0.0,0.0,0.0,0.0,0.0,0.0,0.0,0.0,0.0,0.0,0.0,0.0,0.0,0.0,0.0,0.0,0.0,0.0,0.0,0.0,0.0,0.0,0.0,0.0,0.0,0.0,0.0,0.0,0.0,0.0,0.0,0.0,0.0,0.0,0.0,0.0,0.0,0.0,0.0,0.0,0.0,0.0,0.0,0.0,0.0,0.0,0.0,0.0,0.0,0.0,0.0,0.0,0.0,0.0,0.0,0.0,0.0,0.0,0.0,0.0,0.0,0.0,0.0,0.0,0.0,0.0,-2.7894,0.0,0.0,0.0,0.0,0.0,0.0,0.0,0.0,0.0,0.0,0.0,0.0,0.0,0.0,0.0,0.0,0.0,0.0,0.0,0.0,0.0,0.0,0.0,0.0,0.0,0.0,0.0,0.0,0.0,0.0,0.0,0.0,0.0,0.0,0.0,0.0,0.0,0.0,0.0,-3.8789,-3.8164,-3.7383,-3.7728,-3.8782,-4.0547,0.0,0.0,0.0,0.0,0.0,0.0,0.0,0.0,0.0,0.0,0.0,0.0,0.0,0.0,0.0,0.0,0.0,0.0,0.0,0.0,0.0,0.0,0.0,0.0,0.0,0.0,0.0,0.0,0.0,0.0,0.0,0.0,0.0,0.0,0.0,0.0,0.0,0.0,0.0,0.0,0.0,0.0,0.0,0.0,0.0,0.0,0.0,0.0,0.0,0.0,0.0,0.0,0.0,0.0,0.0,0.0,0.0,0.0,0.0,0.0,0.0,0.0,0.0,0.0,0.0,0.0,0.0,0.0,0.0,0.0,0.0,-2.6921,0.0,0.0,0.0,0.0,0.0,0.0,0.0,0.0,0.0,0.0,0.0,0.0,0.0,0.0,0.0,0.0,0.0,0.0,0.0,0.0,0.0,0.0,0.0,0.0,-4.6982,-4.6861,-4.7209,-4.7332,0.0,0.0,0.0,0.0,0.0,0.0,0.0,-4.0144,-3.918,-3.8867,-3.7715,-3.668,-3.5781,-3.4016,-3.4948,-3.7951,-3.6728,0.0,0.0,0.0,0.0,0.0,0.0,0.0,0.0,0.0,0.0,0.0,0.0,0.0,0.0,0.0,0.0,0.0,0.0,0.0,0.0,0.0,0.0,0.0,0.0,0.0,0.0,0.0,0.0,0.0,0.0,0.0,0.0,0.0,0.0,0.0,0.0,0.0,0.0,0.0,0.0,0.0,0.0,0.0,0.0,0.0,0.0,0.0,0.0,0.0,0.0,0.0,0.0,0.0,0.0,0.0,0.0,0.0,0.0,0.0,0.0,0.0,0.0,0.0,-2.6279,-2.6507,-2.7375,-2.6587,-2.6239,-2.6226,-2.5985,-2.5745,-2.5571,-2.6293,0.0,0.0,0.0,0.0,0.0,0.0,0.0,0.0,0.0,0.0,0.0,0.0,0.0,0.0,0.0,0.0,0.0,0.0,0.0,0.0,0.0,-4.6702,-4.634,-4.6165,-4.5773,-4.5267,0.0,0.0,0.0,0.0,0.0,0.0,-3.9643,-3.9739,-3.9062,-3.7539,-3.5176,-3.4297,-3.4863,-3.2728,-3.2411,-3.3477,-3.2349,-3.355,-3.6183,0.0,0.0,0.0,0.0,0.0,0.0,0.0,0.0,0.0,0.0,0.0,0.0,0.0,0.0,0.0,0.0,0.0,0.0,0.0,0.0,0.0,0.0,0.0,0.0,0.0,0.0,0.0,0.0,0.0,0.0,0.0,0.0,0.0,0.0,0.0,0.0,0.0,0.0,0.0,0.0,0.0,-3.2809,-3.2534,0.0,0.0,0.0,0.0,0.0,0.0,0.0,0.0,0.0,0.0,0.0,0.0,0.0,-2.5879,-2.664,-2.6653,-2.6707,-2.6814,-2.6493,-2.6279,-2.6172,-2.5798,-2.5625,-2.5625,-2.5585,0.0,-2.5518,-2.5638,0.0,0.0,0.0,0.0,0.0,0.0,0.0,0.0,0.0,0.0,0.0,0.0,0.0,0.0,0.0,0.0,0.0,0.0,0.0,0.0,0.0,-4.533,-4.4398,-4.2696,-4.2511,-4.2431,-4.25,-4.1902,0.0,0.0,0.0,-4.0244,-3.9199,-3.8926,-3.7578,-3.5117,-3.3984,-3.3242,-3.291,-3.1262,-3.0809,-3.1371,-2.9929,-3.06,-3.2946,-3.3093,0.0,0.0,0.0,0.0,0.0,0.0,0.0,0.0,0.0,0.0,0.0,0.0,0.0,0.0,0.0,0.0,0.0,0.0,0.0,0.0,0.0,0.0,0.0,0.0,0.0,0.0,0.0,0.0,0.0,0.0,0.0,0.0,0.0,0.0,0.0,0.0,0.0,0.0,0.0,-3.3875,-3.204,-3.0611,-3.0473,-3.0588,0.0,0.0,0.0,0.0,0.0,0.0,0.0,0.0,0.0,-2.5758,-2.5758,-2.5945,-2.6333,-2.6333,-2.6587,-2.7068,-2.6774,-2.6734,-2.6921,-2.6627,-2.6493,-2.6493,-2.6493,-2.6213,-2.5745,-2.5585,-2.5464,-2.5438,0.0,0.0,0.0,0.0,-2.6867,-2.7495,0.0,0.0,0.0,0.0,0.0,0.0,0.0,0.0,0.0,0.0,0.0,0.0,-4.4577,-4.3346,-4.183,-3.9477,-3.9321,-3.956,-4.0258,-3.9403,0.0,0.0,0.0,-3.9492,-3.9375,-3.8008,-3.6016,-3.3418,-3.2565,-3.1961,-3.1245,-2.9904,-2.9651,-2.9983,-2.8816,-2.9178,-3.0623,-3.122,-3.2715,-3.4972,0.0,0.0,0.0,0.0,0.0,0.0,0.0,0.0,0.0,0.0,0.0,0.0,0.0,0.0,0.0,0.0,0.0,0.0,0.0,0.0,0.0,0.0,0.0,0.0,0.0,0.0,0.0,0.0,0.0,0.0,0.0,0.0,0.0,0.0,0.0,0.0,0.0,-3.3197,-3.1005,-2.9183,-2.8818,-2.8642,0.0,0.0,0.0,0.0,0.0,0.0,-2.6208,-2.6066,-2.6066,-2.6066,-2.6066,-2.6172,-2.64,-2.64,-2.6774,-2.7495,-2.7268,-2.7388,-2.7802,-2.7589,-2.7442,-2.7375,-2.7295,-2.6814,-2.6039,-2.5745,-2.5277,-2.4796,-2.5317,-2.5384,-2.5251,-2.5772,-2.5865,-2.5732,0.0,0.0,0.0,0.0,0.0,0.0,0.0,0.0,0.0,0.0,0.0,-4.3697,-4.4079,-4.0964,-3.8596,-3.7635,-3.717,-3.7011,-3.749,-3.7387,-3.8171,-3.9896,-4.0234,-4.0273,-3.9863,-3.7012,-3.4824,-3.3418,-3.0538,-2.9653,-3.0552,-2.9014,-2.8627,-2.929,-2.929,-2.946,-2.9799,-3.099,-3.2114,-3.3011,-3.5256,0.0,0.0,0.0,0.0,0.0,0.0,0.0,0.0,0.0,0.0,0.0,0.0,0.0,0.0,0.0,0.0,0.0,0.0,0.0,0.0,0.0,0.0,0.0,0.0,0.0,0.0,0.0,0.0,0.0,0.0,0.0,0.0,0.0,0.0,0.0,0.0,0.0,0.0,-2.9724,-2.7364,0.0,0.0,0.0,0.0,-2.6128,-2.6598,-2.6786,-2.6373,-2.6373,-2.6373,-2.6373,-2.6373,-2.6774,-2.7602,-2.7615,-2.7776,-2.8096,-2.8083,-2.8096,-2.8123,-2.811,-2.7949,-2.7669,-2.7388,-2.6921,-2.6346,-2.6052,-2.5585,-2.509,-2.5398,-2.5504,-2.5531,-2.5838,-2.5598,-2.513,0.0,0.0,0.0,0.0,0.0,0.0,0.0,0.0,-4.7255,-4.7581,-4.5379,-4.3636,-4.2997,-3.9343,-3.6444,-3.4952,-3.4202,-3.4133,-3.4707,-3.5859,-3.6992,-3.8184,-3.9453,-3.9141,-3.7051,-3.5117,-3.295,-3.0538,-3.0121,-2.959,-2.8952,-2.8776,-2.9665,-3.1405,-3.165,-3.1753,-3.1608,-3.1522,-3.1697,-3.2102,-3.4011,-3.5527,0.0,0.0,0.0,0.0,0.0,0.0,0.0,0.0,0.0,0.0,0.0,0.0,0.0,0.0,0.0,0.0,0.0,0.0,0.0,0.0,0.0,0.0,0.0,0.0,0.0,0.0,0.0,0.0,0.0,0.0,0.0,0.0,0.0,0.0,0.0,0.0,0.0,-2.9421,-2.7905,0.0,-2.6373,-2.6533,-2.6627,-2.652,-2.636,-2.6386,-2.6653,-2.6667,-2.6841,-2.7215,-2.7228,-2.7468,-2.7976,-2.7989,-2.8043,-2.8136,-2.8136,-2.8136,-2.8136,-2.8136,-2.8083,-2.7976,-2.7869,-2.7602,-2.7215,-2.6921,-2.6119,-2.509,-2.5197,-2.5117,-2.4983,-2.5277,-2.5264,-2.5104,0.0,0.0,0.0,0.0,0.0,0.0,0.0,0.0,-4.7134,-4.6563,-4.4491,-4.2302,-4.0507,-3.7061,-3.4309,-3.3113,-3.248,-3.2832,-3.4414,-3.5605,-3.6953,-3.8535,-3.9004,-3.7891,-3.5,-3.4082,-3.2623,-3.0377,-3.0665,-3.046,-2.9529,-3.0157,-3.1323,-3.299,-3.4103,-3.4343,-3.4053,-3.3248,-3.2353,-3.1447,-3.3034,-3.4687,-3.6191,0.0,0.0,0.0,0.0,0.0,0.0,0.0,0.0,0.0,0.0,0.0,0.0,0.0,0.0,0.0,0.0,0.0,0.0,0.0,0.0,0.0,0.0,0.0,0.0,0.0,0.0,0.0,0.0,0.0,0.0,0.0,0.0,0.0,0.0,0.0,-2.9284,-2.9718,-2.8459,-2.7402,-2.7001,-2.6974,-2.6934,-2.6827,-2.6653,-2.676,-2.7241,-2.7268,-2.7442,-2.7843,-2.7843,-2.7949,-2.8136,-2.8136,-2.8136,-2.8136,-2.8136,-2.8136,-2.8136,-2.8136,-2.8136,-2.8136,-2.803,-2.7883,-2.7682,-2.7388,-2.664,-2.5665,-2.5665,-2.5424,-2.513,-2.5518,-2.5611,-2.5518,0.0,0.0,0.0,0.0,0.0,0.0,0.0,-4.7205,-4.696,-4.4223,-4.2094,-3.9788,-3.7125,-3.4023,-3.2207,-3.2207,-3.2226,-3.3476,-3.6426,-3.666,-3.8008,-4.0937,-3.8984,-3.6641,-3.4121,-3.4082,-3.3867,-3.3311,-3.2023,-3.1817,-3.2456,-3.299,-3.3526,-3.3925,-3.6246,-3.707,-3.6641,-3.6211,-3.407,-3.1047,-3.2344,-3.3828,-3.5391,0.0,0.0,0.0,0.0,0.0,0.0,0.0,0.0,0.0,0.0,0.0,0.0,0.0,0.0,0.0,0.0,0.0,0.0,0.0,0.0,0.0,0.0,0.0,0.0,0.0,0.0,0.0,0.0,0.0,0.0,0.0,0.0,0.0,-3.1861,-3.0467,-2.9546,-3.0186,-2.8543,-2.7068,-2.6493,-2.6961,-2.7175,-2.6894,-2.7402,-2.7856,-2.8136,-2.8163,-2.815,-2.8136,-2.8136,-2.8136,-2.8136,-2.8136,-2.8136,-2.8136,-2.8136,-2.8136,-2.8136,-2.8136,-2.8136,-2.8123,-2.7843,-2.7709,-2.7696,-2.7402,-2.7108,-2.6854,-2.6827,-2.6466,-2.6039,-2.66,-2.6627,-2.6306,0.0,0.0,0.0,0.0,0.0,0.0,0.0,-4.6903,-4.6563,-4.4175,-4.1793,-3.9543,-3.7529,-3.475,-3.3086,-3.3086,-3.3359,-3.4023,-3.5176,-3.6426,-3.7637,-3.8769,-3.6738,-3.5117,-3.4101,-3.4082,-3.334,-3.1893,-3.2175,-3.1802,-3.1022,-3.1537,-3.2646,-3.4341,-3.5336,-3.601,-3.666,-3.6543,-3.5569,-3.4068,-3.3417,-3.373,-3.4453,0.0,0.0,0.0,0.0,0.0,0.0,0.0,0.0,0.0,0.0,0.0,0.0,0.0,0.0,0.0,0.0,0.0,0.0,0.0,0.0,0.0,0.0,0.0,0.0,0.0,0.0,0.0,0.0,0.0,0.0,0.0,0.0,-2.9854,-3.0038,-2.8675,-2.7616,-2.8015,-2.796,-2.7843,-2.7669,-2.7802,-2.7963,-2.811,-2.827,-2.839,-2.847,-2.8484,-2.8377,-2.815,-2.8136,-2.8136,-2.8136,-2.8136,-2.8136,-2.8136,-2.8136,-2.8136,-2.8136,-2.8136,-2.8136,-2.8136,-2.8056,-2.8016,-2.8003,-2.7696,-2.7535,-2.7415,-2.6987,-2.66,-2.6293,-2.6453,-2.6453,-2.6306,0.0,0.0,0.0,0.0,0.0,0.0,0.0,-4.6954,-4.6143,-4.2386,-4.1136,-3.9405,-3.5956,-3.4226,-3.3418,-3.3418,-3.416,-3.4961,-3.5742,-3.7226,-3.7559,-3.6367,-3.5469,-3.4609,-3.3809,-3.4336,-3.4085,-3.3123,-3.3979,-3.4066,-3.3124,-3.3679,-3.4648,-3.5931,-3.6342,-3.677,-3.7187,-3.7187,-3.6699,-3.5859,-3.5098,-3.4824,-3.4863,-3.4687,-3.5527,-3.6777,-3.6426,-3.6562,-3.6716,-3.5582,0.0,0.0,0.0,0.0,0.0,0.0,0.0,0.0,0.0,0.0,0.0,0.0,0.0,0.0,0.0,0.0,0.0,0.0,0.0,0.0,0.0,0.0,0.0,0.0,-3.0236,-2.9336,-2.8962,-2.785,-2.7215,-2.7762,-2.8016,-2.8243,-2.8497,-2.8404,-2.8457,-2.8764,-2.8671,-2.8604,-2.8604,-2.8484,-2.839,-2.8337,-2.8217,-2.8203,-2.8337,-2.8203,-2.8136,-2.8136,-2.8136,-2.8136,-2.8136,-2.8136,-2.8136,-2.8136,-2.8136,-2.8136,-2.8123,-2.7963,-2.7816,0.0,0.0,0.0,0.0,0.0,-2.6413,-2.6146,0.0,0.0,0.0,0.0,0.0,0.0,0.0,-4.7032,-4.5575,-4.0053,-4.0343,-3.9038,-3.344,-3.3242,-3.3476,-3.3418,-3.4668,-3.5996,-3.7226,-3.8223,-3.7402,-3.4355,-3.4922,-3.4766,-3.3594,-3.4863,-3.5547,-3.5547,-3.6719,-3.7129,-3.6836,-3.7578,-3.7949,-3.8008,-3.8398,-3.834,-3.793,-3.793,-3.75,-3.6816,-3.6816,-3.6504,-3.5976,-3.5605,-3.6406,-3.7617,-3.6875,-3.6836,-3.6693,-3.4128,0.0,0.0,0.0,0.0,0.0,0.0,0.0,0.0,0.0,0.0,0.0,0.0,0.0,0.0,0.0,0.0,0.0,0.0,0.0,0.0,0.0,0.0,0.0,0.0,-2.9851,-2.9177,-2.846,-2.7789,-2.7762,-2.8564,-2.8417,-2.8457,-2.8991,-2.8804,-2.8778,-2.9072,-2.8845,-2.8711,-2.8711,0.0,0.0,0.0,0.0,-2.827,-2.8551,-2.8283,-2.8136,-2.8136,-2.8136,-2.8136,-2.8136,-2.8136,-2.8136,-2.8136,-2.8136,-2.8136,-2.8136,-2.8136,-2.7989,-2.7736,-2.7642,-2.7442,-2.7175,-2.6881,-2.6426,-2.5919,0.0,0.0,0.0,0.0,0.0,0.0,0.0,-4.555,-4.3765,-4.0241,-3.9122,-3.7186,-3.3709,-3.3691,-3.3809,-3.3457,-3.4941,-3.6289,-3.7226,-3.6562,-3.584,-3.5176,-3.4941,-3.4707,-3.4453,-3.5742,-3.6426,-3.6426,-3.7012,-3.7422,-3.7676,-3.7851,-3.8105,-3.8457,-3.8535,-3.834,-3.793,-3.793,-3.7832,-3.7676,-3.7676,-3.7012,-3.6016,-3.5937,-3.6094,-3.6367,-3.6211,-3.6191,-3.623,-3.5549,-3.332,-3.1005,-3.1961,-3.0093,0.0,0.0,0.0,0.0,0.0,0.0,0.0,0.0,0.0,0.0,0.0,0.0,0.0,0.0,0.0,0.0,0.0,0.0,0.0,-3.1271,-2.9703,-2.8615,-2.8778,-2.8764,-2.8764,-2.8938,-2.8898,-2.8911,-2.9032,-2.8991,-2.9085,-2.9379,-2.9339,-2.9312,-2.9312,-2.9032,-2.8791,-2.8617,-2.831,-2.8177,-2.823,-2.8177,-2.8136,-2.8136,0.0,0.0,-2.8136,-2.8136,-2.8136,-2.8136,-2.8136,-2.8136,-2.8136,-2.8136,-2.811,-2.7989,-2.7268,-2.6961,-2.6867,-2.6587,-2.6253,-2.5919,0.0,0.0,0.0,0.0,0.0,0.0,0.0,-4.639,-4.4798,-4.1057,-4.0625,-3.9141,-3.5107,-3.5293,-3.5605,-3.5391,-3.6152,-3.6836,-3.7266,-3.6289,-3.5508,-3.5059,-3.5254,-3.5469,-3.5684,-3.6738,-3.7187,-3.6992,-3.7617,-3.793,-3.793,-3.8144,-3.8359,-3.8574,-3.8574,-3.8457,-3.8262,-3.8476,-3.8555,-3.8594,-3.8809,-3.8535,-3.791,-3.7461,-3.7168,-3.6934,-3.6738,-3.6523,-3.6132,-3.485,-3.3139,-3.1409,-3.0249,-2.8646,-2.6929,0.0,0.0,0.0,0.0,0.0,0.0,0.0,0.0,0.0,0.0,0.0,0.0,0.0,0.0,-3.2585,0.0,0.0,-3.0349,-3.0326,-2.948,-2.8965,-2.9419,-2.9606,-2.9593,-2.9299,-2.9259,-2.9379,-2.9673,-2.97,-2.982,-3.0114,-2.9873,-2.97,-2.97,-2.9138,-2.8818,-2.8818,-2.8377,-2.8217,-2.8377,-2.8217,-2.8136,-2.8136,-2.8136,-2.8136,-2.8136,-2.8136,-2.8136,-2.8136,-2.8136,-2.8136,-2.8136,-2.8136,-2.8136,-2.807,-2.7335,-2.7041,-2.6987,-2.6547,-2.6106,-2.5718,0.0,0.0,0.0,0.0,0.0,0.0,0.0,-4.691,-4.5556,-4.1897,-4.1883,-4.0571,-3.6405,-3.6641,-3.7187,-3.7519,-3.7168,-3.707,-3.7402,-3.6387,-3.5527,-3.498,-3.5723,-3.6348,-3.6777,-3.7539,-3.7754,-3.7422,-3.8203,-3.8398,-3.8066,-3.8418,-3.8574,-3.8574,-3.8574,-3.8613,-3.8711,-3.9062,-3.9297,-3.9492,-3.9863,-4.0078,-4.0059,-3.9355,-3.8769,-3.8242,-3.7812,-3.7344,-3.6658,-3.4527,-3.3486,-3.2516,-2.9639,-2.8064,-2.7152,-2.6164,-2.5882,0.0,0.0,0.0,0.0,0.0,0.0,0.0,0.0,0.0,-3.2382,-3.2317,-3.1836,-3.129,-3.0895,-3.0622,-3.014,-2.9326,-2.9499,-2.9753,-3.0047,-3.0287,-3.0274,-2.9793,-2.974,-2.9927,-3.0394,-3.0394,-3.0474,-3.0768,-3.0301,-3.0007,-3.0007,-2.9272,-2.8911,-2.9032,-2.8511,-2.8323,-2.8511,-2.827,-2.8136,-2.8136,-2.8136,-2.8136,-2.8136,-2.8136,-2.8136,-2.8136,-2.8136,-2.8136,-2.8136,-2.8136,-2.8136,-2.8083,-2.7495,-2.7268,-2.7201,-2.66,-2.6012,-2.5518,0.0,0.0,0.0,0.0,0.0,0.0,0.0,0.0,-4.2809,-4.2028,-3.9574,-3.7411,-3.6113,-3.6113,-3.6777,-3.8301,-3.6699,-3.625,-3.7754,-3.5957,-3.5156,-3.584,-3.6348,-3.6797,-3.7226,-3.7676,-3.791,-3.7851,-3.834,-3.8555,-3.8496,-3.8555,-3.8574,-3.8574,-3.8574,-3.8789,-3.9141,-3.918,-3.9648,-4.0371,-4.043,-4.0684,-4.1016,-4.0918,-4.0371,-3.9609,-3.916,-3.8476,-3.7773,-3.7371,-3.5661,-3.3675,-3.3875,-3.1148,-2.8086,-2.8313,0.0,-2.8384,-3.0713,-3.2474,0.0,-3.4885,-3.3552,-3.2375,0.0,0.0,-3.0484,-3.133,-3.0058,-2.881,-2.9149,-2.946,-2.9839,-3.0114,-3.0234,-3.0368,-3.0648,-3.0728,-3.0715,-3.0648,-3.0648,-3.0675,-3.0742,-3.0515,-3.0474,-3.0768,-3.0488,-3.0314,-3.0314,-2.9967,-2.9539,-2.9058,-2.8724,-2.8444,-2.819,-2.8163,-2.8136,-2.8136,-2.8136,-2.8136,-2.8136,-2.8136,-2.8136,-2.8136,-2.8136,-2.8136,-2.8136,-2.8136,-2.8136,-2.8083,-2.7495,-2.7268,-2.7201,-2.66,-2.6012,-2.5518,0.0,0.0,0.0,0.0,0.0,0.0,0.0,0.0,0.0,-4.1542,-4.0599,-3.9515,-3.8053,-3.8105,-3.8672,-3.9629,-3.7519,-3.6758,-3.8203,-3.6289,-3.5605,-3.6719,-3.7168,-3.7598,-3.8027,-3.8203,-3.8418,-3.8672,-3.8613,-3.8848,-3.9336,-3.9062,-3.9082,-3.9336,-3.9336,-3.9434,-3.9629,-3.9863,-4.0176,-4.0547,-4.0801,-4.1016,-4.1152,-4.0898,-4.0254,-3.9492,-3.957,-3.9043,0.0,-3.7734,-3.6893,-3.601,-3.4536,-3.3016,-3.1689,-3.074,-3.0283,0.0,-3.0042,0.0,0.0,0.0,-3.0479,-3.0345,-3.0052,-2.9367,-2.8767,-2.9327,-2.9084,-2.9349,-3.1322,-3.0834,-3.0655,0.0,-3.1647,-3.0969,-3.1263,-3.1303,-3.1236,-3.1062,-3.1196,-3.1236,-3.1062,-3.1089,-3.1169,-3.1289,-3.1036,-3.0795,-3.0621,-3.0007,-2.9472,-2.9058,-2.8577,-2.827,-2.8136,-2.8136,-2.8136,-2.8136,-2.8136,-2.8136,-2.8136,-2.8136,-2.8136,-2.8136,-2.8136,-2.8136,-2.8123,-2.7949,-2.7883,-2.7829,-2.7241,-2.7001,-2.6934,-2.6346,-2.5879,-2.5491,0.0,0.0,0.0,0.0,0.0,0.0,0.0,0.0,0.0,0.0,-4.1004,-4.0573,-3.9171,-3.9434,-3.9824,-4.0137,-3.834,-3.748,-3.8184,-3.666,-3.6152,-3.709,-3.7637,-3.8184,-3.873,-3.8867,-3.9082,-3.9394,-3.9082,-3.9277,-3.9883,-3.9551,-3.957,-3.9902,-3.9902,-3.9961,-4.0098,-4.0391,-4.0586,-4.0723,-4.1035,-4.1094,-4.0937,-4.0371,-3.9766,-3.9238,-3.959,-3.9062,-3.8164,-3.7773,-3.7773,-3.7565,-3.5694,-3.4883,-3.4432,-3.3186,-3.2436,-3.176,-3.078,0.0,0.0,-2.8612,-2.8081,-2.8404,-2.7554,-2.7682,-2.8083,-2.8537,-2.9045,-3.0246,-3.3383,-3.2693,-3.2267,-3.4275,-3.3314,-3.2148,-3.1826,-3.1597,-3.1436,-3.1142,-3.1223,-3.1223,-3.1009,-3.133,-3.1583,-3.1664,-3.1316,-3.1009,-3.0808,-3.0114,-2.9513,-2.9058,-2.8617,-2.831,-2.8136,-2.8136,-2.8136,-2.8136,-2.8136,-2.8136,-2.8136,-2.8136,-2.8136,-2.8136,-2.8136,-2.8136,-2.8123,-2.7909,-2.7776,-2.7642,-2.7134,-2.6894,-2.6747,-2.6172,-2.5772,-2.5478,0.0,0.0,0.0,0.0,0.0,0.0,0.0,0.0,0.0,0.0,0.0,0.0,0.0,-3.8965,-3.9238,-3.9238,-3.8789,-3.8184,-3.7383,-3.6894,-3.6641,-3.668,-3.748,-3.832,-3.916,-3.9629,-3.9863,-3.9883,-3.9863,-3.9863,-3.9902,-3.9883,-3.9883,-3.9902,-3.9902,-4.0117,-4.0508,-4.0508,-4.0762,-4.1152,-4.1172,-4.0918,-4.0449,-3.957,-3.9219,-3.9199,-3.9219,-3.8418,-3.7461,-3.8262,-3.8262,-3.8066,-3.872,-3.7179,0.0,-3.5258,-3.454,0.0,0.0,0.0,-3.06,-2.9064,-2.7664,-2.6773,-2.7482,-2.815,-2.8831,-2.9686,-3.01,-3.1122,-3.3916,-3.4591,-3.4815,-3.483,-3.5099,-3.4406,-3.2043,-3.1423,-3.1129,-3.0835,-3.0568,-3.0394,0.0,-3.0902,-3.1356,-3.165,-3.1129,-3.0808,-3.0795,-3.0501,-2.994,-2.9072,-2.9018,-2.8738,-2.815,-2.8136,-2.8136,-2.8136,-2.8136,-2.8136,-2.8136,-2.8136,-2.8136,-2.8136,-2.8136,-2.8136,-2.8136,-2.8136,-2.7963,-2.7669,-2.7375,-2.7081,-2.6747,-2.6172,-2.5772,-2.5518,0.0,0.0,0.0,0.0,0.0,0.0,0.0,0.0,0.0,0.0,0.0,0.0,0.0,0.0,0.0,0.0,0.0,-3.7969,-3.8516,-3.7363,-3.6914,-3.748,-3.7773,-3.8184,-3.8769,-3.9219,-3.9726,-4.0312,-4.0039,-4.0195,-4.0742,-4.0449,-4.0469,-4.0742,-4.0742,-4.082,-4.0957,-4.0957,-4.1211,-4.1504,-4.0664,-4.0586,-4.082,-3.9648,-3.9023,-3.8828,0.0,-3.875,-3.8105,-3.7812,-3.7812,0.0,-3.7266,0.0,0.0,-3.6314,0.0,0.0,0.0,0.0,-2.9305,-2.7565,-2.7227,-2.7549,-2.8631,-2.9192,-3.0192,-3.2455,-3.288,-3.4232,-3.8418,-3.659,-3.494,-3.679,-3.4759,-3.2652,-3.2122,-3.1864,-3.1476,-3.0608,-3.0595,0.0,0.0,0.0,0.0,-3.1343,-3.1196,-3.0996,-3.0808,-3.0515,-2.9953,-2.9072,-2.8858,-2.8564,-2.815,-2.8136,-2.8136,-2.8136,-2.8136,-2.8136,-2.8136,-2.8136,-2.8136,-2.8136,-2.8136,-2.8136,-2.8123,-2.7923,-2.7682,-2.7375,-2.7081,-2.6787,-2.6507,-2.6319,-2.6066,-2.5745,0.0,0.0,0.0,0.0,0.0,0.0,0.0,0.0,0.0,0.0,0.0,0.0,0.0,0.0,0.0,0.0,0.0,0.0,-3.8711,-3.8008,-3.7812,-3.8359,-3.8672,-3.9121,-3.9707,-4.0137,-4.0566,-4.0976,-4.0391,-4.041,-4.0918,-4.0332,-4.0371,-4.0937,-4.0937,-4.1035,-4.1172,-4.1016,-4.1269,-4.1699,-4.0566,-4.0449,-4.0801,-3.9473,-3.8906,0.0,-3.875,-3.8769,-3.8691,-3.7988,-3.793,0.0,0.0,0.0,0.0,0.0,0.0,0.0,0.0,-3.0322,-2.9079,-2.7431,-2.7602,-2.843,-2.9419,-3.0643,-3.2067,-3.3768,-3.4803,-3.6594,-4.038,-3.7758,-3.5566,-3.763,-3.4758,-3.2301,-3.1907,-3.161,-3.1196,-3.0448,-3.0434,0.0,0.0,0.0,0.0,-3.0875,-3.0915,-3.0835,-3.0648,-3.0461,-2.9953,-2.9072,-2.8858,-2.8564,-2.815,-2.8136,-2.8136,-2.8136,-2.8136,-2.8136,-2.8136,-2.8136,-2.8136,-2.8136,-2.8136,-2.8136,-2.8123,-2.7936,-2.7629,-2.7241,-2.7054,-2.6734,-2.6386,-2.6386,-2.6199,-2.5892,0.0,0.0,0.0,0.0,0.0,0.0,0.0,0.0,0.0,0.0,0.0,0.0,0.0,0.0,0.0,0.0,0.0,0.0,-3.8047,-3.875,-3.9199,-3.9199,-4.0039,-4.0879,-4.168,-4.2129,-4.2168,-4.1758,-4.0957,-4.0566,-4.0527,-3.9687,-3.9746,-4.0566,-4.0566,-4.0781,-4.1152,-4.0723,-4.1035,-4.1719,-4.082,-4.0488,-4.0371,-3.9082,-3.8848,-3.9141,-3.832,-3.8555,-3.9199,0.0,0.0,0.0,0.0,0.0,0.0,0.0,0.0,-3.3705,-3.2541,-3.1089,-2.9702,-2.8533,-2.8631,-2.9205,-2.9958,-3.2275,-3.4217,-3.3933,-3.6016,-3.8292,0.0,0.0,-3.6654,-3.721,-3.5175,-3.3071,-3.1488,-3.0782,-3.0434,0.0,0.0,0.0,0.0,0.0,0.0,-3.0301,0.0,-3.0354,-3.0381,-3.0368,-2.9967,-2.9112,-2.9058,-2.8764,-2.8177,-2.815,-2.8136,-2.8136,-2.8136,-2.8136,-2.8136,-2.8136,-2.8136,-2.8136,-2.8136,-2.8136,-2.8136,-2.8136,-2.7789,-2.7268,-2.7268,-2.6907,-2.6386,-2.6386,-2.6199,-2.5919,0.0,0.0,0.0,0.0,0.0,0.0,0.0,0.0,0.0,0.0,0.0,0.0,0.0,0.0,0.0,0.0,0.0,0.0,-3.8887,-3.9082,-3.9199,-3.9199,-3.9746,-4.0156,-4.0371,-4.1113,-4.1445,-4.1328,-4.1113,-4.1016,-4.0996,-4.0781,-4.0781,-4.1016,-4.1016,-4.1074,-4.1172,-4.1055,-4.1308,-4.166,-4.0156,-3.9922,-4.0371,-3.9082,-3.9043,-3.9687,-3.9473,-3.9746,0.0,0.0,0.0,0.0,0.0,0.0,-3.6635,0.0,0.0,-3.2769,-3.1476,-3.0064,-2.9015,-2.8883,-2.9098,-2.9988,-3.2088,-3.2999,-3.4549,-3.8214,-3.868,-3.9021,0.0,0.0,0.0,-3.6434,-3.4901,0.0,-3.1826,-3.161,0.0,-3.0755,0.0,-3.0247,-2.9446,-2.9446,0.0,0.0,-3.0034,-3.0221,-3.0662,-3.0474,-3.0154,-2.9713,-2.9272,-2.8858,-2.8497,-2.8257,-2.8136,-2.8136,-2.8136,-2.8136,-2.8136,-2.8136,-2.8136,-2.8136,-2.8136,-2.8136,-2.8136,-2.8136,-2.7789,-2.7268,-2.7268,-2.6907,-2.6386,-2.6386,-2.6199,-2.5919,0.0,0.0,0.0,0.0,0.0,0.0,0.0,0.0,0.0,0.0,0.0,0.0,0.0,0.0,0.0,0.0,0.0,0.0,0.0,-3.9512,-3.9766,-4.0312,-4.0586,-4.082,-4.0996,-4.1484,-4.1719,-4.1719,-4.1152,-4.0976,-4.1172,-4.0586,-4.0508,-4.0879,-4.0879,-4.0996,-4.1172,-4.0976,-4.123,0.0,0.0,-4.0195,-4.0703,-3.9785,-3.9746,-4.0176,-4.0176,0.0,0.0,0.0,0.0,-3.7559,-3.7519,-3.7637,-3.746,-3.5849,0.0,-3.2904,-3.1677,-3.0127,-2.9098,-2.9513,-2.9646,-3.0192,-3.2471,-3.3679,-3.5392,-3.817,-3.9303,0.0,0.0,0.0,0.0,0.0,0.0,0.0,-3.1517,-3.1503,-3.1396,0.0,-3.0982,0.0,-2.994,-2.998,-3.002,0.0,-3.0034,-3.0261,-3.0581,-3.0568,-3.0301,-2.974,-2.9272,-2.8831,-2.8404,-2.823,-2.8136,-2.8136,-2.8136,-2.8136,-2.8136,-2.8136,-2.8136,-2.8136,0.0,-2.8136,-2.8136,-2.8003,-2.7682,-2.7255,-2.7121,-2.6787,-2.6386,-2.6386,-2.6199,-2.5932,0.0,0.0,0.0,0.0,0.0,0.0,0.0,0.0,0.0,0.0,0.0,0.0,0.0,0.0,0.0,0.0,0.0,0.0,0.0,0.0,0.0,-4.1504,-4.1699,-4.1953,-4.2246,-4.2305,-4.2324,-4.2266,-4.1152,-4.0801,-4.1152,-4.0,-3.9863,-4.0605,-4.0605,-4.082,-4.1152,-4.0781,-4.1035,-4.1641,-4.084,-4.0742,-4.1035,0.0,-4.0469,0.0,0.0,0.0,0.0,0.0,-3.8496,-3.8164,-3.8613,-3.9082,-3.9101,-3.6958,-3.5271,-3.3806,-3.2319,-3.0755,-2.9726,-3.0274,-3.0167,-3.0355,-3.244,-3.4422,-3.6024,-3.6617,0.0,-4.0273,-3.8769,0.0,-3.4283,-3.4605,0.0,-3.0233,-3.1022,-3.1009,-3.0955,-3.1249,-3.1289,-3.1076,-3.0528,-3.0702,-3.0621,-3.0074,-3.0274,-3.0394,-3.0368,-3.0568,-3.0287,-2.9446,-2.9219,-2.8791,-2.815,-2.8177,-2.8177,-2.8136,-2.8136,-2.8136,-2.8136,-2.8136,-2.8136,-2.8136,-2.8136,-2.8136,-2.8123,-2.7869,-2.7562,-2.7241,-2.6987,-2.668,-2.6386,-2.6386,-2.6199,-2.5959,0.0,0.0,0.0,0.0,0.0,0.0,0.0,0.0,0.0,0.0,-3.8086,-3.8574,0.0,0.0,0.0,0.0,0.0,0.0,0.0,0.0,0.0,0.0,-4.123,-4.168,0.0,0.0,0.0,0.0,0.0,-4.1094,-4.1172,-4.0937,-4.0918,-4.1055,-4.1055,-4.1094,-4.1172,-4.1094,-4.1152,-4.125,-4.0723,-4.0566,-4.0586,-4.0156,0.0,0.0,0.0,0.0,0.0,0.0,-3.9648,-3.9062,-3.9531,-4.0215,-4.0238,-3.718,-3.6008,-3.5055,-3.1685,-3.0515,-3.0287,-3.0635,-3.0314,-3.0876,-3.4486,-3.4848,0.0,0.0,0.0,-3.8398,-3.8086,-3.7836,0.0,-3.4519,0.0,0.0,0.0,0.0,-3.1263,0.0,0.0,0.0,0.0,0.0,0.0,0.0,0.0,-3.0608,-3.0381,-3.0181,-2.978,-2.9138,-2.9312,-2.9005,-2.815,-2.839,-2.839,-2.8136,-2.8136,-2.8136,-2.8136,-2.8136,-2.8136,-2.8136,-2.8136,0.0,-2.8136,-2.8083,-2.7749,-2.7268,-2.7215,-2.6854,-2.6386,-2.6386,-2.6199,-2.5959,0.0,0.0,0.0,0.0,0.0,0.0,0.0,-3.6894,-3.7383,-3.7598,-3.8184,-3.8574,-3.8574,-3.8574,0.0,0.0,0.0,0.0,0.0,0.0,0.0,0.0,0.0,0.0,0.0,0.0,0.0,0.0,0.0,0.0,0.0,0.0,0.0,0.0,0.0,0.0,-4.1504,-4.1504,-4.1504,-4.1484,-4.1269,-4.1055,0.0,0.0,0.0,0.0,0.0,0.0,0.0,0.0,-4.0586,-4.0273,-4.0488,-4.1152,-4.1317,-3.8749,-3.8095,-3.7434,-3.3617,-3.2774,-3.2535,-3.1732,-3.1579,-3.2178,-3.471,0.0,0.0,0.0,-3.7891,-3.7461,-3.7012,0.0,0.0,0.0,0.0,0.0,0.0,0.0,0.0,0.0,0.0,0.0,0.0,0.0,0.0,0.0,0.0,-3.0515,-3.0368,-3.0074,-2.9646,-2.9058,-2.9179,-2.8898,-2.815,-2.8283,-2.8283,-2.8136,-2.8136,-2.8136,-2.8136,-2.8136,-2.8136,-2.8136,-2.8136,0.0,-2.8123,-2.7816,-2.7522,-2.7241,-2.6934,-2.664,-2.6386,-2.6386,-2.6306,-2.6186,0.0,0.0,0.0,0.0,0.0,0.0,0.0,-3.7031,-3.7441,-3.7871,-3.8301,-3.8574,-3.8574,-3.8574,-3.8574,0.0,0.0,0.0,0.0,0.0,0.0,0.0,0.0,0.0,0.0,0.0,0.0,0.0,0.0,0.0,0.0,0.0,0.0,0.0,0.0,0.0,0.0,0.0,-4.1933,0.0,0.0,0.0,0.0,0.0,0.0,0.0,0.0,0.0,0.0,0.0,-4.123,-4.1308,-4.1308,-4.1953,-4.2268,-4.0307,-4.0259,-3.996,-3.642,-3.5669,-3.5529,-3.3941,-3.3832,-3.417,-3.521,-3.5659,0.0,0.0,-3.6992,-3.6953,-3.6289,0.0,0.0,0.0,0.0,0.0,0.0,0.0,0.0,0.0,0.0,0.0,0.0,0.0,0.0,0.0,0.0,0.0,-3.0181,-2.9953,-2.9553,-2.8965,-2.9005,-2.8751,-2.815,-2.8217,-2.8203,-2.8136,-2.8136,-2.8136,-2.8136,-2.8136,-2.8136,-2.8136,-2.8136,0.0,0.0,-2.7642,-2.7375,-2.7215,-2.676,-2.6493,-2.6386,-2.6386,-2.6386,-2.6386,0.0,0.0,0.0,0.0,0.0,0.0,0.0,-3.7031,-3.7441,-3.7871,-3.8301,-3.8574,-3.8574,-3.8574,-3.8574,0.0,0.0,0.0,0.0,0.0,0.0,0.0,0.0,0.0,0.0,0.0,0.0,0.0,0.0,0.0,0.0,0.0,0.0,0.0,0.0,0.0,0.0,0.0,0.0,0.0,0.0,0.0,0.0,0.0,0.0,0.0,0.0,0.0,0.0,0.0,0.0,-4.1738,-4.1738,-4.2598,-4.3156,-4.1166,0.0,0.0,-3.8595,-3.8562,-3.8988,-3.8559,-3.7387,-3.6804,-3.804,0.0,0.0,-3.6977,-3.6973,-3.6699,-3.6621,-3.656,-3.6295,0.0,0.0,-3.5163,0.0,0.0,0.0,0.0,0.0,0.0,0.0,0.0,0.0,0.0,0.0,0.0,-2.9579,-2.9539,-2.9259,-2.8671,-2.8898,-2.8751,-2.815,-2.843,-2.8417,-2.8136,-2.8136,-2.8136,-2.8136,-2.8136,-2.8136,-2.8136,-2.8136,0.0,0.0,-2.8083,-2.7749,-2.7268,-2.7201,-2.6854,-2.6386,-2.6386,-2.6386,-2.6386,0.0,0.0,0.0,0.0,0.0,0.0,-3.6601,-3.7031,-3.7441,-3.7871,-3.8301,-3.8574,-3.8574,-3.8574,-3.8574,-3.8574,0.0,0.0,0.0,0.0,0.0,0.0,0.0,0.0,0.0,0.0,0.0,0.0,0.0,0.0,0.0,0.0,0.0,0.0,0.0,0.0,0.0,0.0,0.0,0.0,0.0,0.0,0.0,0.0,0.0,0.0,0.0,0.0,0.0,0.0,0.0,0.0,-4.1426,-4.1953,0.0,0.0,-4.261,-4.3042,-4.102,-4.1151,-4.1395,-3.9991,-3.9456,-3.909,-3.8505,0.0,0.0,-3.7047,-3.6992,-3.6894,-3.6367,-3.6484,-3.6693,-3.672,0.0,0.0,0.0,0.0,0.0,0.0,0.0,0.0,0.0,0.0,0.0,0.0,0.0,0.0,-2.8978,-2.9285,-2.9219,-2.8631,-2.8724,-2.8577,-2.815,-2.827,-2.827,-2.8136,-2.8136,-2.8136,-2.8136,-2.8136,-2.8136,-2.8136,-2.8136,0.0,0.0,-2.7949,-2.7629,-2.7241,-2.7068,-2.6747,-2.6386,-2.6386,-2.6386,-2.6386,0.0,0.0,0.0,0.0,0.0,-3.6172,-3.6601,-3.7031,-3.7441,-3.7871,-3.8301,-3.8574,-3.8574,-3.8574,-3.8574,-3.8574,-3.8574,0.0,0.0,0.0,0.0,0.0,0.0,0.0,0.0,0.0,-4.084,-4.0527,-4.084,0.0,0.0,0.0,0.0,0.0,0.0,0.0,0.0,0.0,0.0,0.0,0.0,0.0,0.0,0.0,0.0,0.0,0.0,0.0,0.0,0.0,0.0,0.0,0.0,0.0,0.0,0.0,-4.3262,-4.402,-4.3093,-4.3365,-4.3829,-4.2144,-4.162,-4.1137,0.0,0.0,0.0,-3.7148,-3.6992,-3.6934,-3.6328,-3.6348,-3.666,-3.7207,0.0,-3.6161,0.0,0.0,0.0,0.0,0.0,0.0,0.0,0.0,0.0,0.0,0.0,0.0,-2.8631,-2.8991,-2.8991,-2.8484,-2.847,-2.8364,-2.815,-2.8136,-2.8136,-2.8136,-2.8136,-2.8136,-2.8136,-2.8136,-2.8136,-2.8136,-2.8136,0.0,0.0,-2.7923,-2.7602,-2.7241,-2.7041,-2.672,-2.6386,-2.6386,-2.6386,-2.6386,0.0,0.0,0.0,0.0,0.0,0.0,-3.6601,-3.7031,-3.7441,-3.7871,-3.8301,-3.8574,-3.8574,-3.8574,-3.8574,-3.8574,-3.8574,0.0,0.0,0.0,0.0,0.0,0.0,0.0,0.0,0.0,-4.0527,-4.0527,-4.0527,-4.0742,-4.1191,0.0,0.0,0.0,0.0,0.0,0.0,0.0,0.0,0.0,0.0,0.0,0.0,0.0,0.0,0.0,0.0,0.0,0.0,0.0,0.0,0.0,0.0,-4.0879,0.0,0.0,-4.3027,-4.3906,-4.4785,-4.5664,-4.6211,-4.5801,-4.4687,-4.3262,0.0,0.0,0.0,-3.748,-3.6953,-3.668,-3.666,-3.6309,-3.6309,-3.7168,-3.7637,0.0,0.0,0.0,0.0,0.0,0.0,0.0,0.0,0.0,0.0,0.0,0.0,0.0,-2.8617,-2.8617,-2.847,-2.8163,-2.815,-2.815,-2.8136,-2.8136,-2.8136,-2.8136,-2.8136,-2.8136,-2.8136,-2.8136,-2.8136,0.0,0.0,0.0,0.0,-2.8136,-2.7789,-2.7268,-2.7268,-2.6907,-2.6386,-2.6386,-2.6386,-2.6386,0.0,0.0,0.0,0.0,0.0,0.0,0.0,-3.6582,-3.6914,-3.7051,-3.7695,-3.8125,-3.8125,-3.8398,-3.8574,-3.8574,-3.8574,0.0,0.0,0.0,0.0,0.0,0.0,0.0,0.0,-3.9941,-4.0098,-4.0098,-4.0391,-4.0742,-4.1172,-4.1308,-4.1758,0.0,0.0,0.0,0.0,0.0,0.0,0.0,0.0,0.0,0.0,0.0,0.0,0.0,0.0,0.0,0.0,0.0,0.0,0.0,0.0,0.0,0.0,-4.0918,0.0,0.0,-4.3164,-4.4101,-4.4824,-4.4082,-4.3359,-4.2383,-4.0684,0.0,0.0,-3.7226,-3.7226,-3.7266,-3.6387,-3.6113,-3.6484,-3.793,-3.8027,0.0,0.0,0.0,0.0,0.0,0.0,0.0,0.0,0.0,0.0,0.0,0.0,0.0,-2.831,-2.8283,-2.8243,-2.815,-2.8136,-2.8136,-2.8136,-2.8136,-2.8136,-2.8136,-2.8136,-2.8136,-2.8136,-2.8136,-2.8136,0.0,0.0,0.0,0.0,-2.7923,-2.7615,-2.7241,-2.7041,-2.672,-2.6386,-2.6386,-2.6386,-2.6386,0.0,0.0,0.0,0.0,0.0,0.0,0.0,-3.6387,-3.668,-3.668,-3.7266,-3.7754,-3.791,-3.8164,-3.8398,-3.8555,-3.8574,0.0,0.0,0.0,0.0,0.0,0.0,0.0,-3.9219,-3.9492,-3.9726,-3.9902,-4.0312,-4.0742,-4.1172,-4.1328,-4.1777,-4.2422,-4.2422,0.0,0.0,0.0,0.0,0.0,0.0,0.0,-4.3086,0.0,0.0,0.0,0.0,0.0,0.0,0.0,0.0,0.0,0.0,0.0,0.0,0.0,-4.0586,0.0,0.0,-4.3144,-4.3769,-4.3223,-4.2637,0.0,0.0,0.0,0.0,0.0,0.0,-3.7012,-3.6387,-3.6133,-3.6426,-3.7656,-3.7754,0.0,0.0,0.0,0.0,0.0,0.0,0.0,0.0,0.0,0.0,0.0,0.0,0.0,-2.815,-2.8136,-2.8136,-2.8136,-2.8136,-2.8136,-2.8136,-2.8136,-2.8136,-2.8136,-2.8136,-2.8136,-2.8136,-2.8136,-2.8136,0.0,0.0,0.0,0.0,-2.7776,-2.7468,-2.7081,-2.6894,-2.664,-2.6386,-2.6386,-2.6386,-2.6386,0.0,0.0,0.0,0.0,0.0,0.0,0.0,-3.6367,-3.6621,-3.6621,-3.6992,-3.7402,-3.7832,-3.791,-3.8105,-3.8535,0.0,0.0,0.0,0.0,0.0,0.0,0.0,0.0,-3.916,-3.916,-3.9394,-3.9902,-4.0293,-4.0723,-4.1172,-4.1562,-4.1992,-4.2422,-4.2402,-4.2402,0.0,0.0,0.0,0.0,0.0,-4.2617,0.0,0.0,0.0,0.0,0.0,0.0,0.0,0.0,0.0,0.0,0.0,0.0,0.0,0.0,0.0,0.0,0.0,0.0,0.0,0.0,0.0,0.0,0.0,0.0,0.0,0.0,0.0,0.0,-3.6601,-3.6269,-3.6113,-3.6719,-3.709,0.0,0.0,0.0,0.0,0.0,0.0,0.0,0.0,0.0,0.0,0.0,0.0,0.0,-2.8136,-2.8136,-2.8136,-2.8136,-2.8136,-2.8136,-2.8136,-2.8136,-2.8136,-2.8136,-2.8136,-2.8136,-2.8136,-2.8136,-2.8136,0.0,0.0,0.0,0.0,-2.7682,-2.7335,-2.6814,-2.68,-2.6627,-2.6386,-2.6386,-2.6386,-2.6386,0.0,0.0,0.0,0.0,0.0,0.0,0.0,0.0,0.0,0.0,-3.6543,-3.6973,-3.7402,-3.7734,-3.8105,0.0,0.0,0.0,0.0,0.0,0.0,0.0,0.0,0.0,-3.873,-3.873,-3.9101,-3.9902,-4.0,-4.043,-4.1172,-4.1269,-4.1719,-4.2422,-4.209,-4.2129,0.0,0.0,0.0,0.0,-4.1953,-4.2012,0.0,0.0,0.0,0.0,-4.1582,-4.1055,0.0,0.0,0.0,0.0,0.0,0.0,0.0,0.0,-3.8223,0.0,-3.8848,0.0,-4.0488,-3.9805,-3.9473,-3.9141,0.0,0.0,0.0,0.0,0.0,0.0,0.0,0.0,-3.5703,0.0,0.0,0.0,0.0,0.0,0.0,0.0,0.0,0.0,0.0,0.0,0.0,0.0,0.0,0.0,-2.8136,-2.8136,-2.8136,-2.8136,-2.8136,-2.8136,-2.8136,-2.8136,-2.8136,-2.8136,-2.8136,-2.8136,-2.8136,-2.8136,-2.8136,0.0,0.0,0.0,-2.7682,-2.7455,-2.7148,-2.68,-2.6573,-2.6453,-2.6386,-2.6386,-2.6386,-2.6386,0.0,0.0,0.0,0.0,0.0,0.0,0.0,0.0,0.0,0.0,0.0,0.0,0.0,0.0,0.0,0.0,0.0,0.0,0.0,0.0,0.0,0.0,0.0,-3.8574,-3.8574,-3.8769,-3.9199,-3.9902,-4.0293,-4.0723,-4.1172,-4.1367,-4.1699,-4.2129,-4.1894,-4.1933,-4.2129,-4.1933,-4.1719,-4.1504,-4.1504,0.0,0.0,0.0,0.0,0.0,-4.1328,-4.0762,0.0,-4.0195,-3.9746,-3.9238,0.0,0.0,0.0,0.0,-3.7637,-3.7598,-3.7402,-3.8594,-3.9726,-3.9043,-3.8867,-3.8691,-3.8066,0.0,0.0,0.0,0.0,0.0,0.0,0.0,0.0,0.0,0.0,0.0,0.0,0.0,0.0,0.0,0.0,0.0,0.0,0.0,0.0,0.0,0.0,0.0,-2.8136,-2.8136,-2.8136,-2.8136,-2.8136,-2.8136,-2.8136,-2.8136,-2.8136,-2.8136,-2.8136,-2.8136,-2.8136,-2.8136,-2.8136,0.0,0.0,0.0,-2.7495,-2.7335,-2.6934,-2.6426,-2.64,-2.6226,-2.6026,-2.6293,-2.6306,-2.6213,0.0,0.0,0.0,0.0,0.0,0.0,0.0,0.0,0.0,0.0,0.0,0.0,0.0,0.0,0.0,0.0,0.0,0.0,0.0,0.0,0.0,0.0,-3.8574,-3.8574,-3.8574,-3.8984,-3.9434,-3.9902,-4.0762,-4.1211,-4.1269,-4.1699,-4.1855,-4.1797,-4.1875,-4.1816,-4.168,-4.1328,-4.1172,-4.1172,-4.1172,0.0,0.0,0.0,0.0,0.0,0.0,0.0,0.0,-4.0137,-3.9726,-3.918,-3.957,0.0,0.0,0.0,0.0,0.0,-3.6894,-3.8242,-3.957,-3.9043,-3.8906,-3.8711,-3.791,0.0,0.0,0.0,0.0,0.0,0.0,0.0,0.0,0.0,0.0,0.0,0.0,0.0,0.0,0.0,0.0,0.0,0.0,0.0,0.0,0.0,0.0,-2.8136,-2.8136,-2.8136,-2.8136,-2.8136,-2.8136,-2.8136,-2.8136,-2.8136,-2.8136,-2.8136,-2.8136,-2.8136,-2.8136,-2.8136,-2.8136,-2.8136,0.0,0.0,-2.7268,-2.7215,-2.6707,-2.5985,-2.6226,-2.6012,-2.5638,-2.6132,-2.6199,-2.6052,0.0,0.0,0.0,0.0,0.0,0.0,0.0,0.0,0.0,0.0,0.0,0.0,0.0,0.0,0.0,0.0,0.0,0.0,0.0,0.0,0.0,-3.8574,-3.8574,-3.8574,-3.8574,-3.8984,-3.9434,-3.9902,-4.0762,-4.1348,-4.1719,-4.2129,-4.2148,-4.1816,-4.2168,-4.1933,-4.1269,-4.1211,-4.1172,-4.1172,-4.1172,0.0,0.0,0.0,0.0,0.0,0.0,0.0,0.0,-3.8965,-3.8789,-3.8691,-3.875,0.0,0.0,0.0,0.0,0.0,-3.7461,-3.8242,-3.8594,-3.7793,-3.7598,-3.7461,-3.6973,0.0,0.0,0.0,0.0,0.0,0.0,0.0,0.0,0.0,0.0,0.0,0.0,0.0,0.0,0.0,0.0,0.0,0.0,0.0,0.0,0.0,0.0,0.0,-2.8136,-2.8136,-2.8136,-2.8136,-2.8136,-2.8136,-2.8136,-2.8136,-2.8136,-2.8136,-2.8136,-2.8136,-2.8136,-2.8136,-2.8136,-2.8123,0.0,-2.7575,-2.7241,-2.7001,-2.652,-2.5959,-2.6012,-2.5972,-2.5905,-2.5985,-2.6146,-2.6333,0.0,0.0,0.0,0.0,0.0,0.0,0.0,0.0,0.0,0.0,0.0,0.0,0.0,0.0,0.0,0.0,0.0,0.0,0.0,0.0,-3.8672,-3.8906,-3.8691,-3.8574,-3.8574,-3.9238,-3.9785,-4.0234,-4.1094,-4.1719,-4.2129,-4.2109,-4.1992,-4.1797,-4.1758,-4.1543,-4.1172,-4.1172,-4.1172,-4.1172,0.0,0.0,0.0,0.0,0.0,0.0,0.0,0.0,0.0,0.0,-3.8906,-3.8906,-3.8906,0.0,0.0,0.0,0.0,0.0,-3.6797,-3.7226,-3.7441,-3.7051,-3.748,-3.7695,-3.6582,0.0,0.0,0.0,0.0,0.0,0.0,0.0,0.0,0.0,0.0,0.0,0.0,0.0,0.0,0.0,0.0,0.0,0.0,0.0,0.0,0.0,0.0,0.0,-2.7896,-2.7749,-2.7669,-2.7669,-2.7816,-2.7829,-2.7669,-2.7829,-2.7989,-2.8136,-2.8136,-2.8136,-2.8136,-2.8136,-2.8056,-2.7896,0.0,-2.7442,-2.7014,-2.6881,-2.6386,-2.5732,-2.5892,-2.5758,-2.5518,-2.5838,-2.6146,-2.6386,0.0,0.0,0.0,0.0,0.0,0.0,0.0,0.0,0.0,0.0,0.0,0.0,0.0,0.0,0.0,0.0,0.0,0.0,0.0,-3.8418,-3.8613,-3.9043,-3.8848,-3.8769,-3.8887,-3.9648,-4.0254,-4.0684,-4.1738,-4.2461,-4.2871,-4.2344,-4.2051,-4.1933,-4.1504,-4.1269,-4.1172,-4.1172,-4.1172,-4.1172,0.0,0.0,0.0,0.0,0.0,0.0,0.0,0.0,0.0,0.0,0.0,0.0,0.0,0.0,0.0,-3.7637,-3.707,-3.666,-3.6621,-3.6719,-3.6816,-3.6816,-3.748,-3.7832,-3.6719,-3.6133,-3.6074,0.0,0.0,0.0,0.0,0.0,0.0,0.0,0.0,0.0,0.0,0.0,0.0,0.0,0.0,0.0,0.0,0.0,0.0,0.0,0.0,0.0,-2.7602,-2.7388,-2.7268,-2.7268,-2.7482,-2.7495,-2.7268,-2.7482,-2.7709,-2.7936,-2.7936,-2.7936,-2.7936,-2.7936,-2.7816,-2.7589,-2.7522,-2.7201,-2.672,-2.672,-2.6199,-2.5451,-2.5812,-2.5678,-2.5344,-2.5865,-2.6239,-2.648,0.0,0.0,0.0,0.0,0.0,0.0,0.0,0.0,0.0,0.0,0.0,0.0,0.0,0.0,0.0,0.0,0.0,0.0,0.0,-3.7969,-3.8164,-3.8594,-3.8965,-3.9355,-3.9785,-4.0234,-4.0684,-4.1133,-4.2773,-4.3808,-4.4238,-4.3379,-4.2773,-4.2363,-4.1953,-4.1543,-4.1172,-4.1172,-4.1172,-4.1172,-4.1172,0.0,0.0,0.0,0.0,0.0,0.0,0.0,0.0,0.0,0.0,0.0,0.0,0.0,-3.7969,-3.7891,-3.7305,-3.6934,-3.8086,-3.7832,-3.7246,-3.7246,-3.7031,-3.6973,-3.7637,-3.7461,-3.7402,-3.8262,0.0,0.0,0.0,0.0,0.0,0.0,0.0,0.0,0.0,0.0,0.0,0.0,0.0,0.0,0.0,0.0,0.0,0.0,0.0,0.0,-2.7308,-2.7281,-2.7268,-2.7268,-2.7281,-2.7281,-2.7268,-2.7281,-2.7308,-2.7321,-2.7321,-2.7321,-2.7321,-2.7321,-2.7321,-2.7281,-2.7001,-2.6707,-2.6426,-2.6426,-2.5905,-2.517,-2.5732,-2.5932,-2.5932,-2.6239,-2.6547,-2.6747,0.0,0.0,0.0,0.0,0.0,0.0,0.0,0.0,0.0,0.0,0.0,0.0,0.0,0.0,0.0,0.0,0.0,0.0,0.0,-3.793,-3.8242,-3.8926,-3.9121,-3.9551,-4.0273,-4.0703,-4.1387,-4.2363,-4.3555,-4.4082,-4.3945,-4.3086,-4.2441,-4.2012,-4.1308,-4.1074,-4.1152,-4.0879,-4.0918,-4.1172,-4.1172,-4.1172,0.0,0.0,0.0,0.0,0.0,0.0,0.0,0.0,-3.8711,-3.8555,-3.8437,-3.8184,-3.7871,-3.7617,-3.7129,-3.6777,-3.7266,-3.7148,-3.6973,-3.7226,-3.7187,-3.707,-3.7129,-3.7226,-3.7539,-3.8398,-3.8223,0.0,0.0,0.0,0.0,0.0,0.0,0.0,0.0,0.0,0.0,0.0,0.0,0.0,0.0,0.0,0.0,0.0,0.0,0.0,0.0,-2.672,-2.664,-2.6453,-2.68,-2.6907,-2.672,-2.6894,-2.6894,-2.672,-2.7094,-2.7268,-2.7268,-2.7268,-2.7161,-2.6974,-2.668,-2.6386,-2.6106,-2.5919,-2.5651,-2.5384,-2.5798,-2.5959,-2.5999,-2.6279,-2.6573,-2.6774,0.0,0.0,0.0,0.0,0.0,0.0,0.0,0.0,0.0,0.0,0.0,0.0,0.0,0.0,0.0,0.0,0.0,0.0,-3.7715,-3.7851,-3.8242,-3.8965,-3.9141,-3.9551,-4.0312,-4.1016,-4.1933,-4.3086,-4.3965,-4.416,-4.3691,-4.2832,-4.2266,-4.1953,-4.1113,-4.0898,-4.1152,-4.0703,-4.0703,-4.0976,-4.0976,-4.1055,0.0,0.0,0.0,0.0,0.0,0.0,0.0,0.0,-3.8691,-3.8555,-3.8379,-3.8242,-3.8047,-3.7617,-3.7207,-3.6836,-3.6699,-3.6562,-3.6543,-3.6816,0.0,0.0,-3.7285,-3.7598,-3.8184,-3.918,-3.8828,-3.8496,-3.9082,0.0,0.0,0.0,0.0,0.0,0.0,0.0,0.0,0.0,0.0,0.0,0.0,0.0,0.0,0.0,0.0,0.0,0.0,-2.6106,-2.6066,-2.5959,-2.6253,-2.636,-2.6253,-2.6453,-2.64,-2.6119,-2.6613,-2.6907,-2.6987,-2.6894,-2.6734,-2.6533,-2.6239,-2.5945,-2.5665,-2.5558,-2.5571,-2.5678,-2.5879,-2.6012,-2.6119,-2.6319,-2.6573,-2.6774,0.0,0.0,0.0,0.0,0.0,0.0,0.0,0.0,0.0,0.0,0.0,0.0,0.0,0.0,0.0,0.0,0.0,0.0,-3.7324,-3.7676,-3.8105,-3.8555,-3.8984,-3.9414,-3.9883,-4.1133,-4.2226,-4.3086,-4.3965,-4.416,-4.3672,-4.2812,-4.2422,-4.2383,-4.1543,-4.1172,-4.1133,-4.0703,-4.0508,-4.0508,-4.0527,-4.0781,-4.1113,0.0,0.0,0.0,0.0,0.0,0.0,0.0,-3.8926,-3.8652,-3.9062,-3.8906,-3.8496,-3.8047,-3.7617,-3.7207,-3.6777,-3.6348,-3.6016,0.0,0.0,0.0,-3.8398,-3.8906,-3.957,-4.0898,-4.0117,-3.9199,-3.9199,0.0,0.0,0.0,0.0,0.0,0.0,0.0,0.0,0.0,0.0,0.0,0.0,0.0,0.0,0.0,0.0,0.0,0.0,-2.5518,-2.5651,-2.5932,-2.5665,-2.5651,-2.5945,-2.5959,-2.5798,-2.5518,-2.5812,-2.6106,-2.6373,-2.6079,-2.5959,-2.5932,-2.5638,-2.5344,-2.5104,-2.5398,-2.5692,-2.5959,-2.5959,-2.6132,-2.6386,-2.6386,-2.6573,-2.6774,0.0,0.0,0.0,0.0,0.0,0.0,0.0,0.0,0.0,0.0,0.0,0.0,0.0,0.0,0.0,0.0,0.0,0.0,-3.7266,-3.7402,-3.7812,-3.8555,-3.8984,-3.9258,-3.9394,-4.0684,-4.207,-4.3516,-4.4414,-4.4141,-4.2793,-4.2539,-4.2109,-4.1543,-4.1289,-4.0996,-4.0684,-4.0254,-4.0078,-4.0098,-4.041,-4.0605,-4.0703,0.0,0.0,0.0,0.0,0.0,0.0,0.0,0.0,0.0,-3.8359,-3.8633,-3.8809,-3.7793,-3.7598,-3.7578,-3.6875,-3.6133,0.0,-3.6699,0.0,0.0,0.0,-3.9355,0.0,0.0,-3.9902,-3.8831,-3.7725,0.0,0.0,0.0,0.0,0.0,0.0,0.0,0.0,0.0,0.0,0.0,0.0,0.0,0.0,0.0,0.0,0.0,0.0,-2.5398,-2.5464,-2.5344,-2.5451,-2.5558,-2.5638,-2.5651,-2.5598,-2.5518,-2.5598,-2.5692,-2.5772,-2.5678,-2.5651,-2.5625,-2.5331,-2.5157,-2.5104,-2.5398,-2.5692,-2.5972,-2.6186,-2.6319,-2.6386,-2.6386,-2.6573,-2.6774,0.0,0.0,0.0,0.0,0.0,0.0,0.0,0.0,0.0,0.0,-3.7422,-3.7539,0.0,0.0,0.0,0.0,0.0,0.0,0.0,-3.7715,-3.8027,-3.8555,-3.8828,-3.9121,-3.9473,-4.0918,-4.1914,-4.2441,-4.3476,-4.3281,-4.1933,-4.2266,-4.2148,-4.168,-4.1855,-4.1504,-4.0762,-4.0508,-4.0215,-3.9941,-4.0351,-4.0527,-4.0527,0.0,0.0,0.0,0.0,0.0,0.0,0.0,0.0,0.0,-3.8066,-3.8281,-3.8516,-3.7578,-3.7246,-3.7051,-3.6543,0.0,0.0,-3.6816,-3.7422,-3.8164,-3.957,0.0,0.0,0.0,0.0,0.0,0.0,0.0,0.0,0.0,0.0,0.0,0.0,0.0,0.0,0.0,0.0,0.0,0.0,0.0,0.0,0.0,0.0,0.0,0.0,-2.5064,-2.5144,-2.5077,-2.513,-2.5224,-2.5344,-2.5344,-2.5277,-2.517,-2.5291,-2.5277,-2.517,-2.5291,-2.5344,-2.5331,-2.5024,-2.497,-2.509,-2.5264,-2.5585,-2.5972,-2.6146,-2.6293,-2.6386,-2.6386,-2.6507,-2.6627,0.0,0.0,0.0,0.0,0.0,0.0,0.0,0.0,0.0,0.0,-3.7012,-3.6953,0.0,0.0,0.0,0.0,0.0,0.0,0.0,-3.8281,-3.8535,-3.8574,-3.8652,-3.9101,-4.0,-4.1445,-4.1621,-4.0469,-4.1738,-4.1933,-4.1133,-4.1973,-4.2383,-4.2441,-4.2793,-4.2305,-4.1172,-4.1055,-4.0527,-3.9805,-4.0234,-4.041,-4.041,-4.041,0.0,0.0,0.0,0.0,0.0,0.0,0.0,0.0,-3.8144,-3.8047,-3.7949,-3.7441,-3.6738,-3.6133,-3.6133,0.0,0.0,0.0,0.0,0.0,0.0,0.0,0.0,0.0,0.0,0.0,0.0,0.0,0.0,0.0,0.0,0.0,0.0,0.0,0.0,0.0,0.0,0.0,0.0,0.0,0.0,0.0,0.0,0.0,0.0,-2.4636,-2.4756,-2.5037,-2.4756,-2.4743,-2.5037,-2.4983,-2.4836,-2.4596,-2.485,-2.4823,-2.4569,-2.489,-2.5037,-2.5024,-2.4756,-2.481,-2.5077,-2.5077,-2.5411,-2.5919,-2.5945,-2.6119,-2.636,-2.6373,-2.6386,-2.6386,0.0,0.0,0.0,0.0,0.0,0.0,0.0,0.0,0.0,0.0,0.0,0.0,0.0,0.0,0.0,0.0,0.0,0.0,0.0,-3.7832,-3.8223,-3.8555,-3.9238,-4.0019,-4.0879,-4.0586,-4.0312,-4.0039,-4.1308,-4.1504,-4.0684,-4.1543,-4.2109,-4.2422,-4.2187,-4.1738,-4.1113,-4.0059,-3.9336,-3.8887,-3.9316,-3.9492,-3.9492,-3.9492,-3.9375,0.0,0.0,0.0,0.0,0.0,0.0,0.0,-3.8848,-3.8926,-3.8711,-3.7617,-3.7168,-3.7031,0.0,0.0,0.0,0.0,0.0,0.0,0.0,0.0,0.0,0.0,0.0,0.0,0.0,0.0,0.0,0.0,0.0,0.0,0.0,0.0,0.0,0.0,0.0,0.0,0.0,0.0,0.0,0.0,0.0,0.0,-2.4649,-2.4636,-2.4663,-2.473,-2.4449,-2.4436,-2.473,-2.4275,-2.4128,0.0,-2.4128,-2.4022,-2.3968,-2.4489,-2.473,-2.473,-2.4663,-2.481,-2.5077,-2.5077,-2.5291,-2.5625,-2.5865,-2.5999,-2.6079,-2.6306,-2.6386,-2.6386,0.0,0.0,0.0,0.0,0.0,0.0,0.0,0.0,0.0,0.0,0.0,0.0,0.0,0.0,0.0,0.0,0.0,0.0,0.0,0.0,-3.8437,-3.8848,-3.9726,-4.0195,-4.0234,-4.0215,-3.9883,-3.9258,-3.9922,-4.0234,-4.0234,-4.1094,-4.1719,-4.2129,-4.2324,-4.1836,-4.084,-4.0351,-3.9648,-3.8906,-3.9355,-3.9394,-3.9219,-3.9453,-3.9277,-3.8867,-3.8652,0.0,0.0,0.0,0.0,0.0,0.0,0.0,-3.8457,-3.7793,-3.7305,0.0,0.0,0.0,0.0,0.0,0.0,0.0,0.0,0.0,0.0,0.0,0.0,0.0,0.0,0.0,0.0,0.0,0.0,0.0,0.0,0.0,0.0,0.0,0.0,0.0,0.0,0.0,0.0,0.0,0.0,-2.4649,-2.4636,-2.4369,-2.4289,-2.4422,-2.4155,-2.4075,-2.4222,-2.3928,-2.3848,-2.3995,-2.3848,-2.3768,-2.3781,-2.4222,-2.4502,-2.4636,-2.4636,-2.481,-2.5064,-2.493,-2.5117,-2.5518,-2.5531,-2.5705,-2.5972,-2.6132,-2.6266,-2.6386,0.0,0.0,0.0,0.0,0.0,0.0,0.0,0.0,0.0,0.0,0.0,0.0,0.0,0.0,0.0,0.0,0.0,0.0,0.0,0.0,0.0,-3.9297,-4.0019,-4.0137,-3.9551,-4.0117,-3.9883,-3.8809,-3.8652,-3.9023,-3.9922,-4.0703,-4.1367,-4.1933,-4.25,-4.1953,-4.0644,-4.0781,-4.0156,-3.9121,-3.9512,-3.9434,-3.9141,-3.9531,-3.9219,-3.8574,-3.8574,0.0,-3.8594,-3.8652,0.0,0.0,0.0,0.0,-3.791,-3.7832,0.0,0.0,0.0,0.0,0.0,0.0,0.0,0.0,0.0,0.0,0.0,0.0,0.0,0.0,0.0,0.0,0.0,0.0,0.0,0.0,0.0,0.0,0.0,0.0,0.0,0.0,0.0,0.0,0.0,0.0,0.0,-2.4289,-2.4476,-2.4035,-2.3888,-2.4115,-2.3848,-2.3714,-2.3768,-2.3661,-2.3634,-2.3688,-2.3634,-2.3647,-2.3701,-2.3941,-2.4235,-2.4556,-2.4556,-2.473,-2.4983,-2.473,-2.4917,-2.5344,-2.5157,-2.5371,-2.5812,-2.5865,-2.6066,-2.6319,0.0,0.0,0.0,0.0,0.0,0.0,0.0,0.0,0.0,0.0,-3.6016,-3.6016,0.0,0.0,0.0,0.0,0.0,0.0,0.0,0.0,0.0,-3.9766,-3.9922,-4.0273,-4.0898,-4.0293,-3.9902,-3.9726,-3.8945,-3.9023,-3.9902,-4.0391,-4.123,-4.2324,-4.1699,-4.1308,-4.1016,-3.9922,-3.916,-3.8672,-3.873,-3.8711,-3.8672,-3.873,-3.8672,-3.8574,-3.8574,-3.8574,-3.8633,-3.9004,-3.8633,0.0,0.0,0.0,0.0,0.0,0.0,0.0,0.0,0.0,0.0,0.0,0.0,0.0,0.0,0.0,0.0,0.0,0.0,0.0,0.0,0.0,0.0,0.0,0.0,0.0,0.0,0.0,0.0,0.0,0.0,0.0,0.0,0.0,0.0,0.0,-2.4249,-2.4115,-2.3901,-2.3808,-2.3794,-2.3834,-2.3541,-2.3514,-2.3768,-2.3247,-2.3113,-2.338,-2.3113,-2.3126,-2.338,-2.342,-2.3741,-2.4262,-2.4262,-2.4422,-2.469,-2.4649,-2.469,-2.477,-2.4997,-2.513,-2.5224,-2.5478,-2.5758,-2.6012,0.0,0.0,0.0,0.0,0.0,0.0,0.0,0.0,0.0,0.0,0.0,-3.6016,0.0,0.0,0.0,0.0,0.0,0.0,0.0,0.0,0.0,-3.9473,-3.9512,-3.9687,-4.0059,-3.9707,-3.9394,-3.916,-3.8769,-3.9141,-4.0254,-4.043,-4.0957,-4.1719,-4.1582,-4.1133,-4.041,-3.9844,-3.9199,-3.8574,-3.8574,-3.8144,-3.7578,-3.8301,-3.8125,-3.7598,-3.832,-3.8574,-3.8613,-3.8789,-3.8594,-3.832,-3.8437,0.0,0.0,0.0,0.0,0.0,0.0,0.0,0.0,0.0,0.0,0.0,0.0,0.0,0.0,0.0,0.0,0.0,0.0,0.0,0.0,0.0,0.0,0.0,0.0,0.0,0.0,0.0,0.0,0.0,0.0,0.0,0.0,0.0,-2.3808,-2.3728,-2.3768,-2.3447,-2.334,-2.3514,-2.322,-2.3126,-2.326,-2.2832,-2.2686,-2.2819,-2.2846,-2.2939,-2.3073,-2.3073,-2.3487,-2.4209,-2.4209,-2.4369,-2.4636,-2.4636,-2.4636,-2.4649,-2.4783,-2.493,-2.509,-2.5224,-2.5451,-2.5732,0.0,0.0,0.0,0.0,0.0,0.0,0.0,0.0,0.0,0.0,0.0,0.0,0.0,0.0,0.0,0.0,0.0,0.0,0.0,0.0,0.0,-3.9023,-3.9043,-3.9043,-3.9043,-3.9043,-3.8887,-3.8574,-3.8574,-3.9238,-4.0527,-4.0644,-4.0976,-4.1504,-4.1816,-4.125,-4.0059,-4.0059,-3.9609,-3.8867,-3.832,-3.7519,-3.6758,-3.748,-3.7168,-3.6523,-3.7793,-3.8242,-3.8281,-3.8496,-3.8496,-3.8379,0.0,0.0,0.0,0.0,0.0,0.0,0.0,0.0,0.0,0.0,0.0,0.0,0.0,0.0,0.0,0.0,0.0,0.0,0.0,0.0,0.0,0.0,0.0,0.0,0.0,0.0,0.0,0.0,0.0,0.0,0.0,0.0,0.0,0.0,-2.3447,-2.3394,-2.3527,-2.3113,-2.2966,-2.3207,-2.2979,-2.2859,-2.2859,-2.2645,-2.2485,-2.2418,-2.2726,-2.2859,-2.2859,-2.2859,-2.3273,-2.3981,-2.3981,-2.4182,-2.4529,-2.4529,-2.4569,-2.4636,-2.4636,-2.477,-2.497,-2.497,-2.5144,-2.5438,0.0,0.0,0.0,0.0,0.0,0.0,0.0,0.0,0.0,0.0,0.0,0.0,-3.6016,-3.6016,-3.6016,-3.6016,-3.6797,0.0,0.0,0.0,0.0,-3.8613,-3.8613,0.0,-3.8613,-3.8613,-3.8594,-3.8574,-3.8574,-3.9238,-4.0527,-4.0957,-4.1582,-4.2363,-4.2383,-4.168,-4.0488,-4.0488,-4.0234,-3.9648,-3.7598,-3.6738,-3.6582,-3.584,-3.5508,-3.5625,-3.6914,-3.7363,-3.748,-3.8301,-3.8301,0.0,0.0,0.0,0.0,0.0,0.0,0.0,0.0,0.0,0.0,0.0,0.0,0.0,0.0,0.0,0.0,0.0,0.0,0.0,0.0,0.0,0.0,0.0,0.0,0.0,0.0,0.0,0.0,0.0,0.0,0.0,0.0,0.0,0.0,0.0,-2.334,-2.3207,-2.2926,-2.2886,-2.2873,-2.2886,-2.2873,-2.2859,-2.2859,-2.2846,-2.2699,-2.2418,-2.2726,-2.2859,-2.2859,-2.2859,-2.3046,-2.3367,-2.3367,-2.3701,-2.4222,-2.4222,-2.4382,-2.4636,-2.4636,-2.4649,-2.4663,-2.4663,-2.485,-2.5104,0.0,0.0,0.0,0.0,0.0,0.0,0.0,0.0,0.0,0.0,0.0,0.0,0.0,-3.6016,-3.6016,-3.6016,-3.6797,0.0,0.0,0.0,0.0,-3.8574,-3.8574,-3.8574,-3.8574,-3.8574,-3.8574,-3.8574,-3.8574,-3.9101,-4.0137,-4.0566,-4.1074,-4.1641,-4.1894,-4.1465,-4.0488,-3.9922,-3.9434,-3.8906,-3.7305,-3.6152,-3.541,-3.5391,-3.4707,-3.3926,-3.5508,-3.625,-3.6523,-3.6836,0.0,0.0,0.0,0.0,0.0,0.0,0.0,0.0,0.0,0.0,0.0,0.0,0.0,0.0,0.0,0.0,0.0,0.0,0.0,0.0,0.0,0.0,0.0,0.0,0.0,0.0,0.0,0.0,0.0,0.0,0.0,0.0,0.0,0.0,0.0,0.0,0.0,-2.2979,-2.2873,-2.2859,-2.2859,-2.2859,-2.2672,-2.2392,-2.2031,-2.2205,-2.2151,-2.1871,-2.2352,-2.2579,-2.2579,-2.2779,-2.2926,-2.3033,-2.3033,-2.3367,-2.3928,-2.3928,-2.3981,-2.4102,-2.4289,-2.4356,-2.4382,-2.4569,-2.4703,-2.4823,0.0,0.0,0.0,0.0,0.0,0.0,0.0,0.0,-3.6016,-3.6016,0.0,0.0,0.0,0.0,-3.6133,-3.6426,-3.6973,-3.7539,-3.8105,-3.8418,-3.8574,-3.8574,-3.8574,-3.8574,-3.8574,-3.8574,-3.8574,-3.8574,-3.8574,-3.9023,-3.9902,-4.0176,-4.0625,-4.1172,-4.1308,-4.1133,-4.0703,-4.0117,-3.9531,-3.8848,-3.6992,-3.5801,-3.5137,-3.5156,-3.4434,-3.3633,0.0,0.0,0.0,0.0,0.0,0.0,0.0,-3.6543,-3.6582,0.0,0.0,0.0,0.0,0.0,0.0,0.0,0.0,0.0,0.0,0.0,0.0,0.0,0.0,0.0,0.0,0.0,0.0,0.0,0.0,0.0,0.0,0.0,0.0,0.0,0.0,0.0,0.0,0.0,0.0,0.0,0.0,0.0,-2.2712,-2.2712,-2.2672,-2.2565,-2.2378,-2.2044,-2.155,-2.1844,-2.1884,-2.171,-2.2191,-2.2472,-2.2579,-2.2779,-2.2859,-2.2859,-2.2859,-2.3153,-2.3621,-2.3621,-2.3688,-2.3794,-2.4088,-2.4209,-2.4235,-2.4529,-2.4636,-2.4663,0.0,0.0,0.0,0.0,0.0,0.0,0.0,0.0,-3.6016,-3.6016,0.0,0.0,0.0,0.0,0.0,-3.7266,-3.7344,-3.7695,-3.8496,-3.8574,-3.8574,-3.8574,0.0,0.0,-3.8574,-3.8574,-3.8574,-3.8574,-3.8574,-3.9023,-3.9863,-3.9863,-4.0332,-4.1113,-4.0703,-4.0762,-4.1133,-4.1113,-4.0625,-3.959,-3.6601,-3.5625,-3.5879,-3.4961,0.0,0.0,-3.5586,-3.5644,0.0,-3.4805,0.0,0.0,0.0,-3.6309,-3.6562,-3.6152,0.0,0.0,0.0,0.0,0.0,0.0,0.0,0.0,0.0,0.0,0.0,0.0,0.0,0.0,0.0,0.0,0.0,0.0,0.0,0.0,0.0,0.0,0.0,0.0,0.0,0.0,0.0,0.0,0.0,0.0,-2.3148,-2.2405,-2.2405,-2.2405,-2.2271,-2.1977,-2.1977,-2.183,-2.1537,-2.1817,-2.1964,-2.1977,-2.2271,-2.2565,-2.2846,-2.2859,-2.2859,-2.2859,-2.2859,-2.3033,-2.3313,-2.3313,-2.3487,-2.3768,-2.4075,-2.4195,-2.4222,-2.4529,-2.4636,-2.4636,0.0,0.0,0.0,0.0,0.0,0.0,-3.6074,-3.6016,-3.6016,0.0,0.0,0.0,-3.6055,-3.6836,-3.7617,-3.8184,-3.8496,-3.8516,-3.8125,-3.8398,-3.8574,-3.8574,-3.8574,-3.8574,-3.8574,-3.8574,-3.8574,-3.8574,-3.8574,-3.8691,-3.8945,-3.9258,-3.9707,-4.0254,-4.0449,-4.043,-4.0234,-3.9883,0.0,-3.873,-3.6348,-3.5254,0.0,0.0,0.0,0.0,0.0,-3.3359,-3.3496,0.0,-3.416,-3.5293,0.0,-3.6094,-3.6172,0.0,0.0,0.0,-3.5879,0.0,0.0,0.0,0.0,0.0,0.0,0.0,0.0,0.0,0.0,0.0,0.0,0.0,0.0,0.0,0.0,0.0,0.0,0.0,0.0,0.0,0.0,0.0,0.0,0.0,0.0,0.0,-2.2953,-2.2111,-2.2111,-2.2111,-2.1977,-2.1683,-2.167,-2.1537,-2.1229,-2.1309,-2.1456,-2.167,-2.1964,-2.2258,-2.2552,-2.2766,-2.2859,-2.2859,-2.2859,-2.2913,-2.2993,-2.2993,-2.3046,-2.3166,-2.3688,-2.3888,-2.3955,-2.4449,-2.4636,-2.4636,0.0,0.0,0.0,0.0,0.0,-3.7051,-3.6621,-3.6562,-3.6562,0.0,0.0,0.0,-3.6797,-3.7969,-3.8691,-3.8594,-3.8965,-3.8906,-3.8242,-3.8437,-3.8574,-3.8574,-3.8574,-3.8574,-3.8574,-3.8574,-3.8574,-3.8574,-3.8574,-3.8574,-3.8574,-3.8828,-3.9082,-3.9355,-3.9785,0.0,-3.9336,0.0,0.0,0.0,-3.625,0.0,0.0,-3.3809,-3.3027,0.0,0.0,0.0,-3.3457,-3.2559,-3.3281,0.0,0.0,0.0,0.0,0.0,0.0,-3.5976,-3.5801,-3.5879,0.0,0.0,0.0,0.0,0.0,-3.4961,0.0,0.0,0.0,0.0,0.0,0.0,0.0,0.0,0.0,0.0,0.0,0.0,0.0,0.0,0.0,0.0,0.0,-2.6734,-2.528,-2.5124,-2.3121,-2.1804,-2.1804,-2.1924,-2.179,-2.1376,-2.1363,-2.1283,-2.1109,-2.1109,-2.1256,-2.155,-2.1844,-2.2138,-2.2432,-2.2726,-2.2859,-2.2859,-2.2859,-2.2859,-2.2859,-2.2859,-2.2859,-2.2926,-2.3541,-2.3768,-2.3834,-2.4422,-2.4636,-2.4636,0.0,0.0,0.0,-3.75,-3.7793,-3.793,-3.7578,-3.7519,-3.7519,0.0,-3.7266,-3.7383,-3.832,-3.9394,-3.9726,-3.8926,-3.916,-3.9121,-3.8613,-3.8574,-3.8574,-3.8574,-3.8574,-3.8574,-3.8574,-3.8574,-3.8574,-3.8574,-3.8574,-3.8574,-3.8574,-3.8535,-3.8496,-3.8516,-3.8887,0.0,0.0,0.0,0.0,-3.8184,-3.6191,-3.582,0.0,0.0,-3.4629,-3.498,-3.4512,-3.4414,-3.4199,-3.2344,-3.2461,0.0,0.0,0.0,0.0,0.0,-3.5957,0.0,-3.5527,-3.5742,-3.6094,0.0,0.0,0.0,-3.5215,-3.4336,-3.3437,0.0,0.0,0.0,0.0,0.0,0.0,0.0,0.0,0.0,0.0,0.0,0.0,0.0,0.0,0.0,0.0,-2.8463,-2.6348,-2.6001,-2.3466,-2.1754,-2.1496,-2.2011,-2.1903,-2.1122,-2.1109,-2.1109,-2.1109,-2.1109,-2.1256,-2.155,-2.1844,-2.2138,-2.2432,-2.2726,-2.2859,-2.2859,-2.2859,-2.2859,-2.2859,-2.2859,-2.2859,-2.2926,-2.3541,-2.3768,-2.3834,-2.4422,-2.4636,-2.4636,0.0,0.0,0.0,-3.834,-3.8672,-3.8926,-3.8848,-3.8828,-3.8965,-3.9336,-3.9316,-3.9844,-4.1387,-4.1172,-4.0859,-4.0684,-4.043,-3.9785,-3.8652,-3.8574,-3.8574,-3.8574,-3.8574,-3.8574,-3.8574,-3.8574,-3.8574,-3.8574,-3.8574,-3.8574,-3.8574,-3.8223,-3.8047,-3.8047,-3.8144,-3.8125,0.0,0.0,0.0,-3.6953,-3.584,0.0,-3.4863,-3.2891,-3.2422,-3.2734,-3.2305,-3.2578,-3.3144,-3.3086,-3.2988,-3.3105,0.0,0.0,0.0,-3.5605,0.0,0.0,0.0,0.0,0.0,0.0,0.0,0.0,-3.4121,-3.4141,-3.4238,0.0,0.0,0.0,0.0,0.0,0.0,0.0,0.0,0.0,0.0,0.0,0.0,0.0,0.0,0.0,0.0,-2.8055,-2.605,-2.5984,-2.4224,-2.2552,-2.1316,-2.2497,-2.2594,-2.1109,-2.1109,-2.1109,-2.1109,-2.1109,-2.1256,-2.155,-2.1844,-2.2138,-2.2432,-2.2726,-2.2859,-2.2859,-2.2859,-2.2859,-2.2859,-2.2859,-2.2859,-2.2926,-2.3541,-2.3768,-2.3834,-2.4422,-2.4636,-2.4636,0.0,0.0,0.0,0.0,-3.959,-3.9941,-4.0156,-4.0195,-4.0273,-4.0508,-4.0898,-4.1328,-4.1758,-4.1797,-4.1465,-4.0605,-4.0332,-3.9746,-3.8652,-3.8574,-3.8574,-3.8574,-3.8574,-3.8574,-3.8574,-3.8574,-3.8574,-3.8574,-3.8574,-3.8574,-3.8574,-3.8359,-3.8027,-3.7637,-3.8066,-3.8008,0.0,0.0,-3.7637,-3.6562,-3.5254,0.0,-3.418,-3.2246,-3.1914,-3.2422,-3.1992,-3.2109,-3.2539,-3.2969,-3.3262,0.0,0.0,-3.4219,-3.457,0.0,-3.5391,-3.5195,0.0,0.0,0.0,-3.5469,0.0,0.0,0.0,-3.375,-3.3574,0.0,0.0,0.0,0.0,0.0,0.0,0.0,0.0,0.0,0.0,0.0,0.0,0.0,0.0,0.0,0.0,-2.7556,-2.5619,-2.4901,-2.4207,-2.3363,-2.2355,-2.3223,-2.3001,-2.1109,-2.1109,-2.1109,-2.1109,-2.1109,-2.1189,-2.1336,-2.163,-2.1844,-2.2004,-2.2445,-2.2645,-2.2645,-2.2806,-2.2859,-2.2859,-2.2859,-2.2859,-2.2913,-2.3367,-2.3647,-2.3821,-2.4262,-2.4516,-2.4636,-3.7988,0.0,0.0,0.0,0.0,0.0,-4.1113,-4.125,-4.1328,-4.1406,-4.2012,-4.2168,-4.1484,-4.1719,-4.1426,-4.0137,-3.9492,-3.9023,-3.8711,-3.8398,-3.8242,-3.832,-3.8496,-3.8496,-3.834,-3.8418,-3.8496,-3.8574,-3.8496,-3.8457,-3.8457,-3.8457,-3.8047,-3.7324,-3.7851,-3.7832,0.0,0.0,0.0,-3.6152,0.0,-3.4004,-3.3887,-3.2168,-3.2051,-3.2734,-3.2324,-3.2168,-3.2226,-3.2656,-3.3301,-3.3906,-3.373,-3.4238,0.0,0.0,0.0,0.0,0.0,0.0,0.0,0.0,0.0,-3.4766,0.0,0.0,0.0,0.0,0.0,0.0,0.0,0.0,0.0,0.0,0.0,0.0,0.0,0.0,0.0,0.0,0.0,0.0,0.0,-2.7278,-2.5456,-2.3698,-2.4485,-2.4531,-2.3589,-2.4064,-2.334,-2.1109,-2.1109,-2.1109,-2.1109,-2.1109,-2.1109,-2.1109,-2.1416,-2.155,-2.1577,-2.2151,-2.2418,-2.2432,-2.2726,-2.2859,-2.2859,-2.2859,-2.2859,-2.2899,-2.3207,-2.3514,-2.3808,-2.4102,-2.4382,-2.4636,-3.793,-3.832,0.0,0.0,0.0,0.0,0.0,-4.1484,-4.1855,-4.2226,-4.2363,-4.2402,-4.2285,-4.1035,-4.0254,-4.043,-3.8008,-3.7226,-3.9004,-3.7715,-3.7051,-3.7422,-3.8164,-3.8223,-3.7461,-3.7812,-3.8184,-3.8574,-3.8184,-3.7988,-3.7988,-3.7988,-3.7754,-3.7266,-3.6601,0.0,0.0,0.0,-3.543,0.0,-3.3887,-3.373,0.0,-3.2168,-3.2051,-3.2734,-3.2324,-3.2168,-3.2226,0.0,-3.3105,-3.3613,0.0,-3.3887,-3.3457,-3.5391,0.0,0.0,0.0,0.0,0.0,0.0,-3.5371,0.0,0.0,0.0,0.0,0.0,0.0,0.0,0.0,0.0,0.0,0.0,0.0,0.0,0.0,0.0,0.0,0.0,0.0,0.0,0.0,0.0,-2.573,-2.3713,-2.67,-2.7119,-2.3837,-2.4933,-2.4317,-2.1235,-2.1109,-2.1109,-2.1109,-2.1109,-2.1109,-2.1109,-2.1416,-2.155,-2.1577,-2.2151,-2.2418,-2.2432,-2.2726,-2.2859,-2.2859,-2.2859,-2.2859,-2.2899,-2.3207,-2.3514,-2.3808,-2.4102,-2.4382,-2.4636,-3.7519,-3.8105,-3.8633,0.0,0.0,0.0,0.0,0.0,-4.2598,-4.2773,-4.3008,-4.3066,-4.2832,-4.1953,-4.1133,-4.0566,0.0,-3.8027,0.0,0.0,-3.748,-3.7656,-3.8242,-3.8398,-3.8047,-3.8203,-3.8398,-3.8574,-3.8398,-3.8301,-3.8301,-3.8301,-3.7949,-3.7285,-3.6914,0.0,-3.6797,0.0,-3.5742,0.0,0.0,0.0,0.0,-3.1797,-3.1387,-3.1579,-3.0634,-3.1066,-3.2105,0.0,-3.26,0.0,0.0,0.0,0.0,0.0,0.0,0.0,0.0,0.0,0.0,0.0,0.0,0.0,-3.3965,0.0,-3.152,0.0,0.0,0.0,0.0,0.0,0.0,0.0,0.0,0.0,0.0,0.0,0.0,0.0,0.0,0.0,0.0,0.0,0.0,0.0,-2.8061,-2.7852,-2.5162,-2.5619,-2.4517,-2.1235,-2.1109,-2.1109,-2.1109,-2.1109,-2.1109,-2.1109,-2.1229,-2.1296,-2.1309,-2.1897,-2.2164,-2.2191,-2.2659,-2.2859,-2.2859,-2.2859,-2.2859,-2.2873,-2.3006,-2.3354,-2.3808,-2.4102,-2.4382,-2.4636,-3.6894,-3.7637,0.0,0.0,0.0,0.0,0.0,0.0,-4.2148,-4.25,-4.2715,0.0,-4.2734,-4.2012,0.0,0.0,-3.9355,-3.8437,0.0,0.0,-3.7422,-3.7051,-3.791,0.0,-3.7715,-3.8164,-3.8457,-3.8574,-3.8457,-3.8398,-3.8398,-3.8516,-3.8184,-3.7461,0.0,-3.6855,-3.6348,0.0,0.0,-3.4805,-3.4238,-3.3633,-3.2949,-3.1719,-3.1172,-3.0996,-3.0167,-3.0963,-3.228,-3.1383,-3.2592,0.0,-3.3926,0.0,0.0,0.0,0.0,0.0,-3.5703,0.0,0.0,0.0,0.0,0.0,0.0,0.0,0.0,0.0,0.0,0.0,0.0,0.0,0.0,0.0,0.0,0.0,0.0,0.0,0.0,0.0,0.0,0.0,0.0,0.0,0.0,-2.8367,-2.8949,-2.8323,-2.6122,-2.5717,-2.4131,-2.1235,-2.1189,-2.1189,-2.1109,-2.1109,-2.1109,-2.1109,-2.1109,-2.1109,-2.1122,-2.1724,-2.1991,-2.2017,-2.2605,-2.2859,-2.2859,-2.2859,-2.2859,-2.2873,-2.2953,-2.3313,-2.3794,-2.4008,-2.4315,-2.4636,-3.6055,-3.6758,0.0,0.0,0.0,0.0,0.0,0.0,0.0,0.0,0.0,0.0,0.0,0.0,0.0,0.0,0.0,-3.7441,-3.9062,0.0,-3.6133,0.0,0.0,-3.7168,0.0,-3.7109,-3.8144,-3.8574,-3.8144,-3.7949,-3.7949,-3.8379,-3.834,-3.7871,-3.7051,-3.6894,-3.7109,-3.5039,-3.3887,-3.3418,-3.2578,-3.2226,-3.2207,0.0,-3.1875,-3.1543,-3.1992,0.0,0.0,-3.3136,-3.3711,0.0,0.0,0.0,0.0,0.0,0.0,0.0,0.0,0.0,0.0,-3.4824,0.0,0.0,0.0,0.0,-2.9127,0.0,0.0,0.0,0.0,0.0,0.0,-2.5611,0.0,0.0,0.0,0.0,0.0,0.0,0.0,0.0,0.0,0.0,0.0,-2.9058,-2.9487,-2.8606,-2.6139,-2.4719,-2.3145,-2.1122,-2.139,-2.1403,-2.1109,-2.1109,-2.1109,-2.1109,-2.1109,-2.1109,-2.1122,-2.1724,-2.1991,-2.2017,-2.2605,-2.2859,-2.2859,-2.2859,-2.2859,-2.2886,-2.3193,-2.35,-2.3768,-2.3781,-2.4142,-2.4636,0.0,0.0,0.0,0.0,0.0,0.0,0.0,-3.957,0.0,0.0,0.0,0.0,0.0,-4.2285,-4.1719,0.0,0.0,-3.9219,-3.9199,-3.8398,0.0,0.0,0.0,-3.7949,0.0,0.0,-3.8418,-3.8574,-3.8418,-3.8359,-3.8359,-3.8496,-3.834,-3.7891,0.0,-3.6269,0.0,0.0,0.0,0.0,0.0,-3.2422,-3.2148,0.0,0.0,-3.1793,-3.0531,-3.1001,0.0,-3.1565,-3.2549,-3.4043,-3.3906,-3.4141,-3.4453,-3.4316,-3.4375,0.0,0.0,0.0,-3.4043,-3.3887,0.0,0.0,0.0,0.0,0.0,0.0,0.0,0.0,0.0,0.0,0.0,-2.5234,0.0,0.0,0.0,0.0,0.0,0.0,0.0,0.0,0.0,0.0,0.0,-3.0585,-3.0762,-2.9599,-2.6471,-2.5826,-2.4336,-2.1813,-2.179,-2.1697,-2.1403,-2.1403,-2.1309,-2.1109,-2.1109,-2.1109,-2.1122,-2.1523,-2.1697,-2.1737,-2.2311,-2.2565,-2.2579,-2.2779,-2.2859,-2.2873,-2.2979,-2.3207,-2.3527,-2.3915,-2.4302,-2.4636,-3.437,0.0,0.0,0.0,0.0,0.0,0.0,0.0,0.0,0.0,-4.2148,0.0,-4.3183,0.0,-4.2402,0.0,-4.1152,-4.0312,-3.9277,-3.8945,0.0,-3.7285,-3.7656,0.0,0.0,0.0,0.0,0.0,-3.8359,-3.8496,-3.834,-3.834,-3.8105,-3.7676,0.0,-3.6074,-3.4668,0.0,-3.3398,0.0,0.0,-3.2598,0.0,0.0,-3.2012,-3.2202,0.0,-3.1142,-3.2299,-3.1415,-3.234,-3.3789,-3.3516,-3.3809,-3.4199,-3.3926,-3.3926,-3.4004,-3.3867,-3.3535,0.0,-3.3203,-3.1696,0.0,-3.1302,0.0,0.0,0.0,0.0,0.0,0.0,0.0,0.0,0.0,0.0,0.0,0.0,0.0,0.0,0.0,0.0,0.0,0.0,0.0,-2.8801,-3.1556,-3.0615,-2.8921,0.0,0.0,-2.3878,-2.1961,-2.2031,-2.2004,-2.171,-2.1603,-2.1456,-2.1269,-2.1162,-2.1162,-2.1269,-2.147,-2.1617,-2.1737,-2.2218,-2.2418,-2.2445,-2.2739,-2.2859,-2.2859,-2.2859,-2.3046,-2.338,-2.3875,-2.4302,-2.4636,0.0,0.0,0.0,0.0,-3.6236,0.0,0.0,0.0,-4.0488,0.0,-4.168,-4.2461,-4.2461,-4.209,-4.1816,-4.1797,-4.1426,-4.0644,-3.9375,-3.9258,0.0,0.0,-3.6523,-3.6133,-3.4824,0.0,0.0,0.0,0.0,0.0,-3.793,-3.791,-3.7676,-3.7266,-3.7266,0.0,-3.4648,-3.4238,-3.3105,-3.1582,-3.2012,-3.2656,-3.3301,-3.2461,-3.2402,-3.2695,-3.2266,-3.2383,-3.2754,-3.2734,-3.3047,-3.3418,-3.3398,-3.3398,-3.3418,-3.3418,-3.3125,-3.2871,-3.3262,-3.3047,-3.2734,-3.2611,-3.1433,0.0,0.0,0.0,-2.5889,0.0,0.0,0.0,0.0,0.0,0.0,0.0,0.0,0.0,0.0,0.0,0.0,0.0,0.0,0.0,0.0,0.0,-2.931,-3.1841,-2.9244,0.0,0.0,0.0,-2.2146,-2.163,-2.2151,-2.2298,-2.2004,-2.1737,-2.1577,-2.155,-2.1269,-2.1269,-2.1537,-2.1537,-2.1683,-2.1977,-2.2271,-2.2405,-2.2445,-2.2739,-2.2859,-2.2859,-2.2859,-2.306,-2.338,-2.3688,-2.4155,-2.4636,-3.2263,-3.2187,-3.3268,0.0,-3.6363,-3.6934,0.0,0.0,0.0,0.0,-4.2305,-4.291,-4.291,-4.2519,-4.2148,-4.1836,-4.1426,0.0,0.0,0.0,0.0,-3.8418,-3.7891,-3.7148,-3.6191,-3.6914,0.0,-3.7148,0.0,0.0,-3.791,-3.7598,-3.7226,-3.6836,0.0,0.0,-3.4219,-3.4121,-3.3262,-3.2012,-3.2129,-3.248,0.0,0.0,-3.1953,-3.2226,-3.1484,-3.1699,-3.2285,-3.1953,-3.2539,-3.3359,-3.3066,-3.3164,-3.3418,-3.3418,-3.3125,-3.2754,-3.2539,-3.2168,-3.1595,-3.0326,-2.8677,-2.7236,0.0,0.0,0.0,0.0,0.0,0.0,0.0,0.0,0.0,0.0,0.0,0.0,0.0,0.0,0.0,0.0,0.0,0.0,0.0,0.0,-2.8646,-3.0167,-3.0766,0.0,0.0,0.0,0.0,-2.266,-2.2672,-2.2605,-2.2311,-2.2231,-2.1977,-2.155,-2.147,-2.1363,-2.1229,-2.1229,-2.139,-2.1683,-2.1977,-2.2218,-2.2445,-2.2739,-2.2859,-2.2859,-2.2859,-2.3193,-2.3688,-2.3981,-2.4329,-2.4636,-3.3242,0.0,0.0,-3.6553,0.0,0.0,-3.8437,0.0,0.0,-4.084,-4.1875,0.0,-4.1992,-4.207,-4.1992,-4.1562,-4.1308,0.0,-4.0644,0.0,0.0,-3.8965,-3.793,-3.707,-3.6406,-3.623,0.0,-3.6465,0.0,0.0,-3.7363,0.0,0.0,0.0,0.0,-3.5059,0.0,-3.3203,-3.2871,-3.2676,-3.2109,0.0,0.0,-3.1836,-3.168,-3.1797,-3.1133,-3.1328,-3.1855,-3.1601,-3.2246,-3.3066,-3.2656,-3.2812,-3.3105,-3.293,-3.2046,-3.1153,-3.0925,-2.9944,-2.8871,-2.8008,-2.6404,-2.5281,-2.5375,-2.371,-2.2335,0.0,-2.275,-2.2285,0.0,0.0,0.0,0.0,0.0,0.0,0.0,0.0,0.0,0.0,0.0,0.0,0.0,0.0,0.0,0.0,0.0,0.0,0.0,0.0,0.0,-2.2795,-2.306,-2.3046,-2.2619,-2.2752,-2.2458,-2.1737,-2.1617,-2.147,-2.1296,-2.1162,-2.1269,-2.1563,-2.1857,-2.2084,-2.2258,-2.2686,-2.2859,-2.2873,-2.3006,-2.3434,-2.3981,-2.4142,-2.4382,-2.4636,0.0,0.0,0.0,0.0,0.0,0.0,0.0,-3.9453,0.0,-4.0059,0.0,-4.1641,-4.0781,-4.1348,-4.1621,-4.1211,0.0,-4.0781,-4.0019,-3.9863,-3.9434,-3.8613,-3.7402,-3.6504,-3.5957,-3.5117,-3.4922,0.0,0.0,0.0,0.0,0.0,0.0,0.0,0.0,0.0,0.0,-3.2187,-3.2285,-3.3164,-3.1992,-3.1973,-3.2539,-3.1738,-3.1445,-3.1387,-3.1016,-3.1152,-3.1504,-3.1445,-3.2012,-3.2637,-3.2226,-3.2422,-3.2715,-3.2021,-3.0625,-2.9076,-2.89,-2.7609,-2.6227,-2.5741,-2.4778,-2.4255,-2.553,-2.3613,-2.2066,-2.3837,-2.2888,-2.1884,0.0,0.0,0.0,0.0,0.0,0.0,0.0,0.0,0.0,0.0,0.0,0.0,0.0,0.0,0.0,0.0,0.0,0.0,0.0,0.0,0.0,-2.2432,-2.326,-2.3474,-2.2979,0.0,-2.2939,-2.2151,-2.179,-2.159,-2.1537,-2.1243,-2.1269,-2.1563,-2.1857,-2.2004,-2.2084,-2.2632,-2.2886,-2.2953,-2.326,-2.3728,-2.4209,-2.4249,-2.4422,-2.4636,0.0,0.0,0.0,0.0,0.0,-3.8281,-3.8984,-4.0156,-4.0957,-4.0957,-4.207,-4.2519,-4.168,-4.1719,-4.1621,-4.1211,-4.084,0.0,0.0,0.0,0.0,-3.8594,-3.7676,-3.666,-3.5527,-3.498,-3.4922,0.0,0.0,0.0,-3.6113,0.0,0.0,0.0,0.0,0.0,-3.3379,-3.2812,0.0,-3.2344,-3.1758,-3.1601,-3.168,-3.1191,-3.0996,-3.0996,-3.0918,-3.1152,-3.1465,-3.1113,-3.1562,-3.2207,-3.1777,-3.2168,-3.2448,-3.0612,-2.9934,-2.9172,-2.7497,-2.7505,-2.7331,-2.4655,-2.4778,-2.4901,-2.2649,-2.1556,-2.133,-2.1624,-2.1511,-2.1336,-2.159,0.0,0.0,0.0,0.0,0.0,0.0,0.0,0.0,0.0,0.0,0.0,0.0,0.0,0.0,0.0,0.0,0.0,0.0,0.0,0.0,0.0,-2.306,0.0,0.0,0.0,-2.3247,-2.3086,-2.2285,-2.1777,-2.1537,-2.1243,-2.1269,-2.1563,-2.1857,-2.2124,-2.2365,-2.2712,-2.3006,-2.3273,-2.3581,-2.3901,-2.4235,-2.4476,-2.4596,-2.4636,0.0,0.0,0.0,0.0,0.0,0.0,0.0,-4.0469,0.0,-4.0566,-4.1055,-4.1269,-4.0859,-4.1211,-4.1308,-4.0879,-4.0644,-4.0234,-3.9551,-3.9121,-3.8594,-3.7949,-3.7305,0.0,-3.5742,-3.4609,-3.4492,-3.5391,0.0,0.0,-3.5684,0.0,0.0,0.0,0.0,-3.3613,0.0,0.0,0.0,-3.2422,-3.1543,-3.1328,-3.1465,-3.1055,-3.0898,-3.0898,-3.0898,-3.1016,-3.1172,-3.0957,-3.1309,-3.1797,-3.1582,-3.1175,-3.0691,-2.9733,-2.8026,-2.6356,-2.5326,-2.4781,-2.4286,-2.2702,-2.2952,-2.3062,-2.1475,-2.1109,-2.1109,-2.1109,-2.1109,-2.1203,-2.1496,-2.2017,0.0,0.0,0.0,0.0,0.0,0.0,0.0,0.0,0.0,0.0,0.0,0.0,0.0,0.0,0.0,0.0,0.0,0.0,0.0,0.0,0.0,0.0,0.0,0.0,0.0,-2.2846,-2.2271,-2.183,-2.1537,-2.1243,-2.1269,-2.1563,-2.1857,-2.2151,-2.2445,-2.2739,-2.314,-2.3567,-2.3714,-2.4035,-2.4449,-2.4583,-2.4636,-2.4636,0.0,-3.7949,0.0,0.0,-3.9082,0.0,-3.9863,-4.0547,-4.082,-4.0234,-4.0176,-4.0176,-4.0176,-4.0684,-4.0898,-4.0547,-4.0273,-3.9668,-3.8652,-3.8398,-3.7969,-3.7187,-3.6758,-3.6289,-3.5742,-3.4121,-3.3848,0.0,0.0,0.0,0.0,0.0,0.0,0.0,0.0,0.0,0.0,0.0,-3.1855,-3.2305,-3.1289,-3.1094,-3.1348,-3.1016,-3.0898,-3.0898,-3.0898,-3.0898,-3.0898,-3.0898,-3.1113,-3.1387,-3.1387,-3.0572,-2.9507,-2.8671,-2.6404,-2.4022,-2.3216,-2.2341,-2.1601,-2.1235,-2.1348,-2.1475,-2.1235,-2.1109,-2.1109,-2.1109,-2.1109,-2.1203,-2.1496,-2.179,0.0,0.0,0.0,0.0,0.0,0.0,0.0,0.0,0.0,0.0,0.0,0.0,0.0,0.0,0.0,0.0,0.0,0.0,0.0,0.0,0.0,-2.3981,-2.3514,0.0,-2.3541,-2.2605,-2.2124,-2.1804,-2.163,-2.1269,-2.1309,-2.1657,-2.1884,-2.2218,-2.2632,-2.2873,-2.3313,-2.3861,-2.3861,-2.4182,-2.4636,-2.4636,-2.4636,-2.4636,0.0,0.0,0.0,0.0,0.0,0.0,-3.9941,-4.0293,-4.0703,-4.1016,-4.1055,-4.1055,-4.1055,-4.0781,-4.0566,-4.0527,-3.9434,-3.8711,-3.8574,-3.7851,-3.7207,-3.6758,-3.6309,-3.5684,-3.4844,-3.3535,-3.3105,0.0,0.0,-3.2695,0.0,0.0,0.0,0.0,0.0,0.0,0.0,-3.1562,-3.1348,-3.1055,-3.0937,-3.0918,-3.0937,-3.0898,-3.0898,-3.0898,-3.0898,-3.0898,-3.0898,-3.0898,-3.0918,-3.0957,-3.0957,-3.1093,-3.0572,-2.7228,-2.6248,-2.5561,-2.23,-2.2341,-2.2952,-2.1475,-2.2215,-2.2966,-2.1475,-2.1109,-2.1109,-2.1109,-2.1109,-2.1203,-2.1496,-2.179,-2.2084,0.0,0.0,0.0,0.0,0.0,0.0,0.0,0.0,0.0,0.0,0.0,0.0,0.0,0.0,0.0,0.0,0.0,0.0,-2.2472,0.0,-2.4182,-2.4128,-2.3647,-2.3354,-2.3233,-2.2124,-2.171,-2.1924,-2.1363,-2.1416,-2.1951,-2.1977,-2.2458,-2.3247,-2.3273,-2.3634,-2.4168,-2.4168,-2.4356,-2.4636,-2.4636,-2.4636,-2.4636,0.0,0.0,0.0,0.0,0.0,0.0,0.0,-4.0195,-4.0293,-4.0723,-4.0566,-4.041,-4.041,-4.0,-3.9726,-3.9726,-3.8789,-3.8086,-3.7832,-3.7246,-3.6621,-3.5937,-3.5742,-3.5098,-3.3945,-3.3184,-3.2871,0.0,0.0,0.0,0.0,0.0,0.0,0.0,0.0,-3.1836,-3.1504,-3.125,-3.1055,-3.0918,-3.1172,-3.1113,-3.0918,-3.1172,-3.1113,-3.0898,-3.0898,-3.0898,-3.0898,-3.0898,-3.0898,-3.0801,-3.0068,-2.9094,-2.7817,-2.5558,-2.4174,-2.2986,-2.1515,-2.1601,-2.2215,-2.2466,-2.2341,-2.2215,-2.2466,-2.1853,-2.1109,-2.1109,-2.1109,-2.1149,-2.1269,-2.1523,-2.1817,-2.2111,0.0,0.0,0.0,0.0,0.0,0.0,0.0,0.0,0.0,0.0,0.0,0.0,0.0,0.0,0.0,0.0,0.0,-2.2953,0.0,-2.3567,-2.3941,-2.334,-2.3046,-2.3033,-2.2205,-2.1964,-2.2231,-2.1817,-2.1857,-2.2271,-2.2632,-2.2993,-2.334,-2.3514,-2.3834,-2.4209,-2.4209,-2.4382,-2.4636,-2.4636,-2.4636,-2.4636,-3.873,0.0,-3.8496,0.0,-3.9121,-3.9219,-4.0195,-3.9961,-3.9805,-4.0098,-3.9648,-3.9473,-3.9863,-3.9375,-3.9023,-3.9023,-3.8125,-3.7422,-3.7129,-3.6719,-3.6152,-3.543,-3.5137,0.0,-3.3437,-3.2754,-3.2422,-3.2422,-3.2129,0.0,0.0,0.0,0.0,0.0,-3.166,-3.1445,-3.1309,-3.1016,-3.0898,-3.0918,-3.1211,-3.1152,-3.0918,-3.123,-3.1152,-3.0898,-3.0898,-3.0898,-3.0898,-3.0898,-3.0898,-3.0703,-2.9867,-2.8282,-2.6399,-2.5061,-2.3738,-2.2452,-2.1964,-2.1853,-2.209,-2.3325,-2.2716,-2.1978,-2.2716,-2.1978,-2.1109,-2.1109,-2.1109,-2.1109,-2.1109,-2.1283,-2.155,-2.1924,0.0,0.0,0.0,0.0,0.0,0.0,-2.2418,-2.2258,-2.2178,0.0,0.0,0.0,0.0,0.0,0.0,0.0,0.0,0.0,0.0,0.0,0.0,-2.3126,-2.2819,-2.2726,-2.2231,-2.2138,-2.2418,-2.2298,-2.2311,-2.2445,-2.306,-2.338,-2.3487,-2.3781,-2.4075,-2.4329,-2.4329,-2.4449,-2.4636,-2.4636,-2.4636,-2.4636,-3.9101,-3.9883,-4.0351,-3.9961,-4.0586,-4.0859,-4.0039,-3.9512,-3.9219,-3.9219,-3.8476,-3.8437,-3.9746,-3.9101,-3.8574,-3.8574,-3.7422,-3.668,-3.668,-3.6269,-3.584,0.0,0.0,-3.3887,-3.3437,-3.2187,-3.1543,-3.1543,0.0,0.0,-3.1543,0.0,-3.1953,-3.1523,-3.1523,-3.1289,-3.0898,-3.0898,-3.0898,-3.0898,-3.0898,-3.0898,-3.0898,-3.0898,-3.0898,-3.0898,-3.0898,-3.0898,-3.0898,-3.0898,-3.0898,-3.0898,-3.0898,-2.9785,-2.8051,-2.647,-2.5984,-2.5619,-2.4054,-2.3574,-2.3574,-2.3574,-2.3574,-2.3076,-2.1475,-2.1109,-2.1109,-2.1109,-2.1109,-2.1109,-2.1109,-2.1109,-2.1309,-2.1884,0.0,0.0,0.0,0.0,0.0,0.0,-2.1991,-2.1884,-2.159,0.0,0.0,0.0,0.0,0.0,0.0,0.0,0.0,-2.2432,-2.33,0.0,-2.334,-2.302,-2.2712,-2.2418,-2.2124,-2.2138,-2.2432,-2.2712,-2.2699,-2.2445,-2.306,-2.3487,-2.3794,-2.4075,-2.4369,-2.4636,-2.4636,-2.4636,-2.4636,-2.4636,-2.4636,-2.4636,-3.875,-3.9004,-3.916,-3.9023,-3.9219,-3.9414,-3.9414,-3.9062,-3.8887,-3.916,-3.8457,-3.8086,-3.8496,-3.7793,-3.7285,0.0,-3.6367,-3.5801,0.0,-3.5371,-3.4922,-3.4512,-3.3945,-3.3301,-3.2578,-3.1875,-3.1367,-3.1094,0.0,0.0,0.0,-3.166,-3.1504,-3.1094,-3.1094,-3.1016,-3.0898,-3.0898,-3.0898,-3.0918,-3.1211,-3.1152,-3.0918,-3.1211,-3.1133,-3.0898,-3.0898,-3.0898,-3.0898,-3.0898,-3.0138,-2.9412,-3.0528,-2.9785,-2.8051,-2.647,-2.5984,-2.5863,-2.5375,-2.4409,-2.3807,-2.5024,-2.3559,-2.2104,-2.2716,-2.1978,-2.1109,-2.1109,-2.1109,-2.1109,-2.1109,-2.1109,-2.1243,-2.163,-2.1857,0.0,0.0,0.0,0.0,0.0,-2.2285,-2.2164,0.0,-2.2191,0.0,0.0,0.0,0.0,0.0,0.0,0.0,0.0,-2.2913,0.0,-2.3327,-2.2819,-2.2619,-2.2712,-2.2418,-2.2432,-2.2726,-2.2819,-2.2926,-2.306,-2.346,-2.3794,-2.4088,-2.4382,-2.4556,-2.4636,-2.4636,-2.4636,-2.4636,-2.4636,-2.4636,-2.4636,-3.8574,-3.8691,-3.8711,-3.8379,-3.8476,-3.8555,-3.8496,-3.8262,-3.8184,-3.8457,-3.7891,-3.7383,-3.7226,-3.6601,0.0,-3.6406,-3.5801,-3.5312,-3.5137,-3.4863,-3.4434,-3.3848,-3.3418,-3.2793,-3.1953,-3.1504,0.0,-3.0898,-3.1152,-3.1289,-3.1289,-3.1289,-3.1133,-3.0898,-3.0898,-3.0898,-3.0898,-3.0898,-3.0898,-3.0918,-3.1172,-3.1133,-3.0918,-3.1191,-3.1113,-3.0898,-3.0898,-3.0898,-3.0898,-3.0898,-3.0157,-2.953,-3.0528,-3.0157,-2.9039,-2.7314,-2.6953,-2.6953,-2.6953,-2.5741,-2.4778,-2.5741,-2.4039,-2.209,-2.2591,-2.1853,-2.1109,-2.1109,-2.1109,-2.1109,-2.1109,-2.1109,-2.1203,-2.151,-2.171,-2.1857,-2.1977,0.0,0.0,0.0,0.0,0.0,0.0,-2.2151,-2.2205,0.0,0.0,0.0,0.0,0.0,0.0,-2.2966,-2.2726,0.0,-2.3153,-2.2779,-2.2672,-2.2859,-2.2672,-2.2739,-2.3033,-2.3033,-2.3207,-2.3514,-2.3808,-2.4035,-2.4222,-2.4516,-2.4636,-2.4636,-2.4636,-2.4636,-2.4636,-2.4636,-2.4636,-2.4636,-3.8496,-3.8809,-3.8809,0.0,-3.8223,0.0,-3.7422,-3.7305,-3.7305,-3.7305,-3.6894,-3.6465,-3.6055,-3.5605,-3.5488,-3.5859,0.0,0.0,0.0,-3.4609,-3.4238,-3.3418,-3.2969,-3.2363,-3.1543,-3.1113,-3.0898,-3.0898,-3.0898,-3.0898,-3.0898,-3.0898,-3.0898,-3.0898,-3.0898,-3.0898,-3.0898,-3.0898,-3.0898,-3.0898,-3.0898,-3.0898,-3.0898,-3.0898,-3.0898,-3.0898,-3.0898,-3.0898,-3.0898,-3.0898,-3.0898,-3.0898,-3.0898,-3.0898,-3.0645,-2.9039,-2.8545,-2.8545,-2.8545,-2.7314,-2.5984,-2.5984,-2.4655,-2.2966,-2.1475,-2.1109,-2.1109,-2.1109,-2.1109,-2.1109,-2.1109,-2.1109,-2.1203,-2.147,-2.155,-2.167,-2.1924,0.0,0.0,0.0,0.0,0.0,-2.2044,-2.2017,-2.1897,0.0,0.0,0.0,0.0,0.0,-2.2739,-2.2458,-2.2712,-2.2859,-2.2859,-2.2859,-2.2859,-2.2859,-2.2859,-2.3033,-2.3327,-2.3327,-2.35,-2.3821,-2.4088,-2.4209,-2.4249,-2.4529,-2.4636,-2.4636,-2.4636,-2.4636,-2.4636,-2.4636,-2.4636,-2.4636,0.0,0.0,-3.7676,-3.748,-3.7519,-3.7539,-3.7324,-3.7305,-3.7305,-3.7305,-3.6641,-3.6133,-3.6035,-3.5332,-3.4766,-3.4551,-3.4453,-3.4199,-3.375,-3.373,-3.3496,-3.2969,-3.2539,-3.207,-3.1523,-3.1113,-3.0898,-3.0898,-3.0898,-3.0898,-3.0898,-3.0898,-3.0898,-3.0898,-3.0898,-3.0898,-3.0898,-3.0898,-3.0898,-3.0898,-3.0898,-3.0898,-3.0898,-3.0898,-3.0898,-3.0898,-3.0898,-3.0898,-3.0898,-3.0898,-3.0898,-3.0898,-3.0898,-3.0898,-3.0762,-3.0392,-3.0274,-3.0274,-3.0274,-2.8188,-2.5984,-2.5984,-2.3792,-2.1601,-2.1235,-2.1109,-2.1109,-2.1109,-2.1109,-2.1109,-2.1109,-2.1109,-2.1136,-2.1203,-2.159,-2.183,-2.167,-2.2031,0.0,0.0,-2.2378,-2.2392,-2.2325,-2.2311,-2.2285,0.0,0.0,0.0,0.0,-2.2779,-2.2832,-2.2752,-2.2819,-2.2859,-2.2859,-2.2859,-2.2859,-2.2859,-2.2859,-2.3033,-2.3327,-2.3327,-2.3607,-2.4102,-2.4168,-2.4329,-2.4543,-2.4609,-2.4636,-2.4636,-2.4636,-2.4636,-2.4636,-2.4636,-2.4636,-2.4636,-3.7344,-3.7305,-3.7226,-3.7051,-3.7012,-3.6934,-3.6738,-3.6543,-3.6426,-3.6426,-3.584,-3.5351,-3.5156,-3.4707,-3.4238,-3.3809,-3.3965,-3.3887,-3.3457,-3.3242,-3.2949,-3.2519,-3.209,-3.166,-3.125,-3.0996,-3.0898,-3.0898,-3.0898,-3.0898,-3.0898,-3.0898,-3.0898,-3.0898,-3.0898,-3.0898,-3.0898,-3.0898,-3.0898,-3.0898,-3.0898,-3.0898,-3.0898,-3.0898,-3.0898,-3.0898,-3.0898,-3.0898,-3.0898,-3.0898,-3.0898,-3.0898,-3.0898,-3.0898,-3.0898,-3.0898,-3.0898,-3.0898,-3.0898,-2.8545,-2.5619,-2.4163,-2.2452,-2.1109,-2.1109,-2.1109,-2.1109,-2.1109,-2.1109,-2.1109,-2.1109,-2.1109,-2.1109,-2.1109,-2.1496,-2.1737,-2.1577,-2.1937,0.0,-2.2218,-2.2218,-2.2271,-2.2405,-2.2298,-2.2271,-2.2405,-2.2418,0.0,-2.2645,-2.2792,-2.2859,-2.2859,-2.2859,-2.2859,-2.2859,-2.2859,-2.2939,-2.3073,-2.3073,-2.33,-2.3728,-2.3728,-2.3968,-2.4396,-2.4396,-2.4489,-2.4636,-2.4636,-2.4636,-2.4636,-2.4636,-2.4636,-2.4636,-2.4636,-2.4636,-2.4636,-3.7031,-3.7012,-3.6894,-3.6543,-3.6426,-3.6269,-3.5976,-3.5566,-3.5312,-3.5391,-3.4941,-3.4473,-3.4121,-3.3965,-3.373,-3.3359,-3.3613,-3.3652,-3.334,-3.293,-3.2519,-3.209,-3.1719,-3.1328,-3.0898,-3.0898,-3.0859,-3.0781,-3.0859,-3.0859,-3.0781,-3.0859,-3.0898,-3.0898,-3.0898,-3.0898,-3.0898,-3.0898,-3.0898,-3.0898,-3.0898,-3.0898,-3.0898,-3.0898,-3.0898,-3.0898,-3.0898,-3.0898,-3.0898,-3.0898,-3.0898,-3.0898,-3.0898,-3.0898,-3.0898,-3.0898,-3.0898,-3.0898,-3.0898,-2.8545,-2.5253,-2.1964,-2.1109,-2.1109,-2.1109,-2.1109,-2.1109,-2.1109,-2.1109,-2.1109,-2.1109,-2.1109,-2.1122,-2.1162,-2.143,-2.1617,-2.1617,0.0,-2.1991,-2.1991,-2.1951,-2.2044,-2.2392,-2.2191,-2.2164,-2.2458,-2.2485,-2.2485,-2.2485,-2.2726,-2.2886,-2.2926,-2.2886,-2.2886,-2.2926,-2.2939,-2.3086,-2.3394,-2.3394,-2.3674,-2.4209,-2.4209,-2.4369,-2.4636,-2.4636,-2.4636,-2.4636,-2.4636,-2.4636,-2.4636,-2.4636,-2.4609,-2.4569,-2.4623,-2.4609,-2.4583,-3.584,-3.5684,-3.5664,-3.5605,-3.5273,-3.5117,-3.543,-3.5098,-3.4941,-3.5351,-3.4687,-3.4141,-3.4082,-3.3418,-3.2969,-3.2891,-3.2637,-3.2578,-3.2871,-3.25,-3.207,-3.1641,-3.1562,-3.1328,-3.0898,-3.0898,-3.0703,-3.0312,-3.0703,-3.0684,-3.0312,-3.0703,-3.0898,-3.0898,-3.0898,-3.0898,-3.0898,-3.0898,-3.0898,-3.0898,-3.0898,-3.0898,-3.0898,-3.0898,-3.0898,-3.0898,-3.0898,-3.0898,-3.0898,-3.0898,-3.0898,-3.0898,-3.0898,-3.0898,-3.0898,-3.0898,-3.0898,-3.0898,-3.0898,-2.8545,-2.5253,-2.1964,-2.1109,-2.1109,-2.1109,-2.1109,-2.1109,-2.1109,-2.1109,-2.1109,-2.1109,-2.1109,-2.1189,-2.1443,-2.1724,-2.1924,-2.1924,0.0,-2.1991,-2.1991,-2.1764,-2.183,-2.2365,-2.2378,-2.2472,-2.2766,-2.2792,-2.2792,-2.2792,-2.2832,-2.2979,-2.3247,-2.2993,-2.2993,-2.3247,-2.326,-2.3407,-2.3701,-2.3701,-2.3875,-2.4209,-2.4209,-2.4369,-2.4636,-2.4636,-2.4636,-2.4636,-2.4636,-2.4636,-2.4636,-2.4636,-2.4489,-2.4302,-2.4543,-2.4476,-2.4302,-3.5098,-3.5019,-3.5019,-3.5019,-3.4844,-3.4766,-3.498,-3.4648,-3.4434,-3.4648,-3.4121,-3.373,-3.373,-3.3164,-3.2793,-3.2793,-3.2187,-3.1894,-3.209,-3.1934,-3.1738,-3.1523,-3.1309,-3.1094,-3.0898,-3.0898,-3.0664,-3.0195,-3.0664,-3.0644,-3.0215,-3.0664,-3.0898,-3.0898,-3.0898,-3.0898,-3.0898,-3.0898,-3.0898,-3.0898,-3.0898,-3.0898,-3.0898,-3.0898,-3.0898,-3.0898,-3.0898,-3.0898,-3.0898,-3.0898,-3.0898,-3.0898,-3.0898,-3.0898,-3.0898,-3.0898,-3.0274,-2.9412,-2.8545,-2.6486,-2.4163,-2.1727,-2.1109,-2.1109,-2.1109,-2.1109,-2.1109,-2.1109,-2.1109,-2.1109,-2.1109,-2.1109,-2.1203,-2.151,-2.167,0.0,0.0,-2.175,-2.175,-2.175,-2.163,-2.1777,-2.2365,-2.2418,-2.2539,-2.2846,-2.2859,-2.2859,-2.2859,-2.302,-2.318,-2.3327,-2.334,-2.342,-2.3567,-2.3567,-2.3714,-2.4008,-2.4008,-2.4155,-2.4436,-2.4436,-2.4516,-2.4636,-2.4636,-2.4636,-2.4636,-2.4636,-2.4543,-2.4396,-2.4396,-2.4329,-2.4222,-2.4356,-2.4422,-2.4449,-3.457,-3.4551,-3.4551,-3.4551,-3.4473,-3.4434,-3.4531,-3.4199,-3.3965,-3.4062,-3.3691,-3.3379,-3.3281,-3.291,-3.2617,-3.25,-3.1816,-3.1367,-3.1367,-3.1367,-3.1367,-3.1367,-3.1055,-3.0898,-3.0898,-3.0781,-3.0508,-3.0059,-3.0508,-3.0508,-3.0059,-3.0625,-3.0898,-3.0898,-3.0898,-3.0898,-3.0898,-3.0898,-3.0898,-3.0898,-3.0898,-3.0898,-3.0898,-3.0898,-3.0898,-3.0898,-3.0898,-3.0898,-3.0898,-3.0898,-3.0898,-3.0898,-3.0898,-3.0898,-3.0898,-3.0898,-2.9412,-2.7452,-2.5863,-2.4532,-2.3201,-2.1475,-2.1109,-2.1109,-2.1109,-2.1109,-2.1109,-2.1109,-2.1162,-2.1216,-2.1216,-2.1216,-2.1309,-2.1603,0.0,0.0,0.0,-2.155,-2.155,-2.155,-2.155,-2.1777,-2.2365,-2.2418,-2.2539,-2.2846,-2.2859,-2.2899,-2.2966,-2.3126,-2.3287,-2.342,-2.3647,-2.3808,-2.3875,-2.3875,-2.4022,-2.4302,-2.4302,-2.4422,-2.4636,-2.4636,-2.4636,-2.4636,-2.4636,-2.4636,-2.4636,-2.4636,-2.4502,-2.4302,-2.4302,-2.4262,-2.4209,-2.4275,-2.4396,-2.4543,-3.4199,-3.4121,-3.4121,-3.4121,-3.3789,-3.3652,-3.4062,-3.375,-3.3613,-3.4023,-3.3691,-3.3281,-3.2891,-3.2461,-3.2051,-3.1641,-3.1191,-3.0937,-3.0937,-3.0937,-3.0937,-3.0937,-3.0918,-3.0898,-3.0898,-3.0469,-3.0039,-2.9609,-3.0039,-3.0039,-2.9629,-3.0488,-3.0898,-3.0898,-3.0898,-3.0898,-3.0898,-3.0898,-3.0898,-3.0898,-3.0898,-3.0898,-3.0898,-3.0898,-3.0898,-3.0898,-3.0898,-3.0898,-3.0898,-3.0898,-3.0898,-3.0898,-3.0898,-3.0898,-3.0898,-3.0898,-2.8683,-2.5863,-2.4178,-2.3698,-2.3201,-2.1475,-2.1109,-2.1109,-2.1109,-2.1109,-2.1109,-2.1109,-2.1323,-2.1523,-2.1523,-2.1523,-2.1617,-2.1911,0.0,0.0,-2.155,-2.155,-2.155,-2.155,-2.155,-2.1777,-2.2365,-2.2418,-2.2539,-2.2846,-2.2859,-2.2993,-2.3273,-2.3046,-2.3153,-2.3714,-2.3754,-2.3901,-2.4168,-2.4168,-2.4315,-2.4609,-2.4609,-2.4609,-2.4636,-2.4636,-2.4636,-2.4636,-2.4636,-2.4636,-2.4636,-2.4636,-2.4623,-2.4609,-2.4609,-2.4436,-2.4235,-2.4502,-2.4449,-2.4275,-3.3691,-3.3672,-3.3672,-3.3672,-3.3535,-3.3476,-3.3652,-3.3535,-3.3476,-3.3652,-3.3301,-3.2969,-3.2812,-3.2168,-3.1699,-3.1523,-3.1133,-3.0898,-3.0898,-3.0898,-3.0898,-3.0898,-3.0898,-3.0898,-3.0898,-3.0723,-3.041,-2.9961,-3.041,-3.041,-2.998,-3.0605,-3.0898,-3.0879,-3.0586,-3.0469,-3.0449,-3.0176,-3.0215,-3.0469,-3.0469,-3.0625,-3.0898,-3.0898,-3.0898,-3.0898,-3.0898,-3.0898,-3.0898,-3.0898,-3.0898,-3.0898,-3.0898,-3.0898,-3.0528,-2.8426,-2.6227,-2.4178,-2.2466,-2.209,-2.1853,-2.1235,-2.1109,-2.1109,-2.1109,-2.1109,-2.1162,-2.1349,-2.147,-2.1603,-2.179,-2.1817,-2.1857,-2.1964,0.0,-2.1817,-2.1817,-2.1817,-2.1817,-2.1817,-2.1977,-2.2178,-2.2392,-2.2579,-2.2739,-2.2859,-2.3046,-2.3207,-2.3313,-2.3554,-2.3888,-2.4289,-2.4302,-2.4369,-2.4476,-2.4476,-2.4529,-2.4636,-2.4636,-2.4636,-2.4636,-2.4636,-2.4636,-2.4636,-2.4636,-2.4636,-2.4636,-2.4636,-2.4529,-2.4369,-2.4369,-2.4302,-2.4235,-2.4529,-2.4676,-2.4783,-3.3418,-3.3418,-3.3418,-3.3418,-3.3418,-3.3418,-3.3418,-3.3418,-3.3418,-3.3418,-3.3066,-3.2734,-3.2617,-3.1953,-3.1465,-3.1328,-3.1055,-3.0898,-3.0898,-3.0898,-3.0898,-3.0898,-3.0898,-3.0898,-3.0898,-3.0625,-3.0391,-3.0195,-3.0391,-3.0371,-3.0215,-3.0664,-3.082,-3.0664,-3.0332,-3.0117,-3.0,-2.9824,-2.9941,-3.0215,-3.0351,-3.0605,-3.0898,-3.0898,-3.0898,-3.0898,-3.0898,-3.0898,-3.0898,-3.0898,-3.0898,-3.0898,-3.0898,-3.0528,-2.9412,-2.6227,-2.4409,-2.3201,-2.1601,-2.1109,-2.1109,-2.1109,-2.1109,-2.1109,-2.1109,-2.1189,-2.1309,-2.151,-2.1697,-2.1884,-2.2084,-2.2124,-2.2124,-2.2124,-2.2044,-2.1991,-2.1991,-2.1991,-2.2017,-2.2111,-2.2298,-2.2458,-2.2552,-2.2739,-2.2899,-2.3006,-2.3207,-2.3367,-2.346,-2.4022,-2.4382,-2.4489,-2.4596,-2.4636,-2.4636,-2.4636,-2.4636,-2.4636,-2.4636,-2.4636,-2.4636,-2.4636,-2.4636,-2.4636,-2.4636,-2.4636,-2.4636,-2.4636,-2.4516,-2.4342,-2.4342,-2.4342,-2.4369,-2.4663,-2.4903,-2.5104,-3.3418,-3.3418,-3.3418,-3.3418,-3.3418,-3.3418,-3.3418,-3.3418,-3.3418,-3.3418,-3.3066,-3.2637,-3.2207,-3.1777,-3.1348,-3.0918,-3.0898,-3.0898,-3.0898,-3.0898,-3.0898,-3.0898,-3.0898,-3.0898,-3.0879,-3.0019,-2.9785,-3.0195,-2.9785,-2.9785,-3.0215,-3.0664,-3.0644,-3.0195,-3.0195,-2.9961,-2.959,-3.0,-3.0195,-3.0234,-3.0703,-3.0879,-3.0898,-3.0898,-3.0898,-3.0898,-3.0898,-3.0898,-3.0898,-3.0898,-3.0898,-3.0898,-3.0898,-2.9766,-2.7692,-2.4548,-2.3574,-2.3201,-2.1601,-2.1109,-2.1109,-2.1109,-2.1109,-2.1109,-2.1109,-2.1336,-2.155,-2.155,-2.2017,-2.2418,-2.2418,-2.2418,-2.2418,-2.2418,-2.2178,-2.1991,-2.1991,-2.1991,-2.2098,-2.2392,-2.2418,-2.2539,-2.2832,-2.2859,-2.2993,-2.33,-2.3327,-2.346,-2.3768,-2.4329,-2.4502,-2.4209,-2.4489,-2.4636,-2.4636,-2.4636,-2.4636,-2.4636,-2.4636,-2.4636,-2.4636,-2.4636,-2.4636,-2.4636,-2.4636,-2.4636,-2.4636,-2.4636,-2.4636,-2.4636,-2.4636,-2.4636,-2.4676,-2.497,-2.5077,-2.5077,-3.3418,-3.3418,-3.3418,-3.3418,-3.3418,-3.3418,-3.3418,-3.3418,-3.3418,-3.3418,-3.3066,-3.2637,-3.2207,-3.1777,-3.1348,-3.0918,-3.0898,-3.0898,-3.0898,-3.0898,-3.0898,-3.0898,-3.0898,-3.0742,-3.041,-3.0137,-3.0078,-3.0195,-3.0078,-3.0234,-3.0684,-3.0488,-3.0332,-3.0176,-2.957,-2.9219,-2.9121,-2.9238,-2.9473,-2.9785,-3.0234,-3.0605,-3.0898,-3.0898,-3.0898,-3.0898,-3.0898,-3.0898,-3.0898,-3.0898,-3.0898,-3.0645,-2.953,-2.7211,-2.4778,-2.3946,-2.2716,-2.1727,-2.1235,-2.1109,-2.1109,-2.1109,-2.1109,-2.1109,-2.1109,-2.1336,-2.1617,-2.1817,-2.2151,-2.2485,-2.2699,-2.2726,-2.2659,-2.2458,-2.2525,-2.2525,-2.2311,-2.2472,-2.2632,-2.2712,-2.2726,-2.2766,-2.2859,-2.306,-2.322,-2.3313,-2.3714,-2.4075,-2.4369,-2.4543,-2.4596,-2.4516,-2.4596,-2.4636,-2.4636,-2.4636,-2.4636,-2.4636,-2.4636,-2.4636,-2.4649,-2.485,-2.4836,-2.4649,-2.4863,-2.4823,-2.4636,-2.4636,-2.4636,-2.4636,-2.4636,-2.4636,-2.4676,-2.497,-2.5077,-2.4953,-3.3379,-3.3418,-3.3418,-3.3418,-3.3418,-3.3418,-3.3418,-3.3281,-3.3164,-3.3164,-3.2656,-3.2187,-3.1934,-3.1523,-3.1172,-3.0918,-3.0898,-3.0898,-3.0898,-3.0898,-3.0898,-3.0898,-3.0723,-3.0488,-3.0195,-2.9863,-2.9863,-3.0195,-3.0039,-3.0273,-3.0879,-3.041,-3.0098,-2.9922,-2.9219,-2.8926,-2.8926,-2.9101,-2.9434,-2.9863,-3.0293,-3.0644,-3.0898,-3.0898,-3.0898,-3.0898,-3.0898,-3.0898,-3.0898,-3.0898,-3.0509,-2.953,-2.7211,-2.5146,-2.345,-2.2841,-2.1853,-2.1109,-2.1109,-2.1109,-2.1109,-2.1109,-2.1109,-2.1109,-2.1109,-2.143,-2.1777,-2.1951,-2.2311,-2.2645,-2.2832,-2.2859,-2.2806,-2.2619,-2.2739,-2.2806,-2.2619,-2.2752,-2.2859,-2.2859,-2.2859,-2.2859,-2.2859,-2.3033,-2.3247,-2.3487,-2.4048,-2.4449,-2.4623,-2.4636,-2.4636,-2.4636,-2.4636,-2.4636,-2.4636,-2.4636,-2.4636,-2.4636,-2.4756,-2.481,-2.4823,-2.5117,-2.5157,-2.4983,-2.505,-2.4983,-2.4796,-2.469,-2.4636,-2.4636,-2.4636,-2.4636,-2.4515,-2.4044,-2.3833,-2.3555,-3.3242,-3.3301,-3.332,-3.3359,-3.334,-3.332,-3.3359,-3.3008,-3.2734,-3.2734,-3.2051,-3.1562,-3.1523,-3.1172,-3.0937,-3.0898,-3.0898,-3.0898,-3.0898,-3.0898,-3.0879,-3.084,-3.0391,-3.0117,-3.0078,-2.9355,-2.9355,-3.0137,-2.9805,-3.0059,-3.0879,-3.0371,-2.9941,-2.9551,-2.9121,-2.8926,-2.8945,-2.9434,-2.9844,-3.0234,-3.0703,-3.0898,-3.0879,-3.084,-3.0859,-3.0879,-3.084,-3.0859,-3.0898,-3.0898,-2.9648,-2.7452,-2.4655,-2.3574,-2.3076,-2.1601,-2.1109,-2.1109,-2.1109,-2.1109,-2.1109,-2.1109,-2.1109,-2.1122,-2.1149,-2.159,-2.1991,-2.2017,-2.2472,-2.2859,-2.2859,-2.2859,-2.2859,-2.2859,-2.2859,-2.2859,-2.2859,-2.2859,-2.2859,-2.2859,-2.2859,-2.2859,-2.2859,-2.2886,-2.3153,-2.3768,-2.4302,-2.4609,-2.4636,-2.4609,-2.4609,-2.4636,-2.4609,-2.4609,-2.4636,-2.4663,-2.4676,-2.4676,-2.4957,-2.509,-2.513,-2.5424,-2.5531,-2.5464,-2.5224,-2.509,-2.5024,-2.4743,-2.4636,-2.4636,-2.4636,-2.4636,-2.4367,-2.2627,-2.1942,-2.1638,-3.2422,-3.2441,-3.2539,-3.2871,-3.2656,-3.2559,-3.2871,-3.2578,-3.2305,-3.2305,-3.2148,-3.1894,-3.1562,-3.1445,-3.125,-3.0918,-3.0898,-3.0898,-3.0898,-3.0898,-3.0723,-3.0371,-2.9941,-2.9551,-2.9199,-2.9355,-2.9512,-2.9707,-2.9941,-3.0351,-3.0879,-3.0078,-2.9648,-2.9551,-2.9121,-2.8926,-2.8965,-2.9726,-3.0117,-3.0234,-3.0703,-3.0898,-3.0859,-3.0488,-3.0566,-3.084,-3.0488,-3.0586,-3.0898,-3.0898,-2.8068,-2.4778,-2.5253,-2.3668,-2.1601,-2.1235,-2.1109,-2.1109,-2.1109,-2.1109,-2.1109,-2.1109,-2.1109,-2.1176,-2.1403,-2.1737,-2.2044,-2.2271,-2.2619,-2.2859,-2.2859,-2.2859,-2.2859,-2.2859,-2.2859,-2.2859,-2.2859,-2.2859,-2.2859,-2.2859,-2.2859,-2.2859,-2.2859,-2.3086,-2.3474,-2.4062,-2.4222,-2.4396,-2.4623,-2.4422,-2.4396,-2.4623,-2.4422,-2.4409,-2.4636,-2.4863,-2.4983,-2.4983,-2.505,-2.5197,-2.5424,-2.5732,-2.5611,-2.5184,-2.5344,-2.5157,-2.473,-2.4663,-2.4636,-2.4636,-2.4636,-2.4636,-2.4341,-2.242,-2.1684,-2.1222,-3.2129,-3.2168,-3.2246,-3.2461,-3.2324,-3.2246,-3.2461,-3.2129,-3.1855,-3.1855,-3.168,-3.1465,-3.125,-3.1211,-3.1133,-3.0918,-3.0898,-3.0898,-3.0898,-3.0898,-3.0684,-3.0215,-2.9785,-2.9355,-2.8926,-2.9355,-2.957,-2.957,-2.9785,-3.0234,-3.0879,-3.0195,-2.9863,-2.9844,-2.9414,-2.9336,-2.9551,-3.0,-3.0332,-3.0527,-3.0547,-3.0566,-3.0508,-3.0059,-3.0176,-3.0412,-2.945,-2.8806,-2.8426,-2.7709,-2.5757,-2.3574,-2.3683,-2.2452,-2.1109,-2.1109,-2.1109,-2.1109,-2.1109,-2.1109,-2.1109,-2.1109,-2.1216,-2.1363,-2.151,-2.1777,-2.2071,-2.2352,-2.2659,-2.2859,-2.2859,-2.2859,-2.2859,-2.2859,-2.2859,-2.2859,-2.2859,-2.2859,-2.2859,-2.2859,-2.2859,-2.2859,-2.2859,-2.314,-2.3514,-2.3968,-2.4128,-2.4329,-2.4623,-2.4489,-2.4476,-2.4636,-2.4489,-2.4476,-2.4636,-2.493,-2.5144,-2.5291,-2.5424,-2.5585,-2.5732,-2.6026,-2.5919,-2.5504,-2.5504,-2.5264,-2.4836,-2.469,-2.4636,-2.4636,-2.4636,-2.4636,-2.4179,-2.1291,-1.8874,-1.6904,-3.1875,-3.1953,-3.1973,-3.2051,-3.1992,-3.1973,-3.2051,-3.1699,-3.1406,-3.1406,-3.1113,-3.0898,-3.0898,-3.0898,-3.0898,-3.0898,-3.0898,-3.0898,-3.0898,-3.0898,-3.0684,-3.0215,-2.9863,-2.9434,-2.8926,-2.9355,-2.957,-2.957,-2.9726,-3.0176,-3.0879,-3.041,-3.0195,-3.0176,-2.9824,-2.9863,-3.0195,-3.0293,-3.0527,-3.0859,-3.0391,-3.0195,-3.0156,-2.9726,-2.9711,-2.9604,-2.8315,-2.6883,-2.5375,-2.4425,-2.3698,-2.2952,-2.1853,-2.1362,-2.1109,-2.1109,-2.1109,-2.1109,-2.1109,-2.1109,-2.1109,-2.1109,-2.1336,-2.1563,-2.1617,-2.1857,-2.2138,-2.2432,-2.2699,-2.2859,-2.2859,-2.2859,-2.2859,-2.2859,-2.2859,-2.2859,-2.2859,-2.2859,-2.2859,-2.2859,-2.2859,-2.2859,-2.2859,-2.314,-2.3447,-2.3754,-2.4035,-2.4329,-2.4623,-2.4596,-2.4583,-2.4636,-2.4596,-2.4609,-2.4716,-2.501,-2.5304,-2.5585,-2.5838,-2.5985,-2.6039,-2.6226,-2.6159,-2.5865,-2.5571,-2.5277,-2.4983,-2.4743,-2.4636,-2.4636,-2.4636,-2.4636,-2.4179,-2.008,-1.5998,-1.2501,-3.1055,-3.1074,-3.1172,-3.1543,-3.1309,-3.1191,-3.1543,-3.125,-3.0976,-3.0976,-3.0918,-3.0898,-3.0898,-3.0898,-3.0898,-3.0898,-3.0898,-3.0898,-3.0898,-3.0898,-3.0684,-3.0215,-3.0137,-2.9746,-2.8945,-2.9355,-2.957,-2.957,-3.0332,-3.0781,-3.0879,-3.041,-3.0195,-3.0195,-3.0137,-3.0137,-3.0234,-3.0625,-3.084,-3.0859,-3.0391,-3.0195,-3.0156,-2.9726,-2.9013,-2.8082,-2.7849,-2.6184,-2.4054,-2.5253,-2.3792,-2.1601,-2.2841,-2.2215,-2.1109,-2.1109,-2.1109,-2.1109,-2.1109,-2.1109,-2.1109,-2.1109,-2.1336,-2.1617,-2.1871,-2.2151,-2.2445,-2.2739,-2.2832,-2.2859,-2.2859,-2.2859,-2.2859,-2.2859,-2.2859,-2.2859,-2.2859,-2.2859,-2.2859,-2.2859,-2.2859,-2.2859,-2.2859,-2.314,-2.3447,-2.3754,-2.4035,-2.4329,-2.4623,-2.4396,-2.4382,-2.4623,-2.4396,-2.4502,-2.501,-2.5304,-2.5598,-2.5892,-2.5932,-2.6092,-2.6319,-2.6106,-2.5852,-2.5558,-2.5264,-2.497,-2.469,-2.4649,-2.4636,-2.4636,-2.4636,-2.4636,-2.4179,-2.008,-1.5998,-1.2501,-3.0898,-3.0898,-3.0957,-3.1133,-3.1016,-3.0957,-3.1133,-3.1016,-3.0898,-3.0898,-3.0898,-3.0898,-3.0898,-3.0898,-3.0898,-3.0898,-3.0898,-3.0898,-3.0898,-3.0898,-3.0684,-3.0215,-3.0195,-2.9902,-2.9297,-2.9707,-2.9922,-2.9922,-3.0312,-3.0644,-3.0879,-3.0684,-3.0586,-3.0586,-3.0586,-3.0586,-3.0586,-3.0801,-3.0742,-3.0469,-3.0019,-2.9844,-2.9692,-2.8333,-2.7879,-2.7633,-2.6047,-2.4055,-2.2341,-2.3062,-2.2327,-2.1235,-2.1978,-2.1727,-2.1109,-2.1109,-2.1109,-2.1109,-2.1109,-2.1109,-2.1109,-2.1109,-2.1456,-2.183,-2.1951,-2.2338,-2.2699,-2.2832,-2.2859,-2.2859,-2.2859,-2.2859,-2.2859,-2.2859,-2.2859,-2.2859,-2.2859,-2.2859,-2.2859,-2.2859,-2.2859,-2.2926,-2.31,-2.3247,-2.3514,-2.3981,-2.4128,-2.4329,-2.4623,-2.4516,-2.4502,-2.4636,-2.4516,-2.4649,-2.5077,-2.5371,-2.5585,-2.5718,-2.5879,-2.6106,-2.6373,-2.5919,-2.5638,-2.5504,-2.5211,-2.4917,-2.4636,-2.4636,-2.4636,-2.4636,-2.4636,-2.3264,-2.0991,-1.9176,-1.5998,-1.2501]}]]